<?xml version="1.0" encoding="UTF-8" standalone="no" ?>
<gpx xmlns="http://www.topografix.com/GPX/1/1" xmlns:xsi="http://www.w3.org/2001/XMLSchema-instance" xsi:schemaLocation="http://www.topografix.com/GPX/1/1 http://www.topografix.com/GPX/1/1/gpx.xsd" version="1.1" creator="VisuGPX - https://www.visugpx.com">
  <metadata>
    <name>échappée jurassienne étape 13 Chappelle des Bois/Les Rousses</name>
    <desc><![CDATA[Question météo rien de changé, équipement de pluie dès le départ, direction La Madone en passant au cimetière des pestiférés, à l'ancienne caserne des douanes, je décide de suivre le GR 5, et je monte à la Roche Bernard, une belle mise en jambes. Sous une pluie fine, je rejoins le chalet Rose, puis la rte forestière de la combe aux quilles jusqu'au GRP qui me permet de descendre jusqu'au Lac des Rousses, mon point de chute du jour étant Les Rousses D'Amont Le Grand Tétras. ]]></desc>
  </metadata>
  <trk>
    <name><![CDATA[Jura M Chapelle des Bois /Les Rousses D'Amont 13-Juin16 06:47:03 PM]]></name>
    <trkseg>
      <trkpt lat="46.60189" lon="6.1131">
        <ele>1082.58</ele>
        <time>2016-06-13T06:56:46Z</time>
      </trkpt>
      <trkpt lat="46.60185" lon="6.11318">
        <ele>1083.54</ele>
        <time>2016-06-13T06:57:05Z</time>
      </trkpt>
      <trkpt lat="46.60185" lon="6.11329">
        <ele>1084.02</ele>
        <time>2016-06-13T06:57:20Z</time>
      </trkpt>
      <trkpt lat="46.6018" lon="6.11335">
        <ele>1087.39</ele>
        <time>2016-06-13T06:57:34Z</time>
      </trkpt>
      <trkpt lat="46.60183" lon="6.11357">
        <ele>1087.87</ele>
        <time>2016-06-13T06:57:50Z</time>
      </trkpt>
      <trkpt lat="46.60186" lon="6.11374">
        <ele>1088.83</ele>
        <time>2016-06-13T06:58:04Z</time>
      </trkpt>
      <trkpt lat="46.60183" lon="6.11386">
        <ele>1087.87</ele>
        <time>2016-06-13T06:58:16Z</time>
      </trkpt>
      <trkpt lat="46.60179" lon="6.11391">
        <ele>1087.39</ele>
        <time>2016-06-13T06:58:20Z</time>
      </trkpt>
      <trkpt lat="46.60176" lon="6.11397">
        <ele>1088.35</ele>
        <time>2016-06-13T06:58:26Z</time>
      </trkpt>
      <trkpt lat="46.60161" lon="6.11413">
        <ele>1087.87</ele>
        <time>2016-06-13T06:58:41Z</time>
      </trkpt>
      <trkpt lat="46.60144" lon="6.11427">
        <ele>1085.95</ele>
        <time>2016-06-13T06:58:57Z</time>
      </trkpt>
      <trkpt lat="46.60133" lon="6.11435">
        <ele>1086.91</ele>
        <time>2016-06-13T06:59:07Z</time>
      </trkpt>
      <trkpt lat="46.60124" lon="6.11438">
        <ele>1087.39</ele>
        <time>2016-06-13T06:59:13Z</time>
      </trkpt>
      <trkpt lat="46.60108" lon="6.11447">
        <ele>1086.43</ele>
        <time>2016-06-13T06:59:28Z</time>
      </trkpt>
      <trkpt lat="46.60098" lon="6.11453">
        <ele>1084.99</ele>
        <time>2016-06-13T06:59:39Z</time>
      </trkpt>
      <trkpt lat="46.60078" lon="6.1146">
        <ele>1085.47</ele>
        <time>2016-06-13T06:59:55Z</time>
      </trkpt>
      <trkpt lat="46.60061" lon="6.11462">
        <ele>1084.02</ele>
        <time>2016-06-13T07:00:08Z</time>
      </trkpt>
      <trkpt lat="46.60044" lon="6.11461">
        <ele>1083.06</ele>
        <time>2016-06-13T07:00:22Z</time>
      </trkpt>
      <trkpt lat="46.60029" lon="6.11458">
        <ele>1085.47</ele>
        <time>2016-06-13T07:00:33Z</time>
      </trkpt>
      <trkpt lat="46.60024" lon="6.11455">
        <ele>1086.43</ele>
        <time>2016-06-13T07:00:38Z</time>
      </trkpt>
      <trkpt lat="46.60003" lon="6.11448">
        <ele>1086.43</ele>
        <time>2016-06-13T07:00:55Z</time>
      </trkpt>
      <trkpt lat="46.59998" lon="6.11448">
        <ele>1086.43</ele>
        <time>2016-06-13T07:00:59Z</time>
      </trkpt>
      <trkpt lat="46.59984" lon="6.11444">
        <ele>1087.39</ele>
        <time>2016-06-13T07:01:12Z</time>
      </trkpt>
      <trkpt lat="46.59968" lon="6.11439">
        <ele>1087.39</ele>
        <time>2016-06-13T07:01:27Z</time>
      </trkpt>
      <trkpt lat="46.5995" lon="6.11427">
        <ele>1087.87</ele>
        <time>2016-06-13T07:01:42Z</time>
      </trkpt>
      <trkpt lat="46.59935" lon="6.11413">
        <ele>1086.91</ele>
        <time>2016-06-13T07:01:57Z</time>
      </trkpt>
      <trkpt lat="46.59931" lon="6.11409">
        <ele>1088.83</ele>
        <time>2016-06-13T07:02:02Z</time>
      </trkpt>
      <trkpt lat="46.59924" lon="6.11406">
        <ele>1089.79</ele>
        <time>2016-06-13T07:02:08Z</time>
      </trkpt>
      <trkpt lat="46.599" lon="6.11398">
        <ele>1091.23</ele>
        <time>2016-06-13T07:02:25Z</time>
      </trkpt>
      <trkpt lat="46.59882" lon="6.11399">
        <ele>1091.71</ele>
        <time>2016-06-13T07:02:39Z</time>
      </trkpt>
      <trkpt lat="46.59867" lon="6.11401">
        <ele>1091.23</ele>
        <time>2016-06-13T07:02:51Z</time>
      </trkpt>
      <trkpt lat="46.59852" lon="6.11401">
        <ele>1090.27</ele>
        <time>2016-06-13T07:03:04Z</time>
      </trkpt>
      <trkpt lat="46.59836" lon="6.114">
        <ele>1088.83</ele>
        <time>2016-06-13T07:03:17Z</time>
      </trkpt>
      <trkpt lat="46.59829" lon="6.11401">
        <ele>1089.31</ele>
        <time>2016-06-13T07:03:24Z</time>
      </trkpt>
      <trkpt lat="46.59817" lon="6.11408">
        <ele>1091.71</ele>
        <time>2016-06-13T07:03:37Z</time>
      </trkpt>
      <trkpt lat="46.59815" lon="6.11409">
        <ele>1092.2</ele>
        <time>2016-06-13T07:03:39Z</time>
      </trkpt>
      <trkpt lat="46.59811" lon="6.11407">
        <ele>1092.68</ele>
        <time>2016-06-13T07:03:42Z</time>
      </trkpt>
      <trkpt lat="46.598" lon="6.11399">
        <ele>1093.64</ele>
        <time>2016-06-13T07:03:52Z</time>
      </trkpt>
      <trkpt lat="46.59797" lon="6.11398">
        <ele>1094.12</ele>
        <time>2016-06-13T07:03:54Z</time>
      </trkpt>
      <trkpt lat="46.5978" lon="6.1139">
        <ele>1093.64</ele>
        <time>2016-06-13T07:04:09Z</time>
      </trkpt>
      <trkpt lat="46.59779" lon="6.11386">
        <ele>1093.16</ele>
        <time>2016-06-13T07:04:20Z</time>
      </trkpt>
      <trkpt lat="46.59779" lon="6.11385">
        <ele>1091.71</ele>
        <time>2016-06-13T07:04:40Z</time>
      </trkpt>
      <trkpt lat="46.59779" lon="6.11386">
        <ele>1092.68</ele>
        <time>2016-06-13T07:05:06Z</time>
      </trkpt>
      <trkpt lat="46.59778" lon="6.11387">
        <ele>1093.16</ele>
        <time>2016-06-13T07:05:25Z</time>
      </trkpt>
      <trkpt lat="46.59773" lon="6.11384">
        <ele>1092.68</ele>
        <time>2016-06-13T07:05:40Z</time>
      </trkpt>
      <trkpt lat="46.59772" lon="6.11383">
        <ele>1092.2</ele>
        <time>2016-06-13T07:05:41Z</time>
      </trkpt>
      <trkpt lat="46.59766" lon="6.11369">
        <ele>1089.31</ele>
        <time>2016-06-13T07:05:52Z</time>
      </trkpt>
      <trkpt lat="46.59763" lon="6.11363">
        <ele>1088.35</ele>
        <time>2016-06-13T07:05:56Z</time>
      </trkpt>
      <trkpt lat="46.59754" lon="6.11348">
        <ele>1085.47</ele>
        <time>2016-06-13T07:06:07Z</time>
      </trkpt>
      <trkpt lat="46.59749" lon="6.11343">
        <ele>1084.99</ele>
        <time>2016-06-13T07:06:11Z</time>
      </trkpt>
      <trkpt lat="46.59745" lon="6.11331">
        <ele>1084.99</ele>
        <time>2016-06-13T07:06:18Z</time>
      </trkpt>
      <trkpt lat="46.59738" lon="6.11315">
        <ele>1087.39</ele>
        <time>2016-06-13T07:06:30Z</time>
      </trkpt>
      <trkpt lat="46.59738" lon="6.11315">
        <ele>1087.39</ele>
        <time>2016-06-13T07:06:32Z</time>
      </trkpt>
      <trkpt lat="46.59727" lon="6.11315">
        <ele>1088.35</ele>
        <time>2016-06-13T07:06:42Z</time>
      </trkpt>
      <trkpt lat="46.59724" lon="6.11316">
        <ele>1088.35</ele>
        <time>2016-06-13T07:06:45Z</time>
      </trkpt>
      <trkpt lat="46.59708" lon="6.11309">
        <ele>1085.95</ele>
        <time>2016-06-13T07:06:58Z</time>
      </trkpt>
      <trkpt lat="46.59703" lon="6.11308">
        <ele>1085.47</ele>
        <time>2016-06-13T07:07:02Z</time>
      </trkpt>
      <trkpt lat="46.59691" lon="6.11311">
        <ele>1084.99</ele>
        <time>2016-06-13T07:07:12Z</time>
      </trkpt>
      <trkpt lat="46.59682" lon="6.1133">
        <ele>1084.02</ele>
        <time>2016-06-13T07:07:26Z</time>
      </trkpt>
      <trkpt lat="46.59676" lon="6.11339">
        <ele>1083.06</ele>
        <time>2016-06-13T07:07:33Z</time>
      </trkpt>
      <trkpt lat="46.59664" lon="6.11365">
        <ele>1081.14</ele>
        <time>2016-06-13T07:07:49Z</time>
      </trkpt>
      <trkpt lat="46.59655" lon="6.11387">
        <ele>1078.26</ele>
        <time>2016-06-13T07:08:03Z</time>
      </trkpt>
      <trkpt lat="46.59645" lon="6.11409">
        <ele>1075.85</ele>
        <time>2016-06-13T07:08:18Z</time>
      </trkpt>
      <trkpt lat="46.59635" lon="6.11433">
        <ele>1073.45</ele>
        <time>2016-06-13T07:08:33Z</time>
      </trkpt>
      <trkpt lat="46.59626" lon="6.11449">
        <ele>1072.01</ele>
        <time>2016-06-13T07:08:44Z</time>
      </trkpt>
      <trkpt lat="46.59617" lon="6.11468">
        <ele>1072.49</ele>
        <time>2016-06-13T07:08:57Z</time>
      </trkpt>
      <trkpt lat="46.59618" lon="6.11471">
        <ele>1073.45</ele>
        <time>2016-06-13T07:09:08Z</time>
      </trkpt>
      <trkpt lat="46.59617" lon="6.11472">
        <ele>1074.41</ele>
        <time>2016-06-13T07:09:26Z</time>
      </trkpt>
      <trkpt lat="46.59616" lon="6.11472">
        <ele>1074.41</ele>
        <time>2016-06-13T07:09:51Z</time>
      </trkpt>
      <trkpt lat="46.59613" lon="6.11476">
        <ele>1075.37</ele>
        <time>2016-06-13T07:10:07Z</time>
      </trkpt>
      <trkpt lat="46.59597" lon="6.11491">
        <ele>1075.85</ele>
        <time>2016-06-13T07:10:21Z</time>
      </trkpt>
      <trkpt lat="46.59596" lon="6.11492">
        <ele>1076.33</ele>
        <time>2016-06-13T07:10:22Z</time>
      </trkpt>
      <trkpt lat="46.59591" lon="6.11494">
        <ele>1076.81</ele>
        <time>2016-06-13T07:10:26Z</time>
      </trkpt>
      <trkpt lat="46.5957" lon="6.11495">
        <ele>1078.74</ele>
        <time>2016-06-13T07:10:43Z</time>
      </trkpt>
      <trkpt lat="46.59555" lon="6.11488">
        <ele>1081.14</ele>
        <time>2016-06-13T07:10:56Z</time>
      </trkpt>
      <trkpt lat="46.59538" lon="6.11483">
        <ele>1082.1</ele>
        <time>2016-06-13T07:11:09Z</time>
      </trkpt>
      <trkpt lat="46.5952" lon="6.1148">
        <ele>1082.1</ele>
        <time>2016-06-13T07:11:24Z</time>
      </trkpt>
      <trkpt lat="46.59507" lon="6.1148">
        <ele>1081.62</ele>
        <time>2016-06-13T07:11:35Z</time>
      </trkpt>
      <trkpt lat="46.59486" lon="6.11482">
        <ele>1080.18</ele>
        <time>2016-06-13T07:11:51Z</time>
      </trkpt>
      <trkpt lat="46.59467" lon="6.11484">
        <ele>1080.66</ele>
        <time>2016-06-13T07:12:06Z</time>
      </trkpt>
      <trkpt lat="46.59456" lon="6.11486">
        <ele>1080.18</ele>
        <time>2016-06-13T07:12:15Z</time>
      </trkpt>
      <trkpt lat="46.59451" lon="6.11488">
        <ele>1080.18</ele>
        <time>2016-06-13T07:12:19Z</time>
      </trkpt>
      <trkpt lat="46.59435" lon="6.11488">
        <ele>1079.7</ele>
        <time>2016-06-13T07:12:33Z</time>
      </trkpt>
      <trkpt lat="46.59434" lon="6.11486">
        <ele>1079.7</ele>
        <time>2016-06-13T07:12:55Z</time>
      </trkpt>
      <trkpt lat="46.59427" lon="6.11488">
        <ele>1078.26</ele>
        <time>2016-06-13T07:13:19Z</time>
      </trkpt>
      <trkpt lat="46.59413" lon="6.1149">
        <ele>1077.78</ele>
        <time>2016-06-13T07:13:31Z</time>
      </trkpt>
      <trkpt lat="46.59395" lon="6.11492">
        <ele>1079.22</ele>
        <time>2016-06-13T07:13:46Z</time>
      </trkpt>
      <trkpt lat="46.59375" lon="6.115">
        <ele>1080.18</ele>
        <time>2016-06-13T07:14:02Z</time>
      </trkpt>
      <trkpt lat="46.59363" lon="6.11514">
        <ele>1081.14</ele>
        <time>2016-06-13T07:14:14Z</time>
      </trkpt>
      <trkpt lat="46.59359" lon="6.11521">
        <ele>1082.1</ele>
        <time>2016-06-13T07:14:19Z</time>
      </trkpt>
      <trkpt lat="46.59348" lon="6.11538">
        <ele>1082.58</ele>
        <time>2016-06-13T07:14:32Z</time>
      </trkpt>
      <trkpt lat="46.59336" lon="6.11556">
        <ele>1083.54</ele>
        <time>2016-06-13T07:14:45Z</time>
      </trkpt>
      <trkpt lat="46.59328" lon="6.11567">
        <ele>1083.06</ele>
        <time>2016-06-13T07:14:54Z</time>
      </trkpt>
      <trkpt lat="46.59314" lon="6.11583">
        <ele>1082.58</ele>
        <time>2016-06-13T07:15:08Z</time>
      </trkpt>
      <trkpt lat="46.593" lon="6.11601">
        <ele>1083.54</ele>
        <time>2016-06-13T07:15:23Z</time>
      </trkpt>
      <trkpt lat="46.59292" lon="6.11612">
        <ele>1084.02</ele>
        <time>2016-06-13T07:15:32Z</time>
      </trkpt>
      <trkpt lat="46.5928" lon="6.11629">
        <ele>1084.99</ele>
        <time>2016-06-13T07:15:45Z</time>
      </trkpt>
      <trkpt lat="46.59276" lon="6.11635">
        <ele>1084.99</ele>
        <time>2016-06-13T07:15:50Z</time>
      </trkpt>
      <trkpt lat="46.59274" lon="6.11639">
        <ele>1085.47</ele>
        <time>2016-06-13T07:15:53Z</time>
      </trkpt>
      <trkpt lat="46.59269" lon="6.11646">
        <ele>1085.47</ele>
        <time>2016-06-13T07:15:58Z</time>
      </trkpt>
      <trkpt lat="46.59259" lon="6.11666">
        <ele>1085.95</ele>
        <time>2016-06-13T07:16:12Z</time>
      </trkpt>
      <trkpt lat="46.59251" lon="6.11687">
        <ele>1086.43</ele>
        <time>2016-06-13T07:16:24Z</time>
      </trkpt>
      <trkpt lat="46.59246" lon="6.11706">
        <ele>1085.95</ele>
        <time>2016-06-13T07:16:37Z</time>
      </trkpt>
      <trkpt lat="46.59242" lon="6.11719">
        <ele>1086.43</ele>
        <time>2016-06-13T07:16:45Z</time>
      </trkpt>
      <trkpt lat="46.59238" lon="6.11728">
        <ele>1087.39</ele>
        <time>2016-06-13T07:16:51Z</time>
      </trkpt>
      <trkpt lat="46.59236" lon="6.11735">
        <ele>1086.91</ele>
        <time>2016-06-13T07:16:55Z</time>
      </trkpt>
      <trkpt lat="46.59232" lon="6.11747">
        <ele>1087.87</ele>
        <time>2016-06-13T07:17:02Z</time>
      </trkpt>
      <trkpt lat="46.59225" lon="6.11768">
        <ele>1086.91</ele>
        <time>2016-06-13T07:17:15Z</time>
      </trkpt>
      <trkpt lat="46.59221" lon="6.11781">
        <ele>1087.87</ele>
        <time>2016-06-13T07:17:23Z</time>
      </trkpt>
      <trkpt lat="46.59218" lon="6.11794">
        <ele>1087.87</ele>
        <time>2016-06-13T07:17:31Z</time>
      </trkpt>
      <trkpt lat="46.59216" lon="6.11801">
        <ele>1087.87</ele>
        <time>2016-06-13T07:17:36Z</time>
      </trkpt>
      <trkpt lat="46.59215" lon="6.11806">
        <ele>1087.87</ele>
        <time>2016-06-13T07:17:39Z</time>
      </trkpt>
      <trkpt lat="46.59213" lon="6.1181">
        <ele>1087.39</ele>
        <time>2016-06-13T07:17:42Z</time>
      </trkpt>
      <trkpt lat="46.5921" lon="6.11818">
        <ele>1087.39</ele>
        <time>2016-06-13T07:17:48Z</time>
      </trkpt>
      <trkpt lat="46.59203" lon="6.11831">
        <ele>1089.31</ele>
        <time>2016-06-13T07:18:00Z</time>
      </trkpt>
      <trkpt lat="46.59198" lon="6.11846">
        <ele>1092.2</ele>
        <time>2016-06-13T07:18:12Z</time>
      </trkpt>
      <trkpt lat="46.59193" lon="6.1186">
        <ele>1094.6</ele>
        <time>2016-06-13T07:18:26Z</time>
      </trkpt>
      <trkpt lat="46.59186" lon="6.11876">
        <ele>1095.56</ele>
        <time>2016-06-13T07:18:40Z</time>
      </trkpt>
      <trkpt lat="46.59183" lon="6.11884">
        <ele>1096.52</ele>
        <time>2016-06-13T07:18:48Z</time>
      </trkpt>
      <trkpt lat="46.59178" lon="6.11893">
        <ele>1098.44</ele>
        <time>2016-06-13T07:18:57Z</time>
      </trkpt>
      <trkpt lat="46.59173" lon="6.11902">
        <ele>1101.81</ele>
        <time>2016-06-13T07:19:09Z</time>
      </trkpt>
      <trkpt lat="46.5917" lon="6.11905">
        <ele>1102.77</ele>
        <time>2016-06-13T07:19:13Z</time>
      </trkpt>
      <trkpt lat="46.59167" lon="6.11909">
        <ele>1103.73</ele>
        <time>2016-06-13T07:19:19Z</time>
      </trkpt>
      <trkpt lat="46.59161" lon="6.11917">
        <ele>1104.69</ele>
        <time>2016-06-13T07:19:31Z</time>
      </trkpt>
      <trkpt lat="46.59155" lon="6.11924">
        <ele>1105.65</ele>
        <time>2016-06-13T07:19:43Z</time>
      </trkpt>
      <trkpt lat="46.59149" lon="6.11931">
        <ele>1107.58</ele>
        <time>2016-06-13T07:19:57Z</time>
      </trkpt>
      <trkpt lat="46.59145" lon="6.11939">
        <ele>1110.46</ele>
        <time>2016-06-13T07:20:07Z</time>
      </trkpt>
      <trkpt lat="46.59144" lon="6.11941">
        <ele>1111.42</ele>
        <time>2016-06-13T07:20:09Z</time>
      </trkpt>
      <trkpt lat="46.59137" lon="6.11948">
        <ele>1117.19</ele>
        <time>2016-06-13T07:20:22Z</time>
      </trkpt>
      <trkpt lat="46.59131" lon="6.11954">
        <ele>1117.67</ele>
        <time>2016-06-13T07:20:36Z</time>
      </trkpt>
      <trkpt lat="46.59128" lon="6.11956">
        <ele>1117.67</ele>
        <time>2016-06-13T07:20:39Z</time>
      </trkpt>
      <trkpt lat="46.59114" lon="6.11953">
        <ele>1120.55</ele>
        <time>2016-06-13T07:20:52Z</time>
      </trkpt>
      <trkpt lat="46.59111" lon="6.11949">
        <ele>1121.03</ele>
        <time>2016-06-13T07:20:56Z</time>
      </trkpt>
      <trkpt lat="46.59109" lon="6.11946">
        <ele>1121.03</ele>
        <time>2016-06-13T07:20:59Z</time>
      </trkpt>
      <trkpt lat="46.59106" lon="6.11944">
        <ele>1121.52</ele>
        <time>2016-06-13T07:21:02Z</time>
      </trkpt>
      <trkpt lat="46.59104" lon="6.11941">
        <ele>1121.52</ele>
        <time>2016-06-13T07:21:05Z</time>
      </trkpt>
      <trkpt lat="46.59103" lon="6.11935">
        <ele>1121.52</ele>
        <time>2016-06-13T07:21:10Z</time>
      </trkpt>
      <trkpt lat="46.59095" lon="6.11925">
        <ele>1123.44</ele>
        <time>2016-06-13T07:21:20Z</time>
      </trkpt>
      <trkpt lat="46.59086" lon="6.11909">
        <ele>1122.96</ele>
        <time>2016-06-13T07:21:35Z</time>
      </trkpt>
      <trkpt lat="46.59085" lon="6.11908">
        <ele>1122.96</ele>
        <time>2016-06-13T07:21:36Z</time>
      </trkpt>
      <trkpt lat="46.59076" lon="6.11897">
        <ele>1122</ele>
        <time>2016-06-13T07:21:50Z</time>
      </trkpt>
      <trkpt lat="46.59065" lon="6.11885">
        <ele>1121.52</ele>
        <time>2016-06-13T07:22:03Z</time>
      </trkpt>
      <trkpt lat="46.59051" lon="6.11877">
        <ele>1122.48</ele>
        <time>2016-06-13T07:22:17Z</time>
      </trkpt>
      <trkpt lat="46.5904" lon="6.11868">
        <ele>1123.92</ele>
        <time>2016-06-13T07:22:29Z</time>
      </trkpt>
      <trkpt lat="46.59026" lon="6.11861">
        <ele>1125.36</ele>
        <time>2016-06-13T07:22:42Z</time>
      </trkpt>
      <trkpt lat="46.59012" lon="6.11857">
        <ele>1126.8</ele>
        <time>2016-06-13T07:22:56Z</time>
      </trkpt>
      <trkpt lat="46.59" lon="6.11853">
        <ele>1126.8</ele>
        <time>2016-06-13T07:23:09Z</time>
      </trkpt>
      <trkpt lat="46.58989" lon="6.11845">
        <ele>1128.73</ele>
        <time>2016-06-13T07:23:20Z</time>
      </trkpt>
      <trkpt lat="46.58976" lon="6.11835">
        <ele>1128.24</ele>
        <time>2016-06-13T07:23:33Z</time>
      </trkpt>
      <trkpt lat="46.58966" lon="6.11827">
        <ele>1130.65</ele>
        <time>2016-06-13T07:23:46Z</time>
      </trkpt>
      <trkpt lat="46.58959" lon="6.11823">
        <ele>1132.57</ele>
        <time>2016-06-13T07:23:53Z</time>
      </trkpt>
      <trkpt lat="46.58951" lon="6.11823">
        <ele>1133.53</ele>
        <time>2016-06-13T07:24:06Z</time>
      </trkpt>
      <trkpt lat="46.58946" lon="6.11815">
        <ele>1132.57</ele>
        <time>2016-06-13T07:24:19Z</time>
      </trkpt>
      <trkpt lat="46.58945" lon="6.11815">
        <ele>1132.57</ele>
        <time>2016-06-13T07:24:21Z</time>
      </trkpt>
      <trkpt lat="46.58935" lon="6.11808">
        <ele>1132.09</ele>
        <time>2016-06-13T07:24:33Z</time>
      </trkpt>
      <trkpt lat="46.58926" lon="6.11803">
        <ele>1130.17</ele>
        <time>2016-06-13T07:24:41Z</time>
      </trkpt>
      <trkpt lat="46.58915" lon="6.118">
        <ele>1130.65</ele>
        <time>2016-06-13T07:24:53Z</time>
      </trkpt>
      <trkpt lat="46.58913" lon="6.118">
        <ele>1130.65</ele>
        <time>2016-06-13T07:25:07Z</time>
      </trkpt>
      <trkpt lat="46.58912" lon="6.118">
        <ele>1130.65</ele>
        <time>2016-06-13T07:25:25Z</time>
      </trkpt>
      <trkpt lat="46.58912" lon="6.11799">
        <ele>1130.17</ele>
        <time>2016-06-13T07:25:50Z</time>
      </trkpt>
      <trkpt lat="46.58912" lon="6.11799">
        <ele>1130.65</ele>
        <time>2016-06-13T07:26:09Z</time>
      </trkpt>
      <trkpt lat="46.58907" lon="6.11796">
        <ele>1132.57</ele>
        <time>2016-06-13T07:26:25Z</time>
      </trkpt>
      <trkpt lat="46.58897" lon="6.118">
        <ele>1134.97</ele>
        <time>2016-06-13T07:26:34Z</time>
      </trkpt>
      <trkpt lat="46.58889" lon="6.11808">
        <ele>1135.94</ele>
        <time>2016-06-13T07:26:44Z</time>
      </trkpt>
      <trkpt lat="46.58881" lon="6.11817">
        <ele>1135.94</ele>
        <time>2016-06-13T07:26:53Z</time>
      </trkpt>
      <trkpt lat="46.58877" lon="6.11822">
        <ele>1135.94</ele>
        <time>2016-06-13T07:26:57Z</time>
      </trkpt>
      <trkpt lat="46.58876" lon="6.11825">
        <ele>1134.97</ele>
        <time>2016-06-13T07:27:00Z</time>
      </trkpt>
      <trkpt lat="46.58872" lon="6.11831">
        <ele>1136.42</ele>
        <time>2016-06-13T07:27:07Z</time>
      </trkpt>
      <trkpt lat="46.58864" lon="6.11835">
        <ele>1140.26</ele>
        <time>2016-06-13T07:27:17Z</time>
      </trkpt>
      <trkpt lat="46.58863" lon="6.11837">
        <ele>1141.22</ele>
        <time>2016-06-13T07:27:20Z</time>
      </trkpt>
      <trkpt lat="46.58859" lon="6.11838">
        <ele>1141.7</ele>
        <time>2016-06-13T07:27:25Z</time>
      </trkpt>
      <trkpt lat="46.58852" lon="6.11838">
        <ele>1142.18</ele>
        <time>2016-06-13T07:27:31Z</time>
      </trkpt>
      <trkpt lat="46.58847" lon="6.11839">
        <ele>1142.18</ele>
        <time>2016-06-13T07:27:36Z</time>
      </trkpt>
      <trkpt lat="46.58836" lon="6.11838">
        <ele>1140.74</ele>
        <time>2016-06-13T07:27:48Z</time>
      </trkpt>
      <trkpt lat="46.58835" lon="6.11838">
        <ele>1140.74</ele>
        <time>2016-06-13T07:27:49Z</time>
      </trkpt>
      <trkpt lat="46.58825" lon="6.11841">
        <ele>1142.66</ele>
        <time>2016-06-13T07:27:58Z</time>
      </trkpt>
      <trkpt lat="46.58823" lon="6.1184">
        <ele>1143.14</ele>
        <time>2016-06-13T07:28:01Z</time>
      </trkpt>
      <trkpt lat="46.58814" lon="6.11841">
        <ele>1144.11</ele>
        <time>2016-06-13T07:28:09Z</time>
      </trkpt>
      <trkpt lat="46.58806" lon="6.11845">
        <ele>1144.11</ele>
        <time>2016-06-13T07:28:17Z</time>
      </trkpt>
      <trkpt lat="46.58796" lon="6.11851">
        <ele>1145.55</ele>
        <time>2016-06-13T07:28:29Z</time>
      </trkpt>
      <trkpt lat="46.5879" lon="6.11858">
        <ele>1144.59</ele>
        <time>2016-06-13T07:28:41Z</time>
      </trkpt>
      <trkpt lat="46.58784" lon="6.11854">
        <ele>1146.03</ele>
        <time>2016-06-13T07:28:52Z</time>
      </trkpt>
      <trkpt lat="46.58778" lon="6.11852">
        <ele>1146.51</ele>
        <time>2016-06-13T07:28:56Z</time>
      </trkpt>
      <trkpt lat="46.58769" lon="6.11848">
        <ele>1146.99</ele>
        <time>2016-06-13T07:29:07Z</time>
      </trkpt>
      <trkpt lat="46.58757" lon="6.11838">
        <ele>1145.07</ele>
        <time>2016-06-13T07:29:20Z</time>
      </trkpt>
      <trkpt lat="46.58748" lon="6.11834">
        <ele>1146.51</ele>
        <time>2016-06-13T07:29:31Z</time>
      </trkpt>
      <trkpt lat="46.58741" lon="6.11829">
        <ele>1148.91</ele>
        <time>2016-06-13T07:29:40Z</time>
      </trkpt>
      <trkpt lat="46.58736" lon="6.11825">
        <ele>1147.95</ele>
        <time>2016-06-13T07:29:48Z</time>
      </trkpt>
      <trkpt lat="46.58724" lon="6.1182">
        <ele>1146.51</ele>
        <time>2016-06-13T07:29:58Z</time>
      </trkpt>
      <trkpt lat="46.5872" lon="6.11818">
        <ele>1146.99</ele>
        <time>2016-06-13T07:30:03Z</time>
      </trkpt>
      <trkpt lat="46.58708" lon="6.11814">
        <ele>1146.51</ele>
        <time>2016-06-13T07:30:14Z</time>
      </trkpt>
      <trkpt lat="46.58699" lon="6.11811">
        <ele>1147.47</ele>
        <time>2016-06-13T07:30:24Z</time>
      </trkpt>
      <trkpt lat="46.58692" lon="6.11807">
        <ele>1146.51</ele>
        <time>2016-06-13T07:30:29Z</time>
      </trkpt>
      <trkpt lat="46.58681" lon="6.11804">
        <ele>1151.8</ele>
        <time>2016-06-13T07:30:40Z</time>
      </trkpt>
      <trkpt lat="46.58677" lon="6.11804">
        <ele>1154.2</ele>
        <time>2016-06-13T07:30:46Z</time>
      </trkpt>
      <trkpt lat="46.58672" lon="6.11802">
        <ele>1154.68</ele>
        <time>2016-06-13T07:30:49Z</time>
      </trkpt>
      <trkpt lat="46.58667" lon="6.11799">
        <ele>1154.68</ele>
        <time>2016-06-13T07:30:51Z</time>
      </trkpt>
      <trkpt lat="46.58664" lon="6.11797">
        <ele>1155.64</ele>
        <time>2016-06-13T07:30:53Z</time>
      </trkpt>
      <trkpt lat="46.58662" lon="6.11794">
        <ele>1156.12</ele>
        <time>2016-06-13T07:30:55Z</time>
      </trkpt>
      <trkpt lat="46.58659" lon="6.11792">
        <ele>1156.6</ele>
        <time>2016-06-13T07:30:58Z</time>
      </trkpt>
      <trkpt lat="46.5865" lon="6.11792">
        <ele>1157.08</ele>
        <time>2016-06-13T07:31:07Z</time>
      </trkpt>
      <trkpt lat="46.58647" lon="6.1179">
        <ele>1157.56</ele>
        <time>2016-06-13T07:31:09Z</time>
      </trkpt>
      <trkpt lat="46.58636" lon="6.11784">
        <ele>1160.93</ele>
        <time>2016-06-13T07:31:18Z</time>
      </trkpt>
      <trkpt lat="46.58626" lon="6.11776">
        <ele>1161.41</ele>
        <time>2016-06-13T07:31:29Z</time>
      </trkpt>
      <trkpt lat="46.5862" lon="6.11773">
        <ele>1160.45</ele>
        <time>2016-06-13T07:31:36Z</time>
      </trkpt>
      <trkpt lat="46.58611" lon="6.11769">
        <ele>1159.49</ele>
        <time>2016-06-13T07:31:48Z</time>
      </trkpt>
      <trkpt lat="46.58609" lon="6.11768">
        <ele>1159.01</ele>
        <time>2016-06-13T07:31:50Z</time>
      </trkpt>
      <trkpt lat="46.58599" lon="6.11758">
        <ele>1153.24</ele>
        <time>2016-06-13T07:32:02Z</time>
      </trkpt>
      <trkpt lat="46.58594" lon="6.11754">
        <ele>1150.84</ele>
        <time>2016-06-13T07:32:13Z</time>
      </trkpt>
      <trkpt lat="46.58591" lon="6.11756">
        <ele>1148.43</ele>
        <time>2016-06-13T07:32:25Z</time>
      </trkpt>
      <trkpt lat="46.58585" lon="6.11752">
        <ele>1147.47</ele>
        <time>2016-06-13T07:32:35Z</time>
      </trkpt>
      <trkpt lat="46.5858" lon="6.11748">
        <ele>1148.43</ele>
        <time>2016-06-13T07:32:45Z</time>
      </trkpt>
      <trkpt lat="46.58574" lon="6.11746">
        <ele>1146.99</ele>
        <time>2016-06-13T07:32:55Z</time>
      </trkpt>
      <trkpt lat="46.58566" lon="6.11741">
        <ele>1150.35</ele>
        <time>2016-06-13T07:33:07Z</time>
      </trkpt>
      <trkpt lat="46.58564" lon="6.1174">
        <ele>1150.35</ele>
        <time>2016-06-13T07:33:16Z</time>
      </trkpt>
      <trkpt lat="46.58561" lon="6.1174">
        <ele>1149.87</ele>
        <time>2016-06-13T07:33:20Z</time>
      </trkpt>
      <trkpt lat="46.5855" lon="6.11734">
        <ele>1150.35</ele>
        <time>2016-06-13T07:33:31Z</time>
      </trkpt>
      <trkpt lat="46.58544" lon="6.11729">
        <ele>1152.28</ele>
        <time>2016-06-13T07:33:36Z</time>
      </trkpt>
      <trkpt lat="46.58538" lon="6.11726">
        <ele>1154.2</ele>
        <time>2016-06-13T07:33:42Z</time>
      </trkpt>
      <trkpt lat="46.58535" lon="6.11725">
        <ele>1155.16</ele>
        <time>2016-06-13T07:33:45Z</time>
      </trkpt>
      <trkpt lat="46.58528" lon="6.11721">
        <ele>1155.16</ele>
        <time>2016-06-13T07:33:55Z</time>
      </trkpt>
      <trkpt lat="46.58526" lon="6.11722">
        <ele>1155.16</ele>
        <time>2016-06-13T07:34:02Z</time>
      </trkpt>
      <trkpt lat="46.58517" lon="6.11712">
        <ele>1157.56</ele>
        <time>2016-06-13T07:34:14Z</time>
      </trkpt>
      <trkpt lat="46.58514" lon="6.11712">
        <ele>1157.08</ele>
        <time>2016-06-13T07:34:17Z</time>
      </trkpt>
      <trkpt lat="46.58509" lon="6.11714">
        <ele>1156.6</ele>
        <time>2016-06-13T07:34:26Z</time>
      </trkpt>
      <trkpt lat="46.58497" lon="6.11702">
        <ele>1161.89</ele>
        <time>2016-06-13T07:34:38Z</time>
      </trkpt>
      <trkpt lat="46.58496" lon="6.117">
        <ele>1163.33</ele>
        <time>2016-06-13T07:34:49Z</time>
      </trkpt>
      <trkpt lat="46.58495" lon="6.11694">
        <ele>1162.37</ele>
        <time>2016-06-13T07:34:57Z</time>
      </trkpt>
      <trkpt lat="46.5849" lon="6.11684">
        <ele>1161.41</ele>
        <time>2016-06-13T07:35:07Z</time>
      </trkpt>
      <trkpt lat="46.58485" lon="6.11679">
        <ele>1161.89</ele>
        <time>2016-06-13T07:35:14Z</time>
      </trkpt>
      <trkpt lat="46.58483" lon="6.11677">
        <ele>1161.89</ele>
        <time>2016-06-13T07:35:16Z</time>
      </trkpt>
      <trkpt lat="46.5848" lon="6.11669">
        <ele>1161.89</ele>
        <time>2016-06-13T07:35:22Z</time>
      </trkpt>
      <trkpt lat="46.58473" lon="6.11656">
        <ele>1160.93</ele>
        <time>2016-06-13T07:35:33Z</time>
      </trkpt>
      <trkpt lat="46.58469" lon="6.1165">
        <ele>1160.93</ele>
        <time>2016-06-13T07:35:45Z</time>
      </trkpt>
      <trkpt lat="46.58467" lon="6.11649">
        <ele>1160.45</ele>
        <time>2016-06-13T07:35:47Z</time>
      </trkpt>
      <trkpt lat="46.58464" lon="6.11646">
        <ele>1159.49</ele>
        <time>2016-06-13T07:35:50Z</time>
      </trkpt>
      <trkpt lat="46.58459" lon="6.11637">
        <ele>1159.01</ele>
        <time>2016-06-13T07:35:57Z</time>
      </trkpt>
      <trkpt lat="46.58454" lon="6.11633">
        <ele>1158.53</ele>
        <time>2016-06-13T07:36:02Z</time>
      </trkpt>
      <trkpt lat="46.58451" lon="6.11629">
        <ele>1159.01</ele>
        <time>2016-06-13T07:36:05Z</time>
      </trkpt>
      <trkpt lat="46.58449" lon="6.11628">
        <ele>1159.49</ele>
        <time>2016-06-13T07:36:07Z</time>
      </trkpt>
      <trkpt lat="46.58447" lon="6.11624">
        <ele>1159.49</ele>
        <time>2016-06-13T07:36:11Z</time>
      </trkpt>
      <trkpt lat="46.58443" lon="6.11621">
        <ele>1159.97</ele>
        <time>2016-06-13T07:36:14Z</time>
      </trkpt>
      <trkpt lat="46.58439" lon="6.11617">
        <ele>1159.97</ele>
        <time>2016-06-13T07:36:18Z</time>
      </trkpt>
      <trkpt lat="46.58435" lon="6.11614">
        <ele>1159.97</ele>
        <time>2016-06-13T07:36:23Z</time>
      </trkpt>
      <trkpt lat="46.5843" lon="6.11609">
        <ele>1159.97</ele>
        <time>2016-06-13T07:36:28Z</time>
      </trkpt>
      <trkpt lat="46.58429" lon="6.11608">
        <ele>1160.45</ele>
        <time>2016-06-13T07:36:30Z</time>
      </trkpt>
      <trkpt lat="46.58423" lon="6.11596">
        <ele>1160.45</ele>
        <time>2016-06-13T07:36:41Z</time>
      </trkpt>
      <trkpt lat="46.58422" lon="6.11594">
        <ele>1159.97</ele>
        <time>2016-06-13T07:36:43Z</time>
      </trkpt>
      <trkpt lat="46.58416" lon="6.11586">
        <ele>1158.05</ele>
        <time>2016-06-13T07:36:53Z</time>
      </trkpt>
      <trkpt lat="46.58416" lon="6.11583">
        <ele>1157.56</ele>
        <time>2016-06-13T07:37:04Z</time>
      </trkpt>
      <trkpt lat="46.58408" lon="6.11579">
        <ele>1157.08</ele>
        <time>2016-06-13T07:37:16Z</time>
      </trkpt>
      <trkpt lat="46.58402" lon="6.11576">
        <ele>1157.56</ele>
        <time>2016-06-13T07:37:28Z</time>
      </trkpt>
      <trkpt lat="46.58396" lon="6.11569">
        <ele>1159.01</ele>
        <time>2016-06-13T07:37:40Z</time>
      </trkpt>
      <trkpt lat="46.58393" lon="6.11567">
        <ele>1159.97</ele>
        <time>2016-06-13T07:37:51Z</time>
      </trkpt>
      <trkpt lat="46.5839" lon="6.11566">
        <ele>1159.97</ele>
        <time>2016-06-13T07:38:04Z</time>
      </trkpt>
      <trkpt lat="46.58384" lon="6.11558">
        <ele>1165.26</ele>
        <time>2016-06-13T07:38:17Z</time>
      </trkpt>
      <trkpt lat="46.58382" lon="6.11557">
        <ele>1166.7</ele>
        <time>2016-06-13T07:38:20Z</time>
      </trkpt>
      <trkpt lat="46.58379" lon="6.11554">
        <ele>1168.62</ele>
        <time>2016-06-13T07:38:23Z</time>
      </trkpt>
      <trkpt lat="46.58365" lon="6.11544">
        <ele>1171.98</ele>
        <time>2016-06-13T07:38:34Z</time>
      </trkpt>
      <trkpt lat="46.5836" lon="6.11537">
        <ele>1171.98</ele>
        <time>2016-06-13T07:38:49Z</time>
      </trkpt>
      <trkpt lat="46.58358" lon="6.11531">
        <ele>1171.98</ele>
        <time>2016-06-13T07:39:03Z</time>
      </trkpt>
      <trkpt lat="46.58355" lon="6.11527">
        <ele>1172.47</ele>
        <time>2016-06-13T07:39:14Z</time>
      </trkpt>
      <trkpt lat="46.58351" lon="6.11515">
        <ele>1173.43</ele>
        <time>2016-06-13T07:39:27Z</time>
      </trkpt>
      <trkpt lat="46.58345" lon="6.11505">
        <ele>1173.43</ele>
        <time>2016-06-13T07:39:42Z</time>
      </trkpt>
      <trkpt lat="46.58336" lon="6.11497">
        <ele>1171.02</ele>
        <time>2016-06-13T07:39:57Z</time>
      </trkpt>
      <trkpt lat="46.58329" lon="6.11488">
        <ele>1168.14</ele>
        <time>2016-06-13T07:40:08Z</time>
      </trkpt>
      <trkpt lat="46.58319" lon="6.11472">
        <ele>1166.22</ele>
        <time>2016-06-13T07:40:22Z</time>
      </trkpt>
      <trkpt lat="46.58312" lon="6.11458">
        <ele>1167.66</ele>
        <time>2016-06-13T07:40:35Z</time>
      </trkpt>
      <trkpt lat="46.58311" lon="6.11456">
        <ele>1168.14</ele>
        <time>2016-06-13T07:40:52Z</time>
      </trkpt>
      <trkpt lat="46.58307" lon="6.11452">
        <ele>1169.1</ele>
        <time>2016-06-13T07:41:07Z</time>
      </trkpt>
      <trkpt lat="46.58305" lon="6.1145">
        <ele>1169.1</ele>
        <time>2016-06-13T07:41:31Z</time>
      </trkpt>
      <trkpt lat="46.58303" lon="6.11449">
        <ele>1170.06</ele>
        <time>2016-06-13T07:41:43Z</time>
      </trkpt>
      <trkpt lat="46.58292" lon="6.11435">
        <ele>1167.18</ele>
        <time>2016-06-13T07:41:57Z</time>
      </trkpt>
      <trkpt lat="46.58279" lon="6.11418">
        <ele>1166.22</ele>
        <time>2016-06-13T07:42:09Z</time>
      </trkpt>
      <trkpt lat="46.58271" lon="6.1141">
        <ele>1167.18</ele>
        <time>2016-06-13T07:42:22Z</time>
      </trkpt>
      <trkpt lat="46.58262" lon="6.11399">
        <ele>1165.74</ele>
        <time>2016-06-13T07:42:34Z</time>
      </trkpt>
      <trkpt lat="46.58259" lon="6.11392">
        <ele>1167.66</ele>
        <time>2016-06-13T07:42:46Z</time>
      </trkpt>
      <trkpt lat="46.58255" lon="6.11384">
        <ele>1167.66</ele>
        <time>2016-06-13T07:42:50Z</time>
      </trkpt>
      <trkpt lat="46.58246" lon="6.11375">
        <ele>1167.18</ele>
        <time>2016-06-13T07:43:02Z</time>
      </trkpt>
      <trkpt lat="46.58238" lon="6.11365">
        <ele>1170.54</ele>
        <time>2016-06-13T07:43:15Z</time>
      </trkpt>
      <trkpt lat="46.58238" lon="6.11363">
        <ele>1171.98</ele>
        <time>2016-06-13T07:43:25Z</time>
      </trkpt>
      <trkpt lat="46.58237" lon="6.11361">
        <ele>1174.39</ele>
        <time>2016-06-13T07:43:38Z</time>
      </trkpt>
      <trkpt lat="46.58235" lon="6.1136">
        <ele>1175.35</ele>
        <time>2016-06-13T07:43:53Z</time>
      </trkpt>
      <trkpt lat="46.58235" lon="6.11359">
        <ele>1175.35</ele>
        <time>2016-06-13T07:43:55Z</time>
      </trkpt>
      <trkpt lat="46.58224" lon="6.11343">
        <ele>1178.23</ele>
        <time>2016-06-13T07:44:09Z</time>
      </trkpt>
      <trkpt lat="46.58214" lon="6.11333">
        <ele>1178.23</ele>
        <time>2016-06-13T07:44:19Z</time>
      </trkpt>
      <trkpt lat="46.5821" lon="6.11315">
        <ele>1180.16</ele>
        <time>2016-06-13T07:44:32Z</time>
      </trkpt>
      <trkpt lat="46.58209" lon="6.11314">
        <ele>1180.64</ele>
        <time>2016-06-13T07:44:36Z</time>
      </trkpt>
      <trkpt lat="46.58204" lon="6.11309">
        <ele>1180.16</ele>
        <time>2016-06-13T07:44:43Z</time>
      </trkpt>
      <trkpt lat="46.582" lon="6.11296">
        <ele>1181.12</ele>
        <time>2016-06-13T07:44:54Z</time>
      </trkpt>
      <trkpt lat="46.58199" lon="6.11293">
        <ele>1180.64</ele>
        <time>2016-06-13T07:44:56Z</time>
      </trkpt>
      <trkpt lat="46.58187" lon="6.11274">
        <ele>1178.71</ele>
        <time>2016-06-13T07:45:09Z</time>
      </trkpt>
      <trkpt lat="46.58167" lon="6.11255">
        <ele>1180.64</ele>
        <time>2016-06-13T07:45:25Z</time>
      </trkpt>
      <trkpt lat="46.58162" lon="6.11247">
        <ele>1178.71</ele>
        <time>2016-06-13T07:45:36Z</time>
      </trkpt>
      <trkpt lat="46.58156" lon="6.1124">
        <ele>1176.31</ele>
        <time>2016-06-13T07:45:49Z</time>
      </trkpt>
      <trkpt lat="46.58148" lon="6.1123">
        <ele>1179.67</ele>
        <time>2016-06-13T07:46:01Z</time>
      </trkpt>
      <trkpt lat="46.58143" lon="6.11222">
        <ele>1182.56</ele>
        <time>2016-06-13T07:46:13Z</time>
      </trkpt>
      <trkpt lat="46.58135" lon="6.11209">
        <ele>1185.44</ele>
        <time>2016-06-13T07:46:25Z</time>
      </trkpt>
      <trkpt lat="46.58126" lon="6.11196">
        <ele>1188.81</ele>
        <time>2016-06-13T07:46:39Z</time>
      </trkpt>
      <trkpt lat="46.5812" lon="6.1118">
        <ele>1192.65</ele>
        <time>2016-06-13T07:46:52Z</time>
      </trkpt>
      <trkpt lat="46.58111" lon="6.11175">
        <ele>1192.17</ele>
        <time>2016-06-13T07:47:04Z</time>
      </trkpt>
      <trkpt lat="46.58106" lon="6.11169">
        <ele>1190.73</ele>
        <time>2016-06-13T07:47:20Z</time>
      </trkpt>
      <trkpt lat="46.58097" lon="6.11158">
        <ele>1189.29</ele>
        <time>2016-06-13T07:47:32Z</time>
      </trkpt>
      <trkpt lat="46.58092" lon="6.11156">
        <ele>1188.81</ele>
        <time>2016-06-13T07:47:45Z</time>
      </trkpt>
      <trkpt lat="46.58089" lon="6.11156">
        <ele>1190.25</ele>
        <time>2016-06-13T07:48:01Z</time>
      </trkpt>
      <trkpt lat="46.58086" lon="6.11154">
        <ele>1189.77</ele>
        <time>2016-06-13T07:48:18Z</time>
      </trkpt>
      <trkpt lat="46.58083" lon="6.11152">
        <ele>1189.77</ele>
        <time>2016-06-13T07:48:25Z</time>
      </trkpt>
      <trkpt lat="46.5808" lon="6.11141">
        <ele>1189.77</ele>
        <time>2016-06-13T07:48:39Z</time>
      </trkpt>
      <trkpt lat="46.58075" lon="6.1113">
        <ele>1189.29</ele>
        <time>2016-06-13T07:48:58Z</time>
      </trkpt>
      <trkpt lat="46.58063" lon="6.11112">
        <ele>1189.77</ele>
        <time>2016-06-13T07:49:13Z</time>
      </trkpt>
      <trkpt lat="46.58062" lon="6.1111">
        <ele>1189.29</ele>
        <time>2016-06-13T07:49:31Z</time>
      </trkpt>
      <trkpt lat="46.58062" lon="6.1111">
        <ele>1187.85</ele>
        <time>2016-06-13T07:49:45Z</time>
      </trkpt>
      <trkpt lat="46.58063" lon="6.11108">
        <ele>1184.48</ele>
        <time>2016-06-13T07:49:59Z</time>
      </trkpt>
      <trkpt lat="46.58068" lon="6.11099">
        <ele>1178.71</ele>
        <time>2016-06-13T07:50:12Z</time>
      </trkpt>
      <trkpt lat="46.58068" lon="6.11081">
        <ele>1174.39</ele>
        <time>2016-06-13T07:50:25Z</time>
      </trkpt>
      <trkpt lat="46.58075" lon="6.11064">
        <ele>1171.98</ele>
        <time>2016-06-13T07:50:38Z</time>
      </trkpt>
      <trkpt lat="46.58078" lon="6.11048">
        <ele>1168.14</ele>
        <time>2016-06-13T07:50:54Z</time>
      </trkpt>
      <trkpt lat="46.58087" lon="6.11038">
        <ele>1163.81</ele>
        <time>2016-06-13T07:51:10Z</time>
      </trkpt>
      <trkpt lat="46.58092" lon="6.11023">
        <ele>1163.81</ele>
        <time>2016-06-13T07:51:22Z</time>
      </trkpt>
      <trkpt lat="46.58096" lon="6.11016">
        <ele>1162.37</ele>
        <time>2016-06-13T07:51:34Z</time>
      </trkpt>
      <trkpt lat="46.58102" lon="6.11">
        <ele>1159.97</ele>
        <time>2016-06-13T07:51:47Z</time>
      </trkpt>
      <trkpt lat="46.58102" lon="6.10988">
        <ele>1158.05</ele>
        <time>2016-06-13T07:51:58Z</time>
      </trkpt>
      <trkpt lat="46.58105" lon="6.10977">
        <ele>1155.16</ele>
        <time>2016-06-13T07:52:10Z</time>
      </trkpt>
      <trkpt lat="46.58101" lon="6.10945">
        <ele>1152.76</ele>
        <time>2016-06-13T07:52:23Z</time>
      </trkpt>
      <trkpt lat="46.58102" lon="6.1094">
        <ele>1152.28</ele>
        <time>2016-06-13T07:52:29Z</time>
      </trkpt>
      <trkpt lat="46.58101" lon="6.10924">
        <ele>1151.32</ele>
        <time>2016-06-13T07:52:42Z</time>
      </trkpt>
      <trkpt lat="46.58098" lon="6.10906">
        <ele>1149.87</ele>
        <time>2016-06-13T07:52:52Z</time>
      </trkpt>
      <trkpt lat="46.58093" lon="6.1089">
        <ele>1147.47</ele>
        <time>2016-06-13T07:53:02Z</time>
      </trkpt>
      <trkpt lat="46.58087" lon="6.10874">
        <ele>1149.39</ele>
        <time>2016-06-13T07:53:14Z</time>
      </trkpt>
      <trkpt lat="46.58082" lon="6.10863">
        <ele>1149.39</ele>
        <time>2016-06-13T07:53:28Z</time>
      </trkpt>
      <trkpt lat="46.58078" lon="6.10851">
        <ele>1149.87</ele>
        <time>2016-06-13T07:53:39Z</time>
      </trkpt>
      <trkpt lat="46.58071" lon="6.10842">
        <ele>1149.87</ele>
        <time>2016-06-13T07:53:53Z</time>
      </trkpt>
      <trkpt lat="46.58066" lon="6.10834">
        <ele>1150.35</ele>
        <time>2016-06-13T07:54:02Z</time>
      </trkpt>
      <trkpt lat="46.5806" lon="6.10826">
        <ele>1149.39</ele>
        <time>2016-06-13T07:54:16Z</time>
      </trkpt>
      <trkpt lat="46.58057" lon="6.10822">
        <ele>1148.91</ele>
        <time>2016-06-13T07:54:21Z</time>
      </trkpt>
      <trkpt lat="46.5804" lon="6.108">
        <ele>1143.14</ele>
        <time>2016-06-13T07:54:33Z</time>
      </trkpt>
      <trkpt lat="46.58033" lon="6.10789">
        <ele>1140.74</ele>
        <time>2016-06-13T07:54:46Z</time>
      </trkpt>
      <trkpt lat="46.5803" lon="6.10777">
        <ele>1139.3</ele>
        <time>2016-06-13T07:55:01Z</time>
      </trkpt>
      <trkpt lat="46.58016" lon="6.10755">
        <ele>1135.45</ele>
        <time>2016-06-13T07:55:14Z</time>
      </trkpt>
      <trkpt lat="46.58006" lon="6.10742">
        <ele>1138.34</ele>
        <time>2016-06-13T07:55:26Z</time>
      </trkpt>
      <trkpt lat="46.57998" lon="6.10733">
        <ele>1139.3</ele>
        <time>2016-06-13T07:55:36Z</time>
      </trkpt>
      <trkpt lat="46.57996" lon="6.10732">
        <ele>1139.78</ele>
        <time>2016-06-13T07:55:38Z</time>
      </trkpt>
      <trkpt lat="46.57985" lon="6.10716">
        <ele>1142.66</ele>
        <time>2016-06-13T07:55:49Z</time>
      </trkpt>
      <trkpt lat="46.57973" lon="6.10709">
        <ele>1142.18</ele>
        <time>2016-06-13T07:56:01Z</time>
      </trkpt>
      <trkpt lat="46.57961" lon="6.10699">
        <ele>1141.7</ele>
        <time>2016-06-13T07:56:10Z</time>
      </trkpt>
      <trkpt lat="46.57953" lon="6.10686">
        <ele>1144.11</ele>
        <time>2016-06-13T07:56:21Z</time>
      </trkpt>
      <trkpt lat="46.57952" lon="6.10683">
        <ele>1144.11</ele>
        <time>2016-06-13T07:56:23Z</time>
      </trkpt>
      <trkpt lat="46.57946" lon="6.10672">
        <ele>1144.59</ele>
        <time>2016-06-13T07:56:32Z</time>
      </trkpt>
      <trkpt lat="46.57942" lon="6.10657">
        <ele>1141.7</ele>
        <time>2016-06-13T07:56:44Z</time>
      </trkpt>
      <trkpt lat="46.57939" lon="6.10654">
        <ele>1141.7</ele>
        <time>2016-06-13T07:56:47Z</time>
      </trkpt>
      <trkpt lat="46.57931" lon="6.10644">
        <ele>1139.78</ele>
        <time>2016-06-13T07:56:58Z</time>
      </trkpt>
      <trkpt lat="46.5793" lon="6.10643">
        <ele>1140.26</ele>
        <time>2016-06-13T07:56:59Z</time>
      </trkpt>
      <trkpt lat="46.57923" lon="6.10635">
        <ele>1138.82</ele>
        <time>2016-06-13T07:57:06Z</time>
      </trkpt>
      <trkpt lat="46.57914" lon="6.10626">
        <ele>1135.94</ele>
        <time>2016-06-13T07:57:16Z</time>
      </trkpt>
      <trkpt lat="46.57901" lon="6.10625">
        <ele>1136.42</ele>
        <time>2016-06-13T07:57:25Z</time>
      </trkpt>
      <trkpt lat="46.57895" lon="6.10621">
        <ele>1135.94</ele>
        <time>2016-06-13T07:57:30Z</time>
      </trkpt>
      <trkpt lat="46.57891" lon="6.10615">
        <ele>1134.49</ele>
        <time>2016-06-13T07:57:35Z</time>
      </trkpt>
      <trkpt lat="46.57887" lon="6.1061">
        <ele>1134.01</ele>
        <time>2016-06-13T07:57:40Z</time>
      </trkpt>
      <trkpt lat="46.57881" lon="6.106">
        <ele>1133.05</ele>
        <time>2016-06-13T07:57:47Z</time>
      </trkpt>
      <trkpt lat="46.5787" lon="6.10587">
        <ele>1130.65</ele>
        <time>2016-06-13T07:58:00Z</time>
      </trkpt>
      <trkpt lat="46.57863" lon="6.10583">
        <ele>1130.65</ele>
        <time>2016-06-13T07:58:06Z</time>
      </trkpt>
      <trkpt lat="46.57849" lon="6.10576">
        <ele>1131.13</ele>
        <time>2016-06-13T07:58:19Z</time>
      </trkpt>
      <trkpt lat="46.57836" lon="6.10573">
        <ele>1133.53</ele>
        <time>2016-06-13T07:58:30Z</time>
      </trkpt>
      <trkpt lat="46.57832" lon="6.10572">
        <ele>1133.53</ele>
        <time>2016-06-13T07:58:33Z</time>
      </trkpt>
      <trkpt lat="46.5783" lon="6.10572">
        <ele>1134.01</ele>
        <time>2016-06-13T07:58:35Z</time>
      </trkpt>
      <trkpt lat="46.57814" lon="6.10568">
        <ele>1136.9</ele>
        <time>2016-06-13T07:58:48Z</time>
      </trkpt>
      <trkpt lat="46.57799" lon="6.10563">
        <ele>1137.86</ele>
        <time>2016-06-13T07:59:03Z</time>
      </trkpt>
      <trkpt lat="46.57789" lon="6.10556">
        <ele>1140.26</ele>
        <time>2016-06-13T07:59:13Z</time>
      </trkpt>
      <trkpt lat="46.57779" lon="6.10544">
        <ele>1140.26</ele>
        <time>2016-06-13T07:59:25Z</time>
      </trkpt>
      <trkpt lat="46.57774" lon="6.10536">
        <ele>1139.3</ele>
        <time>2016-06-13T07:59:31Z</time>
      </trkpt>
      <trkpt lat="46.57764" lon="6.10522">
        <ele>1139.78</ele>
        <time>2016-06-13T07:59:43Z</time>
      </trkpt>
      <trkpt lat="46.57759" lon="6.10513">
        <ele>1139.78</ele>
        <time>2016-06-13T07:59:50Z</time>
      </trkpt>
      <trkpt lat="46.57756" lon="6.1051">
        <ele>1139.3</ele>
        <time>2016-06-13T07:59:54Z</time>
      </trkpt>
      <trkpt lat="46.57749" lon="6.10501">
        <ele>1136.9</ele>
        <time>2016-06-13T08:00:03Z</time>
      </trkpt>
      <trkpt lat="46.57746" lon="6.10495">
        <ele>1137.86</ele>
        <time>2016-06-13T08:00:07Z</time>
      </trkpt>
      <trkpt lat="46.57745" lon="6.10492">
        <ele>1138.34</ele>
        <time>2016-06-13T08:00:09Z</time>
      </trkpt>
      <trkpt lat="46.57732" lon="6.10474">
        <ele>1140.26</ele>
        <time>2016-06-13T08:00:23Z</time>
      </trkpt>
      <trkpt lat="46.57731" lon="6.10472">
        <ele>1140.74</ele>
        <time>2016-06-13T08:00:25Z</time>
      </trkpt>
      <trkpt lat="46.57719" lon="6.10455">
        <ele>1141.7</ele>
        <time>2016-06-13T08:00:38Z</time>
      </trkpt>
      <trkpt lat="46.57715" lon="6.10444">
        <ele>1141.7</ele>
        <time>2016-06-13T08:00:46Z</time>
      </trkpt>
      <trkpt lat="46.57712" lon="6.10441">
        <ele>1142.18</ele>
        <time>2016-06-13T08:00:49Z</time>
      </trkpt>
      <trkpt lat="46.57699" lon="6.10421">
        <ele>1140.74</ele>
        <time>2016-06-13T08:01:04Z</time>
      </trkpt>
      <trkpt lat="46.57692" lon="6.10409">
        <ele>1140.74</ele>
        <time>2016-06-13T08:01:13Z</time>
      </trkpt>
      <trkpt lat="46.57681" lon="6.10393">
        <ele>1141.22</ele>
        <time>2016-06-13T08:01:26Z</time>
      </trkpt>
      <trkpt lat="46.57675" lon="6.10386">
        <ele>1141.22</ele>
        <time>2016-06-13T08:01:32Z</time>
      </trkpt>
      <trkpt lat="46.57663" lon="6.10368">
        <ele>1139.78</ele>
        <time>2016-06-13T08:01:47Z</time>
      </trkpt>
      <trkpt lat="46.57652" lon="6.10353">
        <ele>1140.26</ele>
        <time>2016-06-13T08:01:59Z</time>
      </trkpt>
      <trkpt lat="46.57646" lon="6.10345">
        <ele>1140.26</ele>
        <time>2016-06-13T08:02:05Z</time>
      </trkpt>
      <trkpt lat="46.57635" lon="6.10334">
        <ele>1139.3</ele>
        <time>2016-06-13T08:02:17Z</time>
      </trkpt>
      <trkpt lat="46.57624" lon="6.10326">
        <ele>1137.86</ele>
        <time>2016-06-13T08:02:26Z</time>
      </trkpt>
      <trkpt lat="46.5761" lon="6.10318">
        <ele>1137.38</ele>
        <time>2016-06-13T08:02:37Z</time>
      </trkpt>
      <trkpt lat="46.576" lon="6.10311">
        <ele>1137.38</ele>
        <time>2016-06-13T08:02:46Z</time>
      </trkpt>
      <trkpt lat="46.57591" lon="6.10305">
        <ele>1137.86</ele>
        <time>2016-06-13T08:02:57Z</time>
      </trkpt>
      <trkpt lat="46.57585" lon="6.103">
        <ele>1137.86</ele>
        <time>2016-06-13T08:03:04Z</time>
      </trkpt>
      <trkpt lat="46.57577" lon="6.10296">
        <ele>1138.34</ele>
        <time>2016-06-13T08:03:09Z</time>
      </trkpt>
      <trkpt lat="46.57575" lon="6.10294">
        <ele>1138.34</ele>
        <time>2016-06-13T08:03:11Z</time>
      </trkpt>
      <trkpt lat="46.57559" lon="6.1028">
        <ele>1137.38</ele>
        <time>2016-06-13T08:03:23Z</time>
      </trkpt>
      <trkpt lat="46.57558" lon="6.10279">
        <ele>1137.38</ele>
        <time>2016-06-13T08:03:24Z</time>
      </trkpt>
      <trkpt lat="46.57554" lon="6.10273">
        <ele>1137.38</ele>
        <time>2016-06-13T08:03:28Z</time>
      </trkpt>
      <trkpt lat="46.5755" lon="6.10267">
        <ele>1137.38</ele>
        <time>2016-06-13T08:03:33Z</time>
      </trkpt>
      <trkpt lat="46.57542" lon="6.1025">
        <ele>1137.86</ele>
        <time>2016-06-13T08:03:45Z</time>
      </trkpt>
      <trkpt lat="46.57534" lon="6.10229">
        <ele>1136.42</ele>
        <time>2016-06-13T08:03:59Z</time>
      </trkpt>
      <trkpt lat="46.57533" lon="6.10213">
        <ele>1137.86</ele>
        <time>2016-06-13T08:04:09Z</time>
      </trkpt>
      <trkpt lat="46.57532" lon="6.10207">
        <ele>1138.34</ele>
        <time>2016-06-13T08:04:13Z</time>
      </trkpt>
      <trkpt lat="46.57532" lon="6.10204">
        <ele>1138.82</ele>
        <time>2016-06-13T08:04:15Z</time>
      </trkpt>
      <trkpt lat="46.5753" lon="6.10182">
        <ele>1136.42</ele>
        <time>2016-06-13T08:04:27Z</time>
      </trkpt>
      <trkpt lat="46.57526" lon="6.10168">
        <ele>1135.94</ele>
        <time>2016-06-13T08:04:36Z</time>
      </trkpt>
      <trkpt lat="46.57524" lon="6.10161">
        <ele>1136.42</ele>
        <time>2016-06-13T08:04:41Z</time>
      </trkpt>
      <trkpt lat="46.57515" lon="6.10137">
        <ele>1134.97</ele>
        <time>2016-06-13T08:04:58Z</time>
      </trkpt>
      <trkpt lat="46.57514" lon="6.10133">
        <ele>1135.45</ele>
        <time>2016-06-13T08:05:11Z</time>
      </trkpt>
      <trkpt lat="46.5751" lon="6.10122">
        <ele>1134.97</ele>
        <time>2016-06-13T08:05:22Z</time>
      </trkpt>
      <trkpt lat="46.5751" lon="6.10117">
        <ele>1134.49</ele>
        <time>2016-06-13T08:05:35Z</time>
      </trkpt>
      <trkpt lat="46.5751" lon="6.10117">
        <ele>1134.97</ele>
        <time>2016-06-13T08:05:52Z</time>
      </trkpt>
      <trkpt lat="46.5751" lon="6.10117">
        <ele>1134.97</ele>
        <time>2016-06-13T08:06:14Z</time>
      </trkpt>
      <trkpt lat="46.5751" lon="6.10115">
        <ele>1134.49</ele>
        <time>2016-06-13T08:06:35Z</time>
      </trkpt>
      <trkpt lat="46.57509" lon="6.10115">
        <ele>1134.97</ele>
        <time>2016-06-13T08:06:53Z</time>
      </trkpt>
      <trkpt lat="46.57508" lon="6.10115">
        <ele>1135.94</ele>
        <time>2016-06-13T08:07:19Z</time>
      </trkpt>
      <trkpt lat="46.57508" lon="6.10115">
        <ele>1136.9</ele>
        <time>2016-06-13T08:07:46Z</time>
      </trkpt>
      <trkpt lat="46.57508" lon="6.10114">
        <ele>1135.45</ele>
        <time>2016-06-13T08:08:01Z</time>
      </trkpt>
      <trkpt lat="46.57508" lon="6.10113">
        <ele>1135.94</ele>
        <time>2016-06-13T08:08:18Z</time>
      </trkpt>
      <trkpt lat="46.57507" lon="6.10113">
        <ele>1134.97</ele>
        <time>2016-06-13T08:08:42Z</time>
      </trkpt>
      <trkpt lat="46.57506" lon="6.10114">
        <ele>1135.45</ele>
        <time>2016-06-13T08:08:59Z</time>
      </trkpt>
      <trkpt lat="46.57505" lon="6.10113">
        <ele>1135.45</ele>
        <time>2016-06-13T08:09:21Z</time>
      </trkpt>
      <trkpt lat="46.57504" lon="6.10112">
        <ele>1135.94</ele>
        <time>2016-06-13T08:09:22Z</time>
      </trkpt>
      <trkpt lat="46.57493" lon="6.10105">
        <ele>1137.86</ele>
        <time>2016-06-13T08:09:34Z</time>
      </trkpt>
      <trkpt lat="46.5749" lon="6.10103">
        <ele>1137.86</ele>
        <time>2016-06-13T08:09:37Z</time>
      </trkpt>
      <trkpt lat="46.57478" lon="6.10096">
        <ele>1139.78</ele>
        <time>2016-06-13T08:09:49Z</time>
      </trkpt>
      <trkpt lat="46.57469" lon="6.10092">
        <ele>1138.34</ele>
        <time>2016-06-13T08:09:59Z</time>
      </trkpt>
      <trkpt lat="46.57457" lon="6.10089">
        <ele>1139.3</ele>
        <time>2016-06-13T08:10:11Z</time>
      </trkpt>
      <trkpt lat="46.57449" lon="6.10089">
        <ele>1140.74</ele>
        <time>2016-06-13T08:10:22Z</time>
      </trkpt>
      <trkpt lat="46.57447" lon="6.10089">
        <ele>1139.78</ele>
        <time>2016-06-13T08:10:37Z</time>
      </trkpt>
      <trkpt lat="46.57441" lon="6.10088">
        <ele>1140.74</ele>
        <time>2016-06-13T08:10:52Z</time>
      </trkpt>
      <trkpt lat="46.57433" lon="6.10091">
        <ele>1141.7</ele>
        <time>2016-06-13T08:11:03Z</time>
      </trkpt>
      <trkpt lat="46.5743" lon="6.10099">
        <ele>1142.18</ele>
        <time>2016-06-13T08:11:09Z</time>
      </trkpt>
      <trkpt lat="46.57423" lon="6.10098">
        <ele>1143.63</ele>
        <time>2016-06-13T08:11:17Z</time>
      </trkpt>
      <trkpt lat="46.57415" lon="6.10099">
        <ele>1144.59</ele>
        <time>2016-06-13T08:11:27Z</time>
      </trkpt>
      <trkpt lat="46.57407" lon="6.10105">
        <ele>1144.11</ele>
        <time>2016-06-13T08:11:39Z</time>
      </trkpt>
      <trkpt lat="46.57401" lon="6.10108">
        <ele>1146.03</ele>
        <time>2016-06-13T08:11:46Z</time>
      </trkpt>
      <trkpt lat="46.57388" lon="6.10112">
        <ele>1146.99</ele>
        <time>2016-06-13T08:11:59Z</time>
      </trkpt>
      <trkpt lat="46.57377" lon="6.10116">
        <ele>1147.47</ele>
        <time>2016-06-13T08:12:12Z</time>
      </trkpt>
      <trkpt lat="46.57376" lon="6.10116">
        <ele>1147.47</ele>
        <time>2016-06-13T08:12:17Z</time>
      </trkpt>
      <trkpt lat="46.57373" lon="6.1012">
        <ele>1147.47</ele>
        <time>2016-06-13T08:12:30Z</time>
      </trkpt>
      <trkpt lat="46.57365" lon="6.10125">
        <ele>1148.43</ele>
        <time>2016-06-13T08:12:40Z</time>
      </trkpt>
      <trkpt lat="46.57358" lon="6.1013">
        <ele>1147.95</ele>
        <time>2016-06-13T08:12:53Z</time>
      </trkpt>
      <trkpt lat="46.57358" lon="6.1013">
        <ele>1147.95</ele>
        <time>2016-06-13T08:12:54Z</time>
      </trkpt>
      <trkpt lat="46.57351" lon="6.10125">
        <ele>1146.99</ele>
        <time>2016-06-13T08:13:06Z</time>
      </trkpt>
      <trkpt lat="46.57348" lon="6.10128">
        <ele>1145.55</ele>
        <time>2016-06-13T08:13:19Z</time>
      </trkpt>
      <trkpt lat="46.57347" lon="6.10134">
        <ele>1143.63</ele>
        <time>2016-06-13T08:13:34Z</time>
      </trkpt>
      <trkpt lat="46.57344" lon="6.10142">
        <ele>1143.14</ele>
        <time>2016-06-13T08:13:52Z</time>
      </trkpt>
      <trkpt lat="46.5734" lon="6.10154">
        <ele>1144.59</ele>
        <time>2016-06-13T08:14:09Z</time>
      </trkpt>
      <trkpt lat="46.57339" lon="6.10157">
        <ele>1146.03</ele>
        <time>2016-06-13T08:14:25Z</time>
      </trkpt>
      <trkpt lat="46.57342" lon="6.10168">
        <ele>1148.91</ele>
        <time>2016-06-13T08:14:44Z</time>
      </trkpt>
      <trkpt lat="46.57342" lon="6.10174">
        <ele>1149.87</ele>
        <time>2016-06-13T08:14:57Z</time>
      </trkpt>
      <trkpt lat="46.57341" lon="6.10188">
        <ele>1153.24</ele>
        <time>2016-06-13T08:15:16Z</time>
      </trkpt>
      <trkpt lat="46.57346" lon="6.10201">
        <ele>1158.53</ele>
        <time>2016-06-13T08:15:29Z</time>
      </trkpt>
      <trkpt lat="46.57348" lon="6.10209">
        <ele>1161.89</ele>
        <time>2016-06-13T08:15:46Z</time>
      </trkpt>
      <trkpt lat="46.5735" lon="6.10214">
        <ele>1165.74</ele>
        <time>2016-06-13T08:16:01Z</time>
      </trkpt>
      <trkpt lat="46.57353" lon="6.10226">
        <ele>1170.06</ele>
        <time>2016-06-13T08:16:17Z</time>
      </trkpt>
      <trkpt lat="46.57354" lon="6.10235">
        <ele>1172.95</ele>
        <time>2016-06-13T08:16:36Z</time>
      </trkpt>
      <trkpt lat="46.57358" lon="6.10245">
        <ele>1175.83</ele>
        <time>2016-06-13T08:16:53Z</time>
      </trkpt>
      <trkpt lat="46.57359" lon="6.10255">
        <ele>1177.75</ele>
        <time>2016-06-13T08:17:06Z</time>
      </trkpt>
      <trkpt lat="46.57362" lon="6.10262">
        <ele>1177.27</ele>
        <time>2016-06-13T08:17:22Z</time>
      </trkpt>
      <trkpt lat="46.57364" lon="6.10265">
        <ele>1177.75</ele>
        <time>2016-06-13T08:17:41Z</time>
      </trkpt>
      <trkpt lat="46.57363" lon="6.1027">
        <ele>1179.19</ele>
        <time>2016-06-13T08:17:52Z</time>
      </trkpt>
      <trkpt lat="46.57364" lon="6.10276">
        <ele>1182.08</ele>
        <time>2016-06-13T08:18:03Z</time>
      </trkpt>
      <trkpt lat="46.57365" lon="6.1028">
        <ele>1183.52</ele>
        <time>2016-06-13T08:18:14Z</time>
      </trkpt>
      <trkpt lat="46.57367" lon="6.1029">
        <ele>1186.4</ele>
        <time>2016-06-13T08:18:28Z</time>
      </trkpt>
      <trkpt lat="46.57367" lon="6.10299">
        <ele>1187.37</ele>
        <time>2016-06-13T08:18:44Z</time>
      </trkpt>
      <trkpt lat="46.57369" lon="6.10305">
        <ele>1187.37</ele>
        <time>2016-06-13T08:19:01Z</time>
      </trkpt>
      <trkpt lat="46.57366" lon="6.10323">
        <ele>1188.33</ele>
        <time>2016-06-13T08:19:18Z</time>
      </trkpt>
      <trkpt lat="46.57367" lon="6.1033">
        <ele>1189.77</ele>
        <time>2016-06-13T08:19:34Z</time>
      </trkpt>
      <trkpt lat="46.57367" lon="6.10338">
        <ele>1190.25</ele>
        <time>2016-06-13T08:19:52Z</time>
      </trkpt>
      <trkpt lat="46.57369" lon="6.10347">
        <ele>1193.13</ele>
        <time>2016-06-13T08:20:07Z</time>
      </trkpt>
      <trkpt lat="46.5737" lon="6.10355">
        <ele>1195.54</ele>
        <time>2016-06-13T08:20:22Z</time>
      </trkpt>
      <trkpt lat="46.57372" lon="6.10368">
        <ele>1199.86</ele>
        <time>2016-06-13T08:20:39Z</time>
      </trkpt>
      <trkpt lat="46.57371" lon="6.10376">
        <ele>1200.82</ele>
        <time>2016-06-13T08:20:55Z</time>
      </trkpt>
      <trkpt lat="46.57371" lon="6.10383">
        <ele>1202.27</ele>
        <time>2016-06-13T08:21:11Z</time>
      </trkpt>
      <trkpt lat="46.57373" lon="6.10387">
        <ele>1205.63</ele>
        <time>2016-06-13T08:21:30Z</time>
      </trkpt>
      <trkpt lat="46.57374" lon="6.10395">
        <ele>1207.07</ele>
        <time>2016-06-13T08:21:51Z</time>
      </trkpt>
      <trkpt lat="46.57372" lon="6.10402">
        <ele>1208.51</ele>
        <time>2016-06-13T08:22:04Z</time>
      </trkpt>
      <trkpt lat="46.57374" lon="6.10413">
        <ele>1211.88</ele>
        <time>2016-06-13T08:22:15Z</time>
      </trkpt>
      <trkpt lat="46.57374" lon="6.10424">
        <ele>1213.8</ele>
        <time>2016-06-13T08:22:29Z</time>
      </trkpt>
      <trkpt lat="46.57373" lon="6.10428">
        <ele>1216.21</ele>
        <time>2016-06-13T08:22:43Z</time>
      </trkpt>
      <trkpt lat="46.57371" lon="6.10432">
        <ele>1216.69</ele>
        <time>2016-06-13T08:22:59Z</time>
      </trkpt>
      <trkpt lat="46.5737" lon="6.10437">
        <ele>1217.65</ele>
        <time>2016-06-13T08:23:15Z</time>
      </trkpt>
      <trkpt lat="46.57369" lon="6.10441">
        <ele>1218.61</ele>
        <time>2016-06-13T08:23:32Z</time>
      </trkpt>
      <trkpt lat="46.57367" lon="6.10446">
        <ele>1220.53</ele>
        <time>2016-06-13T08:23:49Z</time>
      </trkpt>
      <trkpt lat="46.57368" lon="6.10454">
        <ele>1225.82</ele>
        <time>2016-06-13T08:24:08Z</time>
      </trkpt>
      <trkpt lat="46.57371" lon="6.10467">
        <ele>1231.59</ele>
        <time>2016-06-13T08:24:26Z</time>
      </trkpt>
      <trkpt lat="46.57369" lon="6.10473">
        <ele>1233.03</ele>
        <time>2016-06-13T08:24:41Z</time>
      </trkpt>
      <trkpt lat="46.57369" lon="6.10477">
        <ele>1235.43</ele>
        <time>2016-06-13T08:24:56Z</time>
      </trkpt>
      <trkpt lat="46.57369" lon="6.10487">
        <ele>1238.8</ele>
        <time>2016-06-13T08:25:13Z</time>
      </trkpt>
      <trkpt lat="46.5737" lon="6.10489">
        <ele>1242.16</ele>
        <time>2016-06-13T08:25:34Z</time>
      </trkpt>
      <trkpt lat="46.57371" lon="6.10492">
        <ele>1242.64</ele>
        <time>2016-06-13T08:25:51Z</time>
      </trkpt>
      <trkpt lat="46.57371" lon="6.10497">
        <ele>1242.64</ele>
        <time>2016-06-13T08:26:06Z</time>
      </trkpt>
      <trkpt lat="46.57371" lon="6.10501">
        <ele>1241.68</ele>
        <time>2016-06-13T08:26:22Z</time>
      </trkpt>
      <trkpt lat="46.57372" lon="6.10503">
        <ele>1241.68</ele>
        <time>2016-06-13T08:26:35Z</time>
      </trkpt>
      <trkpt lat="46.57371" lon="6.10506">
        <ele>1241.2</ele>
        <time>2016-06-13T08:26:51Z</time>
      </trkpt>
      <trkpt lat="46.5737" lon="6.1051">
        <ele>1241.68</ele>
        <time>2016-06-13T08:27:07Z</time>
      </trkpt>
      <trkpt lat="46.5737" lon="6.10514">
        <ele>1241.68</ele>
        <time>2016-06-13T08:27:23Z</time>
      </trkpt>
      <trkpt lat="46.57371" lon="6.10519">
        <ele>1241.68</ele>
        <time>2016-06-13T08:27:41Z</time>
      </trkpt>
      <trkpt lat="46.5737" lon="6.10525">
        <ele>1241.68</ele>
        <time>2016-06-13T08:27:57Z</time>
      </trkpt>
      <trkpt lat="46.57369" lon="6.10531">
        <ele>1241.2</ele>
        <time>2016-06-13T08:28:13Z</time>
      </trkpt>
      <trkpt lat="46.57368" lon="6.10535">
        <ele>1239.76</ele>
        <time>2016-06-13T08:28:28Z</time>
      </trkpt>
      <trkpt lat="46.57368" lon="6.10539">
        <ele>1238.32</ele>
        <time>2016-06-13T08:28:44Z</time>
      </trkpt>
      <trkpt lat="46.57367" lon="6.10546">
        <ele>1236.39</ele>
        <time>2016-06-13T08:28:59Z</time>
      </trkpt>
      <trkpt lat="46.57367" lon="6.10561">
        <ele>1235.91</ele>
        <time>2016-06-13T08:29:12Z</time>
      </trkpt>
      <trkpt lat="46.57365" lon="6.1057">
        <ele>1234.47</ele>
        <time>2016-06-13T08:29:25Z</time>
      </trkpt>
      <trkpt lat="46.57363" lon="6.10583">
        <ele>1234.47</ele>
        <time>2016-06-13T08:29:36Z</time>
      </trkpt>
      <trkpt lat="46.57362" lon="6.10593">
        <ele>1234.95</ele>
        <time>2016-06-13T08:29:47Z</time>
      </trkpt>
      <trkpt lat="46.57364" lon="6.10602">
        <ele>1235.43</ele>
        <time>2016-06-13T08:29:58Z</time>
      </trkpt>
      <trkpt lat="46.57363" lon="6.10609">
        <ele>1234.47</ele>
        <time>2016-06-13T08:30:13Z</time>
      </trkpt>
      <trkpt lat="46.57363" lon="6.10618">
        <ele>1235.43</ele>
        <time>2016-06-13T08:30:24Z</time>
      </trkpt>
      <trkpt lat="46.57364" lon="6.10634">
        <ele>1242.16</ele>
        <time>2016-06-13T08:30:33Z</time>
      </trkpt>
      <trkpt lat="46.57363" lon="6.1064">
        <ele>1247.45</ele>
        <time>2016-06-13T08:30:47Z</time>
      </trkpt>
      <trkpt lat="46.57359" lon="6.10646">
        <ele>1256.1</ele>
        <time>2016-06-13T08:31:03Z</time>
      </trkpt>
      <trkpt lat="46.57359" lon="6.10647">
        <ele>1258.5</ele>
        <time>2016-06-13T08:31:19Z</time>
      </trkpt>
      <trkpt lat="46.57357" lon="6.10649">
        <ele>1261.39</ele>
        <time>2016-06-13T08:31:35Z</time>
      </trkpt>
      <trkpt lat="46.57355" lon="6.10648">
        <ele>1267.16</ele>
        <time>2016-06-13T08:32:03Z</time>
      </trkpt>
      <trkpt lat="46.57352" lon="6.10648">
        <ele>1267.64</ele>
        <time>2016-06-13T08:32:33Z</time>
      </trkpt>
      <trkpt lat="46.57351" lon="6.10649">
        <ele>1268.6</ele>
        <time>2016-06-13T08:32:54Z</time>
      </trkpt>
      <trkpt lat="46.57352" lon="6.10649">
        <ele>1269.56</ele>
        <time>2016-06-13T08:33:25Z</time>
      </trkpt>
      <trkpt lat="46.57353" lon="6.10646">
        <ele>1269.08</ele>
        <time>2016-06-13T08:33:41Z</time>
      </trkpt>
      <trkpt lat="46.57353" lon="6.10639">
        <ele>1271.48</ele>
        <time>2016-06-13T08:33:51Z</time>
      </trkpt>
      <trkpt lat="46.57353" lon="6.10636">
        <ele>1272.44</ele>
        <time>2016-06-13T08:34:05Z</time>
      </trkpt>
      <trkpt lat="46.57348" lon="6.10628">
        <ele>1273.4</ele>
        <time>2016-06-13T08:34:19Z</time>
      </trkpt>
      <trkpt lat="46.57344" lon="6.10609">
        <ele>1276.29</ele>
        <time>2016-06-13T08:34:33Z</time>
      </trkpt>
      <trkpt lat="46.57343" lon="6.10604">
        <ele>1276.29</ele>
        <time>2016-06-13T08:34:47Z</time>
      </trkpt>
      <trkpt lat="46.57342" lon="6.10594">
        <ele>1280.13</ele>
        <time>2016-06-13T08:35:02Z</time>
      </trkpt>
      <trkpt lat="46.57341" lon="6.10588">
        <ele>1281.09</ele>
        <time>2016-06-13T08:35:19Z</time>
      </trkpt>
      <trkpt lat="46.5734" lon="6.10581">
        <ele>1282.06</ele>
        <time>2016-06-13T08:35:32Z</time>
      </trkpt>
      <trkpt lat="46.5734" lon="6.10576">
        <ele>1282.06</ele>
        <time>2016-06-13T08:35:46Z</time>
      </trkpt>
      <trkpt lat="46.5734" lon="6.10572">
        <ele>1282.06</ele>
        <time>2016-06-13T08:35:51Z</time>
      </trkpt>
      <trkpt lat="46.57339" lon="6.10563">
        <ele>1282.06</ele>
        <time>2016-06-13T08:36:03Z</time>
      </trkpt>
      <trkpt lat="46.57335" lon="6.10558">
        <ele>1282.54</ele>
        <time>2016-06-13T08:36:14Z</time>
      </trkpt>
      <trkpt lat="46.57331" lon="6.10548">
        <ele>1282.54</ele>
        <time>2016-06-13T08:36:27Z</time>
      </trkpt>
      <trkpt lat="46.57323" lon="6.10532">
        <ele>1283.02</ele>
        <time>2016-06-13T08:36:39Z</time>
      </trkpt>
      <trkpt lat="46.57317" lon="6.10517">
        <ele>1283.5</ele>
        <time>2016-06-13T08:36:50Z</time>
      </trkpt>
      <trkpt lat="46.5731" lon="6.10507">
        <ele>1284.94</ele>
        <time>2016-06-13T08:37:03Z</time>
      </trkpt>
      <trkpt lat="46.57308" lon="6.10497">
        <ele>1285.9</ele>
        <time>2016-06-13T08:37:18Z</time>
      </trkpt>
      <trkpt lat="46.57305" lon="6.10485">
        <ele>1287.82</ele>
        <time>2016-06-13T08:37:31Z</time>
      </trkpt>
      <trkpt lat="46.57302" lon="6.10477">
        <ele>1288.78</ele>
        <time>2016-06-13T08:37:48Z</time>
      </trkpt>
      <trkpt lat="46.573" lon="6.10467">
        <ele>1286.38</ele>
        <time>2016-06-13T08:38:04Z</time>
      </trkpt>
      <trkpt lat="46.57292" lon="6.10445">
        <ele>1287.82</ele>
        <time>2016-06-13T08:38:17Z</time>
      </trkpt>
      <trkpt lat="46.57291" lon="6.10434">
        <ele>1285.42</ele>
        <time>2016-06-13T08:38:33Z</time>
      </trkpt>
      <trkpt lat="46.57291" lon="6.10432">
        <ele>1285.9</ele>
        <time>2016-06-13T08:38:36Z</time>
      </trkpt>
      <trkpt lat="46.57296" lon="6.10423">
        <ele>1283.02</ele>
        <time>2016-06-13T08:38:46Z</time>
      </trkpt>
      <trkpt lat="46.57302" lon="6.10413">
        <ele>1284.46</ele>
        <time>2016-06-13T08:38:57Z</time>
      </trkpt>
      <trkpt lat="46.57306" lon="6.1041">
        <ele>1284.94</ele>
        <time>2016-06-13T08:39:08Z</time>
      </trkpt>
      <trkpt lat="46.57308" lon="6.10407">
        <ele>1285.42</ele>
        <time>2016-06-13T08:39:25Z</time>
      </trkpt>
      <trkpt lat="46.57309" lon="6.10407">
        <ele>1285.9</ele>
        <time>2016-06-13T08:39:45Z</time>
      </trkpt>
      <trkpt lat="46.57309" lon="6.10407">
        <ele>1286.86</ele>
        <time>2016-06-13T08:40:12Z</time>
      </trkpt>
      <trkpt lat="46.57309" lon="6.10406">
        <ele>1286.86</ele>
        <time>2016-06-13T08:40:33Z</time>
      </trkpt>
      <trkpt lat="46.57309" lon="6.10406">
        <ele>1287.34</ele>
        <time>2016-06-13T08:40:56Z</time>
      </trkpt>
      <trkpt lat="46.57309" lon="6.10405">
        <ele>1287.34</ele>
        <time>2016-06-13T08:41:17Z</time>
      </trkpt>
      <trkpt lat="46.57307" lon="6.10407">
        <ele>1287.34</ele>
        <time>2016-06-13T08:41:29Z</time>
      </trkpt>
      <trkpt lat="46.57307" lon="6.10408">
        <ele>1286.86</ele>
        <time>2016-06-13T08:41:44Z</time>
      </trkpt>
      <trkpt lat="46.57304" lon="6.10409">
        <ele>1286.38</ele>
        <time>2016-06-13T08:41:56Z</time>
      </trkpt>
      <trkpt lat="46.57303" lon="6.1041">
        <ele>1286.38</ele>
        <time>2016-06-13T08:41:57Z</time>
      </trkpt>
      <trkpt lat="46.57292" lon="6.1041">
        <ele>1288.3</ele>
        <time>2016-06-13T08:42:10Z</time>
      </trkpt>
      <trkpt lat="46.57286" lon="6.10411">
        <ele>1287.82</ele>
        <time>2016-06-13T08:42:22Z</time>
      </trkpt>
      <trkpt lat="46.57279" lon="6.10411">
        <ele>1287.34</ele>
        <time>2016-06-13T08:42:31Z</time>
      </trkpt>
      <trkpt lat="46.57271" lon="6.10412">
        <ele>1287.34</ele>
        <time>2016-06-13T08:42:44Z</time>
      </trkpt>
      <trkpt lat="46.57253" lon="6.1041">
        <ele>1287.34</ele>
        <time>2016-06-13T08:42:57Z</time>
      </trkpt>
      <trkpt lat="46.57238" lon="6.10405">
        <ele>1290.23</ele>
        <time>2016-06-13T08:43:09Z</time>
      </trkpt>
      <trkpt lat="46.57213" lon="6.10401">
        <ele>1289.75</ele>
        <time>2016-06-13T08:43:24Z</time>
      </trkpt>
      <trkpt lat="46.57198" lon="6.10393">
        <ele>1290.71</ele>
        <time>2016-06-13T08:43:35Z</time>
      </trkpt>
      <trkpt lat="46.57185" lon="6.10385">
        <ele>1289.75</ele>
        <time>2016-06-13T08:43:50Z</time>
      </trkpt>
      <trkpt lat="46.57181" lon="6.10382">
        <ele>1289.27</ele>
        <time>2016-06-13T08:44:02Z</time>
      </trkpt>
      <trkpt lat="46.57173" lon="6.10379">
        <ele>1287.82</ele>
        <time>2016-06-13T08:44:11Z</time>
      </trkpt>
      <trkpt lat="46.57163" lon="6.10377">
        <ele>1285.42</ele>
        <time>2016-06-13T08:44:23Z</time>
      </trkpt>
      <trkpt lat="46.57152" lon="6.10378">
        <ele>1284.46</ele>
        <time>2016-06-13T08:44:34Z</time>
      </trkpt>
      <trkpt lat="46.57146" lon="6.10378">
        <ele>1283.02</ele>
        <time>2016-06-13T08:44:45Z</time>
      </trkpt>
      <trkpt lat="46.57141" lon="6.10377">
        <ele>1279.65</ele>
        <time>2016-06-13T08:44:57Z</time>
      </trkpt>
      <trkpt lat="46.57135" lon="6.10373">
        <ele>1276.77</ele>
        <time>2016-06-13T08:45:12Z</time>
      </trkpt>
      <trkpt lat="46.57128" lon="6.10368">
        <ele>1275.81</ele>
        <time>2016-06-13T08:45:24Z</time>
      </trkpt>
      <trkpt lat="46.57124" lon="6.10364">
        <ele>1275.33</ele>
        <time>2016-06-13T08:45:31Z</time>
      </trkpt>
      <trkpt lat="46.57118" lon="6.10356">
        <ele>1272.92</ele>
        <time>2016-06-13T08:45:42Z</time>
      </trkpt>
      <trkpt lat="46.57105" lon="6.10351">
        <ele>1273.88</ele>
        <time>2016-06-13T08:45:55Z</time>
      </trkpt>
      <trkpt lat="46.57103" lon="6.1035">
        <ele>1274.85</ele>
        <time>2016-06-13T08:46:01Z</time>
      </trkpt>
      <trkpt lat="46.57098" lon="6.10352">
        <ele>1275.33</ele>
        <time>2016-06-13T08:46:04Z</time>
      </trkpt>
      <trkpt lat="46.57089" lon="6.10352">
        <ele>1276.29</ele>
        <time>2016-06-13T08:46:16Z</time>
      </trkpt>
      <trkpt lat="46.57085" lon="6.10354">
        <ele>1277.73</ele>
        <time>2016-06-13T08:46:29Z</time>
      </trkpt>
      <trkpt lat="46.57083" lon="6.10356">
        <ele>1279.65</ele>
        <time>2016-06-13T08:46:57Z</time>
      </trkpt>
      <trkpt lat="46.57079" lon="6.10359">
        <ele>1280.61</ele>
        <time>2016-06-13T08:47:09Z</time>
      </trkpt>
      <trkpt lat="46.5707" lon="6.10367">
        <ele>1283.5</ele>
        <time>2016-06-13T08:47:20Z</time>
      </trkpt>
      <trkpt lat="46.57063" lon="6.10367">
        <ele>1285.42</ele>
        <time>2016-06-13T08:47:31Z</time>
      </trkpt>
      <trkpt lat="46.57059" lon="6.10361">
        <ele>1286.86</ele>
        <time>2016-06-13T08:47:40Z</time>
      </trkpt>
      <trkpt lat="46.57053" lon="6.10349">
        <ele>1286.86</ele>
        <time>2016-06-13T08:47:51Z</time>
      </trkpt>
      <trkpt lat="46.57051" lon="6.10336">
        <ele>1285.42</ele>
        <time>2016-06-13T08:48:03Z</time>
      </trkpt>
      <trkpt lat="46.57046" lon="6.10327">
        <ele>1284.94</ele>
        <time>2016-06-13T08:48:15Z</time>
      </trkpt>
      <trkpt lat="46.57034" lon="6.10313">
        <ele>1284.46</ele>
        <time>2016-06-13T08:48:28Z</time>
      </trkpt>
      <trkpt lat="46.57024" lon="6.10305">
        <ele>1284.94</ele>
        <time>2016-06-13T08:48:40Z</time>
      </trkpt>
      <trkpt lat="46.57011" lon="6.103">
        <ele>1285.42</ele>
        <time>2016-06-13T08:48:53Z</time>
      </trkpt>
      <trkpt lat="46.56999" lon="6.10301">
        <ele>1285.42</ele>
        <time>2016-06-13T08:49:04Z</time>
      </trkpt>
      <trkpt lat="46.56991" lon="6.10293">
        <ele>1287.82</ele>
        <time>2016-06-13T08:49:14Z</time>
      </trkpt>
      <trkpt lat="46.56985" lon="6.10286">
        <ele>1289.75</ele>
        <time>2016-06-13T08:49:21Z</time>
      </trkpt>
      <trkpt lat="46.56978" lon="6.10281">
        <ele>1289.75</ele>
        <time>2016-06-13T08:49:34Z</time>
      </trkpt>
      <trkpt lat="46.56971" lon="6.1028">
        <ele>1288.3</ele>
        <time>2016-06-13T08:49:47Z</time>
      </trkpt>
      <trkpt lat="46.5697" lon="6.10279">
        <ele>1288.3</ele>
        <time>2016-06-13T08:49:48Z</time>
      </trkpt>
      <trkpt lat="46.56957" lon="6.10275">
        <ele>1289.75</ele>
        <time>2016-06-13T08:49:58Z</time>
      </trkpt>
      <trkpt lat="46.56946" lon="6.10265">
        <ele>1287.82</ele>
        <time>2016-06-13T08:50:12Z</time>
      </trkpt>
      <trkpt lat="46.56938" lon="6.1026">
        <ele>1283.02</ele>
        <time>2016-06-13T08:50:26Z</time>
      </trkpt>
      <trkpt lat="46.56933" lon="6.10259">
        <ele>1280.61</ele>
        <time>2016-06-13T08:50:34Z</time>
      </trkpt>
      <trkpt lat="46.56919" lon="6.10256">
        <ele>1277.73</ele>
        <time>2016-06-13T08:50:47Z</time>
      </trkpt>
      <trkpt lat="46.56911" lon="6.10248">
        <ele>1276.77</ele>
        <time>2016-06-13T08:50:56Z</time>
      </trkpt>
      <trkpt lat="46.56911" lon="6.10245">
        <ele>1276.77</ele>
        <time>2016-06-13T08:50:58Z</time>
      </trkpt>
      <trkpt lat="46.56906" lon="6.10238">
        <ele>1275.81</ele>
        <time>2016-06-13T08:51:05Z</time>
      </trkpt>
      <trkpt lat="46.56903" lon="6.10235">
        <ele>1276.29</ele>
        <time>2016-06-13T08:51:10Z</time>
      </trkpt>
      <trkpt lat="46.56902" lon="6.10233">
        <ele>1276.29</ele>
        <time>2016-06-13T08:51:12Z</time>
      </trkpt>
      <trkpt lat="46.56894" lon="6.10224">
        <ele>1276.77</ele>
        <time>2016-06-13T08:51:24Z</time>
      </trkpt>
      <trkpt lat="46.56889" lon="6.10212">
        <ele>1275.81</ele>
        <time>2016-06-13T08:51:36Z</time>
      </trkpt>
      <trkpt lat="46.56885" lon="6.102">
        <ele>1276.29</ele>
        <time>2016-06-13T08:51:43Z</time>
      </trkpt>
      <trkpt lat="46.56882" lon="6.10183">
        <ele>1278.21</ele>
        <time>2016-06-13T08:51:56Z</time>
      </trkpt>
      <trkpt lat="46.56878" lon="6.10167">
        <ele>1277.25</ele>
        <time>2016-06-13T08:52:06Z</time>
      </trkpt>
      <trkpt lat="46.56871" lon="6.10159">
        <ele>1276.77</ele>
        <time>2016-06-13T08:52:17Z</time>
      </trkpt>
      <trkpt lat="46.56868" lon="6.10156">
        <ele>1277.73</ele>
        <time>2016-06-13T08:52:21Z</time>
      </trkpt>
      <trkpt lat="46.56866" lon="6.10154">
        <ele>1278.21</ele>
        <time>2016-06-13T08:52:23Z</time>
      </trkpt>
      <trkpt lat="46.56861" lon="6.10152">
        <ele>1279.65</ele>
        <time>2016-06-13T08:52:27Z</time>
      </trkpt>
      <trkpt lat="46.5685" lon="6.10144">
        <ele>1282.06</ele>
        <time>2016-06-13T08:52:40Z</time>
      </trkpt>
      <trkpt lat="46.56842" lon="6.10133">
        <ele>1281.57</ele>
        <time>2016-06-13T08:52:50Z</time>
      </trkpt>
      <trkpt lat="46.56836" lon="6.10128">
        <ele>1280.61</ele>
        <time>2016-06-13T08:52:56Z</time>
      </trkpt>
      <trkpt lat="46.5683" lon="6.10117">
        <ele>1279.65</ele>
        <time>2016-06-13T08:53:05Z</time>
      </trkpt>
      <trkpt lat="46.56824" lon="6.10102">
        <ele>1276.77</ele>
        <time>2016-06-13T08:53:15Z</time>
      </trkpt>
      <trkpt lat="46.56824" lon="6.10088">
        <ele>1275.33</ele>
        <time>2016-06-13T08:53:24Z</time>
      </trkpt>
      <trkpt lat="46.56822" lon="6.10063">
        <ele>1271.48</ele>
        <time>2016-06-13T08:53:39Z</time>
      </trkpt>
      <trkpt lat="46.56818" lon="6.10053">
        <ele>1271</ele>
        <time>2016-06-13T08:53:45Z</time>
      </trkpt>
      <trkpt lat="46.56806" lon="6.10044">
        <ele>1273.4</ele>
        <time>2016-06-13T08:53:58Z</time>
      </trkpt>
      <trkpt lat="46.56798" lon="6.1004">
        <ele>1273.88</ele>
        <time>2016-06-13T08:54:08Z</time>
      </trkpt>
      <trkpt lat="46.56786" lon="6.10036">
        <ele>1271.48</ele>
        <time>2016-06-13T08:54:22Z</time>
      </trkpt>
      <trkpt lat="46.56779" lon="6.10029">
        <ele>1270.04</ele>
        <time>2016-06-13T08:54:35Z</time>
      </trkpt>
      <trkpt lat="46.56763" lon="6.10021">
        <ele>1272.44</ele>
        <time>2016-06-13T08:54:48Z</time>
      </trkpt>
      <trkpt lat="46.56746" lon="6.10014">
        <ele>1271.48</ele>
        <time>2016-06-13T08:55:02Z</time>
      </trkpt>
      <trkpt lat="46.56743" lon="6.10013">
        <ele>1271.96</ele>
        <time>2016-06-13T08:55:05Z</time>
      </trkpt>
      <trkpt lat="46.56738" lon="6.1001">
        <ele>1271</ele>
        <time>2016-06-13T08:55:10Z</time>
      </trkpt>
      <trkpt lat="46.56726" lon="6.10009">
        <ele>1267.16</ele>
        <time>2016-06-13T08:55:24Z</time>
      </trkpt>
      <trkpt lat="46.5672" lon="6.10007">
        <ele>1264.27</ele>
        <time>2016-06-13T08:55:37Z</time>
      </trkpt>
      <trkpt lat="46.56703" lon="6.10002">
        <ele>1261.87</ele>
        <time>2016-06-13T08:55:51Z</time>
      </trkpt>
      <trkpt lat="46.56683" lon="6.0999">
        <ele>1262.35</ele>
        <time>2016-06-13T08:56:04Z</time>
      </trkpt>
      <trkpt lat="46.56676" lon="6.09992">
        <ele>1263.31</ele>
        <time>2016-06-13T08:56:16Z</time>
      </trkpt>
      <trkpt lat="46.56673" lon="6.09995">
        <ele>1264.75</ele>
        <time>2016-06-13T08:56:22Z</time>
      </trkpt>
      <trkpt lat="46.56672" lon="6.09999">
        <ele>1264.75</ele>
        <time>2016-06-13T08:56:29Z</time>
      </trkpt>
      <trkpt lat="46.56667" lon="6.10007">
        <ele>1264.75</ele>
        <time>2016-06-13T08:56:38Z</time>
      </trkpt>
      <trkpt lat="46.5666" lon="6.10014">
        <ele>1264.27</ele>
        <time>2016-06-13T08:56:48Z</time>
      </trkpt>
      <trkpt lat="46.56656" lon="6.10027">
        <ele>1262.35</ele>
        <time>2016-06-13T08:57:01Z</time>
      </trkpt>
      <trkpt lat="46.56653" lon="6.10039">
        <ele>1260.91</ele>
        <time>2016-06-13T08:57:12Z</time>
      </trkpt>
      <trkpt lat="46.56653" lon="6.10053">
        <ele>1262.83</ele>
        <time>2016-06-13T08:57:23Z</time>
      </trkpt>
      <trkpt lat="46.56653" lon="6.10068">
        <ele>1265.23</ele>
        <time>2016-06-13T08:57:36Z</time>
      </trkpt>
      <trkpt lat="46.56655" lon="6.10085">
        <ele>1275.33</ele>
        <time>2016-06-13T08:57:49Z</time>
      </trkpt>
      <trkpt lat="46.56652" lon="6.10093">
        <ele>1277.73</ele>
        <time>2016-06-13T08:58:03Z</time>
      </trkpt>
      <trkpt lat="46.56649" lon="6.10099">
        <ele>1278.21</ele>
        <time>2016-06-13T08:58:16Z</time>
      </trkpt>
      <trkpt lat="46.56649" lon="6.10099">
        <ele>1278.21</ele>
        <time>2016-06-13T08:58:17Z</time>
      </trkpt>
      <trkpt lat="46.56645" lon="6.10107">
        <ele>1276.77</ele>
        <time>2016-06-13T08:58:29Z</time>
      </trkpt>
      <trkpt lat="46.56641" lon="6.10111">
        <ele>1276.29</ele>
        <time>2016-06-13T08:58:36Z</time>
      </trkpt>
      <trkpt lat="46.56636" lon="6.10112">
        <ele>1276.29</ele>
        <time>2016-06-13T08:58:47Z</time>
      </trkpt>
      <trkpt lat="46.56629" lon="6.10111">
        <ele>1277.73</ele>
        <time>2016-06-13T08:58:56Z</time>
      </trkpt>
      <trkpt lat="46.56618" lon="6.10111">
        <ele>1282.06</ele>
        <time>2016-06-13T08:59:07Z</time>
      </trkpt>
      <trkpt lat="46.56614" lon="6.10106">
        <ele>1285.9</ele>
        <time>2016-06-13T08:59:16Z</time>
      </trkpt>
      <trkpt lat="46.56612" lon="6.101">
        <ele>1286.38</ele>
        <time>2016-06-13T08:59:26Z</time>
      </trkpt>
      <trkpt lat="46.56611" lon="6.10087">
        <ele>1286.86</ele>
        <time>2016-06-13T08:59:39Z</time>
      </trkpt>
      <trkpt lat="46.5661" lon="6.10076">
        <ele>1287.82</ele>
        <time>2016-06-13T08:59:52Z</time>
      </trkpt>
      <trkpt lat="46.5661" lon="6.10074">
        <ele>1287.82</ele>
        <time>2016-06-13T08:59:54Z</time>
      </trkpt>
      <trkpt lat="46.56602" lon="6.1006">
        <ele>1287.34</ele>
        <time>2016-06-13T09:00:07Z</time>
      </trkpt>
      <trkpt lat="46.56597" lon="6.10052">
        <ele>1287.82</ele>
        <time>2016-06-13T09:00:19Z</time>
      </trkpt>
      <trkpt lat="46.56587" lon="6.10051">
        <ele>1288.3</ele>
        <time>2016-06-13T09:00:33Z</time>
      </trkpt>
      <trkpt lat="46.56578" lon="6.10051">
        <ele>1290.71</ele>
        <time>2016-06-13T09:00:44Z</time>
      </trkpt>
      <trkpt lat="46.5657" lon="6.10056">
        <ele>1288.78</ele>
        <time>2016-06-13T09:00:56Z</time>
      </trkpt>
      <trkpt lat="46.56568" lon="6.10056">
        <ele>1288.78</ele>
        <time>2016-06-13T09:00:58Z</time>
      </trkpt>
      <trkpt lat="46.56561" lon="6.10058">
        <ele>1285.9</ele>
        <time>2016-06-13T09:01:09Z</time>
      </trkpt>
      <trkpt lat="46.5655" lon="6.10069">
        <ele>1285.9</ele>
        <time>2016-06-13T09:01:25Z</time>
      </trkpt>
      <trkpt lat="46.56542" lon="6.10076">
        <ele>1286.86</ele>
        <time>2016-06-13T09:01:35Z</time>
      </trkpt>
      <trkpt lat="46.5654" lon="6.10077">
        <ele>1286.86</ele>
        <time>2016-06-13T09:01:37Z</time>
      </trkpt>
      <trkpt lat="46.56525" lon="6.10077">
        <ele>1289.75</ele>
        <time>2016-06-13T09:01:52Z</time>
      </trkpt>
      <trkpt lat="46.5652" lon="6.10071">
        <ele>1290.71</ele>
        <time>2016-06-13T09:01:57Z</time>
      </trkpt>
      <trkpt lat="46.56519" lon="6.10067">
        <ele>1291.67</ele>
        <time>2016-06-13T09:02:03Z</time>
      </trkpt>
      <trkpt lat="46.56513" lon="6.10052">
        <ele>1291.67</ele>
        <time>2016-06-13T09:02:14Z</time>
      </trkpt>
      <trkpt lat="46.56506" lon="6.10042">
        <ele>1292.15</ele>
        <time>2016-06-13T09:02:26Z</time>
      </trkpt>
      <trkpt lat="46.56492" lon="6.10033">
        <ele>1289.75</ele>
        <time>2016-06-13T09:02:40Z</time>
      </trkpt>
      <trkpt lat="46.56478" lon="6.10041">
        <ele>1289.75</ele>
        <time>2016-06-13T09:02:53Z</time>
      </trkpt>
      <trkpt lat="46.56471" lon="6.1005">
        <ele>1288.78</ele>
        <time>2016-06-13T09:03:04Z</time>
      </trkpt>
      <trkpt lat="46.5646" lon="6.10059">
        <ele>1285.9</ele>
        <time>2016-06-13T09:03:16Z</time>
      </trkpt>
      <trkpt lat="46.56451" lon="6.10069">
        <ele>1282.54</ele>
        <time>2016-06-13T09:03:28Z</time>
      </trkpt>
      <trkpt lat="46.56447" lon="6.10078">
        <ele>1278.21</ele>
        <time>2016-06-13T09:03:40Z</time>
      </trkpt>
      <trkpt lat="46.56445" lon="6.10096">
        <ele>1277.25</ele>
        <time>2016-06-13T09:03:52Z</time>
      </trkpt>
      <trkpt lat="46.56441" lon="6.10117">
        <ele>1280.61</ele>
        <time>2016-06-13T09:04:05Z</time>
      </trkpt>
      <trkpt lat="46.56441" lon="6.10118">
        <ele>1280.61</ele>
        <time>2016-06-13T09:04:06Z</time>
      </trkpt>
      <trkpt lat="46.56441" lon="6.10124">
        <ele>1280.61</ele>
        <time>2016-06-13T09:04:10Z</time>
      </trkpt>
      <trkpt lat="46.56439" lon="6.10133">
        <ele>1280.61</ele>
        <time>2016-06-13T09:04:16Z</time>
      </trkpt>
      <trkpt lat="46.56438" lon="6.10142">
        <ele>1280.61</ele>
        <time>2016-06-13T09:04:20Z</time>
      </trkpt>
      <trkpt lat="46.5644" lon="6.10167">
        <ele>1280.61</ele>
        <time>2016-06-13T09:04:33Z</time>
      </trkpt>
      <trkpt lat="46.56442" lon="6.10178">
        <ele>1280.13</ele>
        <time>2016-06-13T09:04:40Z</time>
      </trkpt>
      <trkpt lat="46.56438" lon="6.10196">
        <ele>1275.33</ele>
        <time>2016-06-13T09:04:54Z</time>
      </trkpt>
      <trkpt lat="46.56436" lon="6.10197">
        <ele>1274.36</ele>
        <time>2016-06-13T09:04:57Z</time>
      </trkpt>
      <trkpt lat="46.56433" lon="6.10199">
        <ele>1274.85</ele>
        <time>2016-06-13T09:04:59Z</time>
      </trkpt>
      <trkpt lat="46.56431" lon="6.102">
        <ele>1274.85</ele>
        <time>2016-06-13T09:05:01Z</time>
      </trkpt>
      <trkpt lat="46.5642" lon="6.10207">
        <ele>1276.77</ele>
        <time>2016-06-13T09:05:10Z</time>
      </trkpt>
      <trkpt lat="46.56409" lon="6.10221">
        <ele>1277.25</ele>
        <time>2016-06-13T09:05:24Z</time>
      </trkpt>
      <trkpt lat="46.56407" lon="6.1023">
        <ele>1276.77</ele>
        <time>2016-06-13T09:05:34Z</time>
      </trkpt>
      <trkpt lat="46.56405" lon="6.10241">
        <ele>1276.77</ele>
        <time>2016-06-13T09:05:44Z</time>
      </trkpt>
      <trkpt lat="46.56398" lon="6.10258">
        <ele>1273.88</ele>
        <time>2016-06-13T09:05:55Z</time>
      </trkpt>
      <trkpt lat="46.5639" lon="6.10272">
        <ele>1270.52</ele>
        <time>2016-06-13T09:06:07Z</time>
      </trkpt>
      <trkpt lat="46.56388" lon="6.10273">
        <ele>1269.08</ele>
        <time>2016-06-13T09:06:10Z</time>
      </trkpt>
      <trkpt lat="46.56383" lon="6.10279">
        <ele>1265.71</ele>
        <time>2016-06-13T09:06:23Z</time>
      </trkpt>
      <trkpt lat="46.56373" lon="6.10283">
        <ele>1262.35</ele>
        <time>2016-06-13T09:06:34Z</time>
      </trkpt>
      <trkpt lat="46.56365" lon="6.10289">
        <ele>1258.98</ele>
        <time>2016-06-13T09:06:45Z</time>
      </trkpt>
      <trkpt lat="46.56359" lon="6.10298">
        <ele>1258.98</ele>
        <time>2016-06-13T09:06:59Z</time>
      </trkpt>
      <trkpt lat="46.56358" lon="6.10301">
        <ele>1261.39</ele>
        <time>2016-06-13T09:07:10Z</time>
      </trkpt>
      <trkpt lat="46.56355" lon="6.10301">
        <ele>1263.31</ele>
        <time>2016-06-13T09:07:24Z</time>
      </trkpt>
      <trkpt lat="46.56352" lon="6.10303">
        <ele>1264.75</ele>
        <time>2016-06-13T09:07:43Z</time>
      </trkpt>
      <trkpt lat="46.56354" lon="6.10304">
        <ele>1263.31</ele>
        <time>2016-06-13T09:07:55Z</time>
      </trkpt>
      <trkpt lat="46.56359" lon="6.10307">
        <ele>1261.87</ele>
        <time>2016-06-13T09:08:18Z</time>
      </trkpt>
      <trkpt lat="46.56362" lon="6.10306">
        <ele>1263.31</ele>
        <time>2016-06-13T09:08:50Z</time>
      </trkpt>
      <trkpt lat="46.56362" lon="6.10306">
        <ele>1263.31</ele>
        <time>2016-06-13T09:09:13Z</time>
      </trkpt>
      <trkpt lat="46.56362" lon="6.10307">
        <ele>1264.27</ele>
        <time>2016-06-13T09:09:38Z</time>
      </trkpt>
      <trkpt lat="46.56363" lon="6.10307">
        <ele>1265.71</ele>
        <time>2016-06-13T09:10:04Z</time>
      </trkpt>
      <trkpt lat="46.56364" lon="6.10308">
        <ele>1267.64</ele>
        <time>2016-06-13T09:10:26Z</time>
      </trkpt>
      <trkpt lat="46.56364" lon="6.10308">
        <ele>1267.64</ele>
        <time>2016-06-13T09:10:47Z</time>
      </trkpt>
      <trkpt lat="46.56357" lon="6.10307">
        <ele>1266.67</ele>
        <time>2016-06-13T09:10:58Z</time>
      </trkpt>
      <trkpt lat="46.5635" lon="6.10305">
        <ele>1264.75</ele>
        <time>2016-06-13T09:11:08Z</time>
      </trkpt>
      <trkpt lat="46.56345" lon="6.10299">
        <ele>1263.79</ele>
        <time>2016-06-13T09:11:16Z</time>
      </trkpt>
      <trkpt lat="46.56335" lon="6.10291">
        <ele>1263.31</ele>
        <time>2016-06-13T09:11:27Z</time>
      </trkpt>
      <trkpt lat="46.56332" lon="6.10283">
        <ele>1263.31</ele>
        <time>2016-06-13T09:11:33Z</time>
      </trkpt>
      <trkpt lat="46.56331" lon="6.10282">
        <ele>1262.83</ele>
        <time>2016-06-13T09:11:35Z</time>
      </trkpt>
      <trkpt lat="46.56321" lon="6.10272">
        <ele>1260.43</ele>
        <time>2016-06-13T09:11:50Z</time>
      </trkpt>
      <trkpt lat="46.56307" lon="6.10267">
        <ele>1259.46</ele>
        <time>2016-06-13T09:12:00Z</time>
      </trkpt>
      <trkpt lat="46.56301" lon="6.10266">
        <ele>1258.5</ele>
        <time>2016-06-13T09:12:08Z</time>
      </trkpt>
      <trkpt lat="46.5629" lon="6.10264">
        <ele>1255.62</ele>
        <time>2016-06-13T09:12:17Z</time>
      </trkpt>
      <trkpt lat="46.56283" lon="6.10264">
        <ele>1252.25</ele>
        <time>2016-06-13T09:12:25Z</time>
      </trkpt>
      <trkpt lat="46.56279" lon="6.10263">
        <ele>1251.29</ele>
        <time>2016-06-13T09:12:29Z</time>
      </trkpt>
      <trkpt lat="46.56263" lon="6.10264">
        <ele>1251.77</ele>
        <time>2016-06-13T09:12:41Z</time>
      </trkpt>
      <trkpt lat="46.56247" lon="6.10258">
        <ele>1254.66</ele>
        <time>2016-06-13T09:12:50Z</time>
      </trkpt>
      <trkpt lat="46.56244" lon="6.10255">
        <ele>1256.1</ele>
        <time>2016-06-13T09:12:52Z</time>
      </trkpt>
      <trkpt lat="46.56232" lon="6.10243">
        <ele>1259.94</ele>
        <time>2016-06-13T09:13:03Z</time>
      </trkpt>
      <trkpt lat="46.56229" lon="6.10232">
        <ele>1258.98</ele>
        <time>2016-06-13T09:13:17Z</time>
      </trkpt>
      <trkpt lat="46.56228" lon="6.1023">
        <ele>1258.98</ele>
        <time>2016-06-13T09:13:40Z</time>
      </trkpt>
      <trkpt lat="46.56229" lon="6.10227">
        <ele>1257.06</ele>
        <time>2016-06-13T09:14:05Z</time>
      </trkpt>
      <trkpt lat="46.56229" lon="6.10231">
        <ele>1256.58</ele>
        <time>2016-06-13T09:14:27Z</time>
      </trkpt>
      <trkpt lat="46.56228" lon="6.1023">
        <ele>1253.7</ele>
        <time>2016-06-13T09:14:49Z</time>
      </trkpt>
      <trkpt lat="46.56223" lon="6.10243">
        <ele>1253.7</ele>
        <time>2016-06-13T09:15:04Z</time>
      </trkpt>
      <trkpt lat="46.56223" lon="6.1024">
        <ele>1253.7</ele>
        <time>2016-06-13T09:15:25Z</time>
      </trkpt>
      <trkpt lat="46.56223" lon="6.10238">
        <ele>1253.22</ele>
        <time>2016-06-13T09:15:51Z</time>
      </trkpt>
      <trkpt lat="46.56224" lon="6.10235">
        <ele>1251.77</ele>
        <time>2016-06-13T09:16:21Z</time>
      </trkpt>
      <trkpt lat="46.56225" lon="6.10235">
        <ele>1254.18</ele>
        <time>2016-06-13T09:16:56Z</time>
      </trkpt>
      <trkpt lat="46.56226" lon="6.10234">
        <ele>1254.18</ele>
        <time>2016-06-13T09:17:23Z</time>
      </trkpt>
      <trkpt lat="46.56226" lon="6.10234">
        <ele>1253.22</ele>
        <time>2016-06-13T09:17:49Z</time>
      </trkpt>
      <trkpt lat="46.56225" lon="6.10234">
        <ele>1253.7</ele>
        <time>2016-06-13T09:18:15Z</time>
      </trkpt>
      <trkpt lat="46.56225" lon="6.10234">
        <ele>1253.22</ele>
        <time>2016-06-13T09:18:41Z</time>
      </trkpt>
      <trkpt lat="46.56225" lon="6.10234">
        <ele>1253.22</ele>
        <time>2016-06-13T09:19:05Z</time>
      </trkpt>
      <trkpt lat="46.56221" lon="6.10231">
        <ele>1255.62</ele>
        <time>2016-06-13T09:19:31Z</time>
      </trkpt>
      <trkpt lat="46.5622" lon="6.10234">
        <ele>1256.1</ele>
        <time>2016-06-13T09:19:59Z</time>
      </trkpt>
      <trkpt lat="46.5622" lon="6.10235">
        <ele>1254.66</ele>
        <time>2016-06-13T09:20:23Z</time>
      </trkpt>
      <trkpt lat="46.56216" lon="6.10235">
        <ele>1254.66</ele>
        <time>2016-06-13T09:20:47Z</time>
      </trkpt>
      <trkpt lat="46.56216" lon="6.10235">
        <ele>1254.66</ele>
        <time>2016-06-13T09:21:08Z</time>
      </trkpt>
      <trkpt lat="46.56214" lon="6.10235">
        <ele>1254.18</ele>
        <time>2016-06-13T09:21:28Z</time>
      </trkpt>
      <trkpt lat="46.56206" lon="6.10217">
        <ele>1252.25</ele>
        <time>2016-06-13T09:21:48Z</time>
      </trkpt>
      <trkpt lat="46.56215" lon="6.10238">
        <ele>1253.22</ele>
        <time>2016-06-13T09:22:13Z</time>
      </trkpt>
      <trkpt lat="46.56212" lon="6.10234">
        <ele>1255.62</ele>
        <time>2016-06-13T09:22:37Z</time>
      </trkpt>
      <trkpt lat="46.56212" lon="6.10239">
        <ele>1257.06</ele>
        <time>2016-06-13T09:22:55Z</time>
      </trkpt>
      <trkpt lat="46.56213" lon="6.1024">
        <ele>1256.1</ele>
        <time>2016-06-13T09:23:22Z</time>
      </trkpt>
      <trkpt lat="46.56213" lon="6.10238">
        <ele>1255.62</ele>
        <time>2016-06-13T09:23:44Z</time>
      </trkpt>
      <trkpt lat="46.56214" lon="6.10238">
        <ele>1256.1</ele>
        <time>2016-06-13T09:24:13Z</time>
      </trkpt>
      <trkpt lat="46.56215" lon="6.10243">
        <ele>1258.02</ele>
        <time>2016-06-13T09:24:46Z</time>
      </trkpt>
      <trkpt lat="46.56217" lon="6.10244">
        <ele>1257.54</ele>
        <time>2016-06-13T09:25:13Z</time>
      </trkpt>
      <trkpt lat="46.56216" lon="6.10248">
        <ele>1258.98</ele>
        <time>2016-06-13T09:25:40Z</time>
      </trkpt>
      <trkpt lat="46.56218" lon="6.10247">
        <ele>1258.02</ele>
        <time>2016-06-13T09:26:03Z</time>
      </trkpt>
      <trkpt lat="46.5622" lon="6.10243">
        <ele>1257.06</ele>
        <time>2016-06-13T09:26:07Z</time>
      </trkpt>
      <trkpt lat="46.56224" lon="6.10233">
        <ele>1249.85</ele>
        <time>2016-06-13T09:26:29Z</time>
      </trkpt>
      <trkpt lat="46.56224" lon="6.10236">
        <ele>1249.85</ele>
        <time>2016-06-13T09:26:54Z</time>
      </trkpt>
      <trkpt lat="46.56224" lon="6.10233">
        <ele>1250.81</ele>
        <time>2016-06-13T09:27:19Z</time>
      </trkpt>
      <trkpt lat="46.56227" lon="6.10243">
        <ele>1249.37</ele>
        <time>2016-06-13T09:27:41Z</time>
      </trkpt>
      <trkpt lat="46.56221" lon="6.10243">
        <ele>1250.33</ele>
        <time>2016-06-13T09:28:13Z</time>
      </trkpt>
      <trkpt lat="46.56221" lon="6.10243">
        <ele>1250.33</ele>
        <time>2016-06-13T09:28:36Z</time>
      </trkpt>
      <trkpt lat="46.56215" lon="6.10256">
        <ele>1252.25</ele>
        <time>2016-06-13T09:29:02Z</time>
      </trkpt>
      <trkpt lat="46.56211" lon="6.10259">
        <ele>1251.29</ele>
        <time>2016-06-13T09:29:26Z</time>
      </trkpt>
      <trkpt lat="46.56214" lon="6.10257">
        <ele>1251.29</ele>
        <time>2016-06-13T09:29:53Z</time>
      </trkpt>
      <trkpt lat="46.56222" lon="6.1024">
        <ele>1250.33</ele>
        <time>2016-06-13T09:30:18Z</time>
      </trkpt>
      <trkpt lat="46.56231" lon="6.1024">
        <ele>1248.89</ele>
        <time>2016-06-13T09:30:33Z</time>
      </trkpt>
      <trkpt lat="46.56234" lon="6.10241">
        <ele>1247.45</ele>
        <time>2016-06-13T09:30:55Z</time>
      </trkpt>
      <trkpt lat="46.56221" lon="6.10254">
        <ele>1240.24</ele>
        <time>2016-06-13T09:31:14Z</time>
      </trkpt>
      <trkpt lat="46.56212" lon="6.10249">
        <ele>1240.24</ele>
        <time>2016-06-13T09:31:37Z</time>
      </trkpt>
      <trkpt lat="46.56213" lon="6.10246">
        <ele>1240.24</ele>
        <time>2016-06-13T09:32:00Z</time>
      </trkpt>
      <trkpt lat="46.56215" lon="6.10244">
        <ele>1239.76</ele>
        <time>2016-06-13T09:32:27Z</time>
      </trkpt>
      <trkpt lat="46.56215" lon="6.10245">
        <ele>1240.24</ele>
        <time>2016-06-13T09:32:48Z</time>
      </trkpt>
      <trkpt lat="46.56215" lon="6.10244">
        <ele>1239.76</ele>
        <time>2016-06-13T09:33:08Z</time>
      </trkpt>
      <trkpt lat="46.56216" lon="6.10243">
        <ele>1239.76</ele>
        <time>2016-06-13T09:33:32Z</time>
      </trkpt>
      <trkpt lat="46.56217" lon="6.10243">
        <ele>1241.2</ele>
        <time>2016-06-13T09:33:59Z</time>
      </trkpt>
      <trkpt lat="46.56217" lon="6.10241">
        <ele>1241.2</ele>
        <time>2016-06-13T09:34:23Z</time>
      </trkpt>
      <trkpt lat="46.56219" lon="6.1024">
        <ele>1242.16</ele>
        <time>2016-06-13T09:34:46Z</time>
      </trkpt>
      <trkpt lat="46.56219" lon="6.10239">
        <ele>1242.64</ele>
        <time>2016-06-13T09:35:08Z</time>
      </trkpt>
      <trkpt lat="46.56219" lon="6.10239">
        <ele>1243.12</ele>
        <time>2016-06-13T09:35:31Z</time>
      </trkpt>
      <trkpt lat="46.56219" lon="6.10238">
        <ele>1243.12</ele>
        <time>2016-06-13T09:35:52Z</time>
      </trkpt>
      <trkpt lat="46.56221" lon="6.10235">
        <ele>1244.08</ele>
        <time>2016-06-13T09:36:16Z</time>
      </trkpt>
      <trkpt lat="46.56225" lon="6.1024">
        <ele>1244.56</ele>
        <time>2016-06-13T09:36:38Z</time>
      </trkpt>
      <trkpt lat="46.56224" lon="6.10242">
        <ele>1246.01</ele>
        <time>2016-06-13T09:37:01Z</time>
      </trkpt>
      <trkpt lat="46.56215" lon="6.10246">
        <ele>1248.89</ele>
        <time>2016-06-13T09:37:21Z</time>
      </trkpt>
      <trkpt lat="46.56215" lon="6.1025">
        <ele>1248.89</ele>
        <time>2016-06-13T09:37:25Z</time>
      </trkpt>
      <trkpt lat="46.56218" lon="6.10244">
        <ele>1247.93</ele>
        <time>2016-06-13T09:37:49Z</time>
      </trkpt>
      <trkpt lat="46.56223" lon="6.10261">
        <ele>1247.45</ele>
        <time>2016-06-13T09:38:10Z</time>
      </trkpt>
      <trkpt lat="46.5622" lon="6.10251">
        <ele>1246.01</ele>
        <time>2016-06-13T09:38:33Z</time>
      </trkpt>
      <trkpt lat="46.56219" lon="6.10249">
        <ele>1245.53</ele>
        <time>2016-06-13T09:38:57Z</time>
      </trkpt>
      <trkpt lat="46.56216" lon="6.10248">
        <ele>1246.01</ele>
        <time>2016-06-13T09:39:39Z</time>
      </trkpt>
      <trkpt lat="46.56213" lon="6.10256">
        <ele>1246.01</ele>
        <time>2016-06-13T09:40:02Z</time>
      </trkpt>
      <trkpt lat="46.56214" lon="6.10254">
        <ele>1246.97</ele>
        <time>2016-06-13T09:40:31Z</time>
      </trkpt>
      <trkpt lat="46.56214" lon="6.10251">
        <ele>1247.45</ele>
        <time>2016-06-13T09:40:58Z</time>
      </trkpt>
      <trkpt lat="46.56215" lon="6.10252">
        <ele>1245.53</ele>
        <time>2016-06-13T09:41:24Z</time>
      </trkpt>
      <trkpt lat="46.56218" lon="6.10241">
        <ele>1245.53</ele>
        <time>2016-06-13T09:41:44Z</time>
      </trkpt>
      <trkpt lat="46.56222" lon="6.10235">
        <ele>1245.53</ele>
        <time>2016-06-13T09:42:03Z</time>
      </trkpt>
      <trkpt lat="46.56223" lon="6.1023">
        <ele>1245.04</ele>
        <time>2016-06-13T09:42:26Z</time>
      </trkpt>
      <trkpt lat="46.56221" lon="6.10236">
        <ele>1246.97</ele>
        <time>2016-06-13T09:42:40Z</time>
      </trkpt>
      <trkpt lat="46.56214" lon="6.10255">
        <ele>1252.25</ele>
        <time>2016-06-13T09:43:03Z</time>
      </trkpt>
      <trkpt lat="46.56212" lon="6.10252">
        <ele>1250.81</ele>
        <time>2016-06-13T09:43:24Z</time>
      </trkpt>
      <trkpt lat="46.5621" lon="6.10257">
        <ele>1249.37</ele>
        <time>2016-06-13T09:43:44Z</time>
      </trkpt>
      <trkpt lat="46.56221" lon="6.10255">
        <ele>1244.56</ele>
        <time>2016-06-13T09:44:11Z</time>
      </trkpt>
      <trkpt lat="46.56223" lon="6.10257">
        <ele>1243.12</ele>
        <time>2016-06-13T09:44:34Z</time>
      </trkpt>
      <trkpt lat="46.56224" lon="6.10255">
        <ele>1243.6</ele>
        <time>2016-06-13T09:44:59Z</time>
      </trkpt>
      <trkpt lat="46.56221" lon="6.10249">
        <ele>1246.49</ele>
        <time>2016-06-13T09:45:32Z</time>
      </trkpt>
      <trkpt lat="46.5622" lon="6.10251">
        <ele>1246.01</ele>
        <time>2016-06-13T09:46:01Z</time>
      </trkpt>
      <trkpt lat="46.5622" lon="6.10246">
        <ele>1245.53</ele>
        <time>2016-06-13T09:46:27Z</time>
      </trkpt>
      <trkpt lat="46.5622" lon="6.10246">
        <ele>1246.01</ele>
        <time>2016-06-13T09:46:50Z</time>
      </trkpt>
      <trkpt lat="46.56219" lon="6.10249">
        <ele>1246.97</ele>
        <time>2016-06-13T09:47:15Z</time>
      </trkpt>
      <trkpt lat="46.5622" lon="6.10254">
        <ele>1246.01</ele>
        <time>2016-06-13T09:47:44Z</time>
      </trkpt>
      <trkpt lat="46.5622" lon="6.10254">
        <ele>1246.01</ele>
        <time>2016-06-13T09:48:15Z</time>
      </trkpt>
      <trkpt lat="46.56221" lon="6.10253">
        <ele>1246.49</ele>
        <time>2016-06-13T09:48:41Z</time>
      </trkpt>
      <trkpt lat="46.56221" lon="6.10252">
        <ele>1246.97</ele>
        <time>2016-06-13T09:49:07Z</time>
      </trkpt>
      <trkpt lat="46.56221" lon="6.10254">
        <ele>1247.45</ele>
        <time>2016-06-13T09:49:28Z</time>
      </trkpt>
      <trkpt lat="46.56221" lon="6.10255">
        <ele>1247.93</ele>
        <time>2016-06-13T09:49:56Z</time>
      </trkpt>
      <trkpt lat="46.5622" lon="6.10253">
        <ele>1248.89</ele>
        <time>2016-06-13T09:50:24Z</time>
      </trkpt>
      <trkpt lat="46.56218" lon="6.10256">
        <ele>1248.89</ele>
        <time>2016-06-13T09:50:49Z</time>
      </trkpt>
      <trkpt lat="46.56223" lon="6.10254">
        <ele>1246.49</ele>
        <time>2016-06-13T09:51:15Z</time>
      </trkpt>
      <trkpt lat="46.56223" lon="6.1025">
        <ele>1246.49</ele>
        <time>2016-06-13T09:51:41Z</time>
      </trkpt>
      <trkpt lat="46.56223" lon="6.10249">
        <ele>1243.6</ele>
        <time>2016-06-13T09:52:02Z</time>
      </trkpt>
      <trkpt lat="46.56229" lon="6.10247">
        <ele>1243.6</ele>
        <time>2016-06-13T09:52:30Z</time>
      </trkpt>
      <trkpt lat="46.56223" lon="6.10252">
        <ele>1254.66</ele>
        <time>2016-06-13T09:52:49Z</time>
      </trkpt>
      <trkpt lat="46.56219" lon="6.1024">
        <ele>1257.54</ele>
        <time>2016-06-13T09:53:04Z</time>
      </trkpt>
      <trkpt lat="46.56215" lon="6.10223">
        <ele>1252.74</ele>
        <time>2016-06-13T09:53:18Z</time>
      </trkpt>
      <trkpt lat="46.56212" lon="6.10217">
        <ele>1252.25</ele>
        <time>2016-06-13T09:53:23Z</time>
      </trkpt>
      <trkpt lat="46.56193" lon="6.10194">
        <ele>1251.77</ele>
        <time>2016-06-13T09:53:41Z</time>
      </trkpt>
      <trkpt lat="46.56176" lon="6.10181">
        <ele>1251.77</ele>
        <time>2016-06-13T09:53:57Z</time>
      </trkpt>
      <trkpt lat="46.56164" lon="6.10167">
        <ele>1251.77</ele>
        <time>2016-06-13T09:54:09Z</time>
      </trkpt>
      <trkpt lat="46.56154" lon="6.10153">
        <ele>1250.33</ele>
        <time>2016-06-13T09:54:22Z</time>
      </trkpt>
      <trkpt lat="46.56144" lon="6.10135">
        <ele>1249.37</ele>
        <time>2016-06-13T09:54:34Z</time>
      </trkpt>
      <trkpt lat="46.56142" lon="6.10129">
        <ele>1250.33</ele>
        <time>2016-06-13T09:54:39Z</time>
      </trkpt>
      <trkpt lat="46.56136" lon="6.1011">
        <ele>1251.29</ele>
        <time>2016-06-13T09:54:51Z</time>
      </trkpt>
      <trkpt lat="46.56136" lon="6.10108">
        <ele>1251.77</ele>
        <time>2016-06-13T09:54:52Z</time>
      </trkpt>
      <trkpt lat="46.56134" lon="6.10103">
        <ele>1251.29</ele>
        <time>2016-06-13T09:54:56Z</time>
      </trkpt>
      <trkpt lat="46.56133" lon="6.10098">
        <ele>1250.81</ele>
        <time>2016-06-13T09:54:59Z</time>
      </trkpt>
      <trkpt lat="46.56133" lon="6.10094">
        <ele>1249.85</ele>
        <time>2016-06-13T09:55:02Z</time>
      </trkpt>
      <trkpt lat="46.5613" lon="6.10083">
        <ele>1246.97</ele>
        <time>2016-06-13T09:55:11Z</time>
      </trkpt>
      <trkpt lat="46.56129" lon="6.10081">
        <ele>1246.97</ele>
        <time>2016-06-13T09:55:13Z</time>
      </trkpt>
      <trkpt lat="46.56123" lon="6.10066">
        <ele>1247.45</ele>
        <time>2016-06-13T09:55:24Z</time>
      </trkpt>
      <trkpt lat="46.56123" lon="6.10055">
        <ele>1248.41</ele>
        <time>2016-06-13T09:55:35Z</time>
      </trkpt>
      <trkpt lat="46.56122" lon="6.10034">
        <ele>1248.89</ele>
        <time>2016-06-13T09:55:47Z</time>
      </trkpt>
      <trkpt lat="46.56121" lon="6.10011">
        <ele>1251.29</ele>
        <time>2016-06-13T09:55:59Z</time>
      </trkpt>
      <trkpt lat="46.56121" lon="6.10007">
        <ele>1252.25</ele>
        <time>2016-06-13T09:56:02Z</time>
      </trkpt>
      <trkpt lat="46.56119" lon="6.1">
        <ele>1252.74</ele>
        <time>2016-06-13T09:56:06Z</time>
      </trkpt>
      <trkpt lat="46.56116" lon="6.09986">
        <ele>1252.74</ele>
        <time>2016-06-13T09:56:16Z</time>
      </trkpt>
      <trkpt lat="46.56112" lon="6.09966">
        <ele>1251.29</ele>
        <time>2016-06-13T09:56:29Z</time>
      </trkpt>
      <trkpt lat="46.56106" lon="6.09952">
        <ele>1250.33</ele>
        <time>2016-06-13T09:56:40Z</time>
      </trkpt>
      <trkpt lat="46.56104" lon="6.09947">
        <ele>1251.29</ele>
        <time>2016-06-13T09:56:45Z</time>
      </trkpt>
      <trkpt lat="46.56089" lon="6.0993">
        <ele>1255.62</ele>
        <time>2016-06-13T09:57:00Z</time>
      </trkpt>
      <trkpt lat="46.56088" lon="6.09929">
        <ele>1255.14</ele>
        <time>2016-06-13T09:57:02Z</time>
      </trkpt>
      <trkpt lat="46.56084" lon="6.09929">
        <ele>1253.7</ele>
        <time>2016-06-13T09:57:11Z</time>
      </trkpt>
      <trkpt lat="46.56079" lon="6.09925">
        <ele>1251.77</ele>
        <time>2016-06-13T09:57:17Z</time>
      </trkpt>
      <trkpt lat="46.56074" lon="6.09925">
        <ele>1251.29</ele>
        <time>2016-06-13T09:57:19Z</time>
      </trkpt>
      <trkpt lat="46.56058" lon="6.09924">
        <ele>1249.37</ele>
        <time>2016-06-13T09:57:31Z</time>
      </trkpt>
      <trkpt lat="46.56039" lon="6.0992">
        <ele>1249.85</ele>
        <time>2016-06-13T09:57:47Z</time>
      </trkpt>
      <trkpt lat="46.56039" lon="6.09918">
        <ele>1249.85</ele>
        <time>2016-06-13T09:57:48Z</time>
      </trkpt>
      <trkpt lat="46.56029" lon="6.09905">
        <ele>1250.81</ele>
        <time>2016-06-13T09:57:57Z</time>
      </trkpt>
      <trkpt lat="46.56024" lon="6.09899">
        <ele>1252.74</ele>
        <time>2016-06-13T09:58:01Z</time>
      </trkpt>
      <trkpt lat="46.56017" lon="6.09889">
        <ele>1251.77</ele>
        <time>2016-06-13T09:58:08Z</time>
      </trkpt>
      <trkpt lat="46.56014" lon="6.09884">
        <ele>1250.81</ele>
        <time>2016-06-13T09:58:12Z</time>
      </trkpt>
      <trkpt lat="46.56013" lon="6.09881">
        <ele>1250.33</ele>
        <time>2016-06-13T09:58:14Z</time>
      </trkpt>
      <trkpt lat="46.56008" lon="6.0986">
        <ele>1251.77</ele>
        <time>2016-06-13T09:58:27Z</time>
      </trkpt>
      <trkpt lat="46.56002" lon="6.09845">
        <ele>1252.25</ele>
        <time>2016-06-13T09:58:36Z</time>
      </trkpt>
      <trkpt lat="46.56003" lon="6.09842">
        <ele>1252.74</ele>
        <time>2016-06-13T09:58:39Z</time>
      </trkpt>
      <trkpt lat="46.56002" lon="6.09826">
        <ele>1251.29</ele>
        <time>2016-06-13T09:58:49Z</time>
      </trkpt>
      <trkpt lat="46.55999" lon="6.09812">
        <ele>1249.85</ele>
        <time>2016-06-13T09:58:59Z</time>
      </trkpt>
      <trkpt lat="46.5599" lon="6.09792">
        <ele>1247.45</ele>
        <time>2016-06-13T09:59:12Z</time>
      </trkpt>
      <trkpt lat="46.55982" lon="6.09779">
        <ele>1244.08</ele>
        <time>2016-06-13T09:59:25Z</time>
      </trkpt>
      <trkpt lat="46.55972" lon="6.0977">
        <ele>1241.2</ele>
        <time>2016-06-13T09:59:36Z</time>
      </trkpt>
      <trkpt lat="46.5596" lon="6.09762">
        <ele>1236.87</ele>
        <time>2016-06-13T09:59:48Z</time>
      </trkpt>
      <trkpt lat="46.55951" lon="6.09758">
        <ele>1234.47</ele>
        <time>2016-06-13T09:59:56Z</time>
      </trkpt>
      <trkpt lat="46.55948" lon="6.09759">
        <ele>1233.51</ele>
        <time>2016-06-13T09:59:58Z</time>
      </trkpt>
      <trkpt lat="46.55946" lon="6.09759">
        <ele>1232.55</ele>
        <time>2016-06-13T10:00:00Z</time>
      </trkpt>
      <trkpt lat="46.55934" lon="6.09755">
        <ele>1229.66</ele>
        <time>2016-06-13T10:00:12Z</time>
      </trkpt>
      <trkpt lat="46.5592" lon="6.09757">
        <ele>1233.03</ele>
        <time>2016-06-13T10:00:22Z</time>
      </trkpt>
      <trkpt lat="46.55915" lon="6.09747">
        <ele>1229.18</ele>
        <time>2016-06-13T10:00:31Z</time>
      </trkpt>
      <trkpt lat="46.55914" lon="6.09742">
        <ele>1228.7</ele>
        <time>2016-06-13T10:00:34Z</time>
      </trkpt>
      <trkpt lat="46.55906" lon="6.09718">
        <ele>1233.03</ele>
        <time>2016-06-13T10:00:47Z</time>
      </trkpt>
      <trkpt lat="46.55903" lon="6.09707">
        <ele>1236.87</ele>
        <time>2016-06-13T10:00:53Z</time>
      </trkpt>
      <trkpt lat="46.55906" lon="6.09692">
        <ele>1234.95</ele>
        <time>2016-06-13T10:01:04Z</time>
      </trkpt>
      <trkpt lat="46.55907" lon="6.09674">
        <ele>1231.59</ele>
        <time>2016-06-13T10:01:16Z</time>
      </trkpt>
      <trkpt lat="46.55907" lon="6.09672">
        <ele>1231.59</ele>
        <time>2016-06-13T10:01:17Z</time>
      </trkpt>
      <trkpt lat="46.55909" lon="6.09643">
        <ele>1234.95</ele>
        <time>2016-06-13T10:01:30Z</time>
      </trkpt>
      <trkpt lat="46.55909" lon="6.09642">
        <ele>1235.43</ele>
        <time>2016-06-13T10:01:31Z</time>
      </trkpt>
      <trkpt lat="46.55908" lon="6.09627">
        <ele>1239.28</ele>
        <time>2016-06-13T10:01:40Z</time>
      </trkpt>
      <trkpt lat="46.55902" lon="6.09613">
        <ele>1240.72</ele>
        <time>2016-06-13T10:01:53Z</time>
      </trkpt>
      <trkpt lat="46.55901" lon="6.09611">
        <ele>1240.24</ele>
        <time>2016-06-13T10:01:55Z</time>
      </trkpt>
      <trkpt lat="46.55899" lon="6.09602">
        <ele>1239.28</ele>
        <time>2016-06-13T10:02:00Z</time>
      </trkpt>
      <trkpt lat="46.55895" lon="6.09599">
        <ele>1238.32</ele>
        <time>2016-06-13T10:02:03Z</time>
      </trkpt>
      <trkpt lat="46.55893" lon="6.09596">
        <ele>1237.35</ele>
        <time>2016-06-13T10:02:05Z</time>
      </trkpt>
      <trkpt lat="46.55884" lon="6.09583">
        <ele>1235.91</ele>
        <time>2016-06-13T10:02:17Z</time>
      </trkpt>
      <trkpt lat="46.55879" lon="6.09571">
        <ele>1237.83</ele>
        <time>2016-06-13T10:02:24Z</time>
      </trkpt>
      <trkpt lat="46.55875" lon="6.09559">
        <ele>1235.91</ele>
        <time>2016-06-13T10:02:35Z</time>
      </trkpt>
      <trkpt lat="46.55866" lon="6.09552">
        <ele>1235.91</ele>
        <time>2016-06-13T10:02:47Z</time>
      </trkpt>
      <trkpt lat="46.55865" lon="6.09552">
        <ele>1237.35</ele>
        <time>2016-06-13T10:03:02Z</time>
      </trkpt>
      <trkpt lat="46.55864" lon="6.09553">
        <ele>1239.28</ele>
        <time>2016-06-13T10:03:31Z</time>
      </trkpt>
      <trkpt lat="46.55864" lon="6.09551">
        <ele>1238.8</ele>
        <time>2016-06-13T10:03:49Z</time>
      </trkpt>
      <trkpt lat="46.55863" lon="6.0955">
        <ele>1240.24</ele>
        <time>2016-06-13T10:04:07Z</time>
      </trkpt>
      <trkpt lat="46.55861" lon="6.0955">
        <ele>1240.72</ele>
        <time>2016-06-13T10:04:24Z</time>
      </trkpt>
      <trkpt lat="46.55861" lon="6.0955">
        <ele>1241.2</ele>
        <time>2016-06-13T10:04:42Z</time>
      </trkpt>
      <trkpt lat="46.55862" lon="6.0955">
        <ele>1242.16</ele>
        <time>2016-06-13T10:05:06Z</time>
      </trkpt>
      <trkpt lat="46.55863" lon="6.09548">
        <ele>1241.68</ele>
        <time>2016-06-13T10:05:31Z</time>
      </trkpt>
      <trkpt lat="46.55863" lon="6.09548">
        <ele>1242.64</ele>
        <time>2016-06-13T10:05:57Z</time>
      </trkpt>
      <trkpt lat="46.55863" lon="6.09548">
        <ele>1242.16</ele>
        <time>2016-06-13T10:06:13Z</time>
      </trkpt>
      <trkpt lat="46.55861" lon="6.09549">
        <ele>1241.68</ele>
        <time>2016-06-13T10:06:20Z</time>
      </trkpt>
      <trkpt lat="46.55858" lon="6.09553">
        <ele>1240.72</ele>
        <time>2016-06-13T10:06:25Z</time>
      </trkpt>
      <trkpt lat="46.55846" lon="6.09563">
        <ele>1234.47</ele>
        <time>2016-06-13T10:06:39Z</time>
      </trkpt>
      <trkpt lat="46.55833" lon="6.09575">
        <ele>1229.66</ele>
        <time>2016-06-13T10:06:51Z</time>
      </trkpt>
      <trkpt lat="46.55818" lon="6.09586">
        <ele>1227.74</ele>
        <time>2016-06-13T10:07:02Z</time>
      </trkpt>
      <trkpt lat="46.55813" lon="6.09592">
        <ele>1227.26</ele>
        <time>2016-06-13T10:07:07Z</time>
      </trkpt>
      <trkpt lat="46.55806" lon="6.096">
        <ele>1230.14</ele>
        <time>2016-06-13T10:07:11Z</time>
      </trkpt>
      <trkpt lat="46.55797" lon="6.09604">
        <ele>1228.22</ele>
        <time>2016-06-13T10:07:21Z</time>
      </trkpt>
      <trkpt lat="46.5579" lon="6.09612">
        <ele>1224.86</ele>
        <time>2016-06-13T10:07:30Z</time>
      </trkpt>
      <trkpt lat="46.55778" lon="6.0962">
        <ele>1224.38</ele>
        <time>2016-06-13T10:07:38Z</time>
      </trkpt>
      <trkpt lat="46.55763" lon="6.09632">
        <ele>1224.86</ele>
        <time>2016-06-13T10:07:50Z</time>
      </trkpt>
      <trkpt lat="46.55764" lon="6.09634">
        <ele>1226.78</ele>
        <time>2016-06-13T10:08:10Z</time>
      </trkpt>
      <trkpt lat="46.55763" lon="6.09634">
        <ele>1227.26</ele>
        <time>2016-06-13T10:08:33Z</time>
      </trkpt>
      <trkpt lat="46.55763" lon="6.09634">
        <ele>1227.74</ele>
        <time>2016-06-13T10:08:57Z</time>
      </trkpt>
      <trkpt lat="46.55763" lon="6.09635">
        <ele>1227.74</ele>
        <time>2016-06-13T10:09:22Z</time>
      </trkpt>
      <trkpt lat="46.55763" lon="6.09636">
        <ele>1229.18</ele>
        <time>2016-06-13T10:09:43Z</time>
      </trkpt>
      <trkpt lat="46.55765" lon="6.09634">
        <ele>1232.07</ele>
        <time>2016-06-13T10:10:07Z</time>
      </trkpt>
      <trkpt lat="46.55769" lon="6.09634">
        <ele>1235.91</ele>
        <time>2016-06-13T10:10:30Z</time>
      </trkpt>
      <trkpt lat="46.55764" lon="6.09638">
        <ele>1236.87</ele>
        <time>2016-06-13T10:10:40Z</time>
      </trkpt>
      <trkpt lat="46.55763" lon="6.09639">
        <ele>1236.39</ele>
        <time>2016-06-13T10:10:42Z</time>
      </trkpt>
      <trkpt lat="46.55752" lon="6.09648">
        <ele>1233.03</ele>
        <time>2016-06-13T10:10:52Z</time>
      </trkpt>
      <trkpt lat="46.55741" lon="6.09663">
        <ele>1228.22</ele>
        <time>2016-06-13T10:11:03Z</time>
      </trkpt>
      <trkpt lat="46.55741" lon="6.09667">
        <ele>1227.74</ele>
        <time>2016-06-13T10:11:06Z</time>
      </trkpt>
      <trkpt lat="46.55743" lon="6.09674">
        <ele>1226.3</ele>
        <time>2016-06-13T10:11:10Z</time>
      </trkpt>
      <trkpt lat="46.55747" lon="6.09697">
        <ele>1221.97</ele>
        <time>2016-06-13T10:11:25Z</time>
      </trkpt>
      <trkpt lat="46.55746" lon="6.09707">
        <ele>1221.01</ele>
        <time>2016-06-13T10:11:32Z</time>
      </trkpt>
      <trkpt lat="46.55738" lon="6.09723">
        <ele>1220.53</ele>
        <time>2016-06-13T10:11:42Z</time>
      </trkpt>
      <trkpt lat="46.55735" lon="6.09726">
        <ele>1220.53</ele>
        <time>2016-06-13T10:11:45Z</time>
      </trkpt>
      <trkpt lat="46.55732" lon="6.09731">
        <ele>1221.01</ele>
        <time>2016-06-13T10:11:49Z</time>
      </trkpt>
      <trkpt lat="46.55721" lon="6.09741">
        <ele>1221.97</ele>
        <time>2016-06-13T10:12:01Z</time>
      </trkpt>
      <trkpt lat="46.55709" lon="6.09755">
        <ele>1222.45</ele>
        <time>2016-06-13T10:12:13Z</time>
      </trkpt>
      <trkpt lat="46.55692" lon="6.09769">
        <ele>1219.57</ele>
        <time>2016-06-13T10:12:26Z</time>
      </trkpt>
      <trkpt lat="46.55676" lon="6.09787">
        <ele>1218.13</ele>
        <time>2016-06-13T10:12:38Z</time>
      </trkpt>
      <trkpt lat="46.55674" lon="6.09791">
        <ele>1217.65</ele>
        <time>2016-06-13T10:12:41Z</time>
      </trkpt>
      <trkpt lat="46.55669" lon="6.09813">
        <ele>1214.28</ele>
        <time>2016-06-13T10:12:55Z</time>
      </trkpt>
      <trkpt lat="46.55674" lon="6.09846">
        <ele>1216.69</ele>
        <time>2016-06-13T10:13:07Z</time>
      </trkpt>
      <trkpt lat="46.55677" lon="6.09853">
        <ele>1217.65</ele>
        <time>2016-06-13T10:13:11Z</time>
      </trkpt>
      <trkpt lat="46.55689" lon="6.09871">
        <ele>1216.69</ele>
        <time>2016-06-13T10:13:24Z</time>
      </trkpt>
      <trkpt lat="46.5569" lon="6.09872">
        <ele>1216.69</ele>
        <time>2016-06-13T10:13:25Z</time>
      </trkpt>
      <trkpt lat="46.55691" lon="6.09877">
        <ele>1217.17</ele>
        <time>2016-06-13T10:13:28Z</time>
      </trkpt>
      <trkpt lat="46.55699" lon="6.0989">
        <ele>1219.09</ele>
        <time>2016-06-13T10:13:37Z</time>
      </trkpt>
      <trkpt lat="46.55704" lon="6.09901">
        <ele>1221.49</ele>
        <time>2016-06-13T10:13:52Z</time>
      </trkpt>
      <trkpt lat="46.55704" lon="6.099">
        <ele>1220.53</ele>
        <time>2016-06-13T10:14:18Z</time>
      </trkpt>
      <trkpt lat="46.55703" lon="6.09897">
        <ele>1220.05</ele>
        <time>2016-06-13T10:14:20Z</time>
      </trkpt>
      <trkpt lat="46.55699" lon="6.09889">
        <ele>1217.65</ele>
        <time>2016-06-13T10:14:29Z</time>
      </trkpt>
      <trkpt lat="46.55695" lon="6.09883">
        <ele>1217.65</ele>
        <time>2016-06-13T10:14:34Z</time>
      </trkpt>
      <trkpt lat="46.55682" lon="6.09861">
        <ele>1218.13</ele>
        <time>2016-06-13T10:14:48Z</time>
      </trkpt>
      <trkpt lat="46.55674" lon="6.09844">
        <ele>1219.09</ele>
        <time>2016-06-13T10:14:59Z</time>
      </trkpt>
      <trkpt lat="46.55672" lon="6.0984">
        <ele>1219.09</ele>
        <time>2016-06-13T10:15:02Z</time>
      </trkpt>
      <trkpt lat="46.5567" lon="6.09833">
        <ele>1219.57</ele>
        <time>2016-06-13T10:15:07Z</time>
      </trkpt>
      <trkpt lat="46.55668" lon="6.09817">
        <ele>1224.38</ele>
        <time>2016-06-13T10:15:19Z</time>
      </trkpt>
      <trkpt lat="46.55671" lon="6.09805">
        <ele>1225.34</ele>
        <time>2016-06-13T10:15:25Z</time>
      </trkpt>
      <trkpt lat="46.55683" lon="6.0978">
        <ele>1226.3</ele>
        <time>2016-06-13T10:15:39Z</time>
      </trkpt>
      <trkpt lat="46.55694" lon="6.09768">
        <ele>1226.78</ele>
        <time>2016-06-13T10:15:50Z</time>
      </trkpt>
      <trkpt lat="46.557" lon="6.09763">
        <ele>1227.26</ele>
        <time>2016-06-13T10:15:56Z</time>
      </trkpt>
      <trkpt lat="46.55709" lon="6.09753">
        <ele>1229.18</ele>
        <time>2016-06-13T10:16:05Z</time>
      </trkpt>
      <trkpt lat="46.55712" lon="6.09748">
        <ele>1229.18</ele>
        <time>2016-06-13T10:16:09Z</time>
      </trkpt>
      <trkpt lat="46.55715" lon="6.09745">
        <ele>1229.66</ele>
        <time>2016-06-13T10:16:12Z</time>
      </trkpt>
      <trkpt lat="46.55724" lon="6.09736">
        <ele>1230.14</ele>
        <time>2016-06-13T10:16:24Z</time>
      </trkpt>
      <trkpt lat="46.55737" lon="6.09725">
        <ele>1226.3</ele>
        <time>2016-06-13T10:16:35Z</time>
      </trkpt>
      <trkpt lat="46.5574" lon="6.09721">
        <ele>1226.3</ele>
        <time>2016-06-13T10:16:38Z</time>
      </trkpt>
      <trkpt lat="46.55745" lon="6.09708">
        <ele>1224.86</ele>
        <time>2016-06-13T10:16:47Z</time>
      </trkpt>
      <trkpt lat="46.55745" lon="6.097">
        <ele>1222.45</ele>
        <time>2016-06-13T10:16:52Z</time>
      </trkpt>
      <trkpt lat="46.55744" lon="6.0969">
        <ele>1221.97</ele>
        <time>2016-06-13T10:16:58Z</time>
      </trkpt>
      <trkpt lat="46.55739" lon="6.09676">
        <ele>1222.93</ele>
        <time>2016-06-13T10:17:06Z</time>
      </trkpt>
      <trkpt lat="46.55737" lon="6.09673">
        <ele>1222.93</ele>
        <time>2016-06-13T10:17:08Z</time>
      </trkpt>
      <trkpt lat="46.55744" lon="6.09651">
        <ele>1223.9</ele>
        <time>2016-06-13T10:17:21Z</time>
      </trkpt>
      <trkpt lat="46.5575" lon="6.09644">
        <ele>1225.34</ele>
        <time>2016-06-13T10:17:28Z</time>
      </trkpt>
      <trkpt lat="46.55762" lon="6.09633">
        <ele>1225.82</ele>
        <time>2016-06-13T10:17:43Z</time>
      </trkpt>
      <trkpt lat="46.55774" lon="6.09622">
        <ele>1227.74</ele>
        <time>2016-06-13T10:17:53Z</time>
      </trkpt>
      <trkpt lat="46.55784" lon="6.09613">
        <ele>1229.18</ele>
        <time>2016-06-13T10:18:06Z</time>
      </trkpt>
      <trkpt lat="46.55794" lon="6.09603">
        <ele>1227.26</ele>
        <time>2016-06-13T10:18:19Z</time>
      </trkpt>
      <trkpt lat="46.5581" lon="6.09589">
        <ele>1229.66</ele>
        <time>2016-06-13T10:18:30Z</time>
      </trkpt>
      <trkpt lat="46.55814" lon="6.09585">
        <ele>1229.66</ele>
        <time>2016-06-13T10:18:34Z</time>
      </trkpt>
      <trkpt lat="46.55816" lon="6.09583">
        <ele>1229.66</ele>
        <time>2016-06-13T10:18:36Z</time>
      </trkpt>
      <trkpt lat="46.55819" lon="6.09581">
        <ele>1229.66</ele>
        <time>2016-06-13T10:18:38Z</time>
      </trkpt>
      <trkpt lat="46.55823" lon="6.0958">
        <ele>1229.18</ele>
        <time>2016-06-13T10:18:41Z</time>
      </trkpt>
      <trkpt lat="46.55832" lon="6.0957">
        <ele>1229.66</ele>
        <time>2016-06-13T10:18:52Z</time>
      </trkpt>
      <trkpt lat="46.55839" lon="6.09564">
        <ele>1229.18</ele>
        <time>2016-06-13T10:18:58Z</time>
      </trkpt>
      <trkpt lat="46.55845" lon="6.0956">
        <ele>1229.18</ele>
        <time>2016-06-13T10:19:03Z</time>
      </trkpt>
      <trkpt lat="46.55851" lon="6.0954">
        <ele>1228.7</ele>
        <time>2016-06-13T10:19:16Z</time>
      </trkpt>
      <trkpt lat="46.55852" lon="6.09521">
        <ele>1231.59</ele>
        <time>2016-06-13T10:19:33Z</time>
      </trkpt>
      <trkpt lat="46.55842" lon="6.09502">
        <ele>1232.07</ele>
        <time>2016-06-13T10:19:42Z</time>
      </trkpt>
      <trkpt lat="46.55839" lon="6.09481">
        <ele>1232.55</ele>
        <time>2016-06-13T10:19:55Z</time>
      </trkpt>
      <trkpt lat="46.55839" lon="6.09479">
        <ele>1233.03</ele>
        <time>2016-06-13T10:19:56Z</time>
      </trkpt>
      <trkpt lat="46.55845" lon="6.09457">
        <ele>1234.95</ele>
        <time>2016-06-13T10:20:07Z</time>
      </trkpt>
      <trkpt lat="46.55847" lon="6.09449">
        <ele>1235.91</ele>
        <time>2016-06-13T10:20:12Z</time>
      </trkpt>
      <trkpt lat="46.55852" lon="6.09431">
        <ele>1233.99</ele>
        <time>2016-06-13T10:20:24Z</time>
      </trkpt>
      <trkpt lat="46.55854" lon="6.09408">
        <ele>1235.91</ele>
        <time>2016-06-13T10:20:35Z</time>
      </trkpt>
      <trkpt lat="46.55855" lon="6.09397">
        <ele>1233.51</ele>
        <time>2016-06-13T10:20:42Z</time>
      </trkpt>
      <trkpt lat="46.55854" lon="6.09381">
        <ele>1230.62</ele>
        <time>2016-06-13T10:20:54Z</time>
      </trkpt>
      <trkpt lat="46.55855" lon="6.0938">
        <ele>1230.14</ele>
        <time>2016-06-13T10:20:56Z</time>
      </trkpt>
      <trkpt lat="46.55859" lon="6.09363">
        <ele>1225.34</ele>
        <time>2016-06-13T10:21:08Z</time>
      </trkpt>
      <trkpt lat="46.5586" lon="6.09356">
        <ele>1227.74</ele>
        <time>2016-06-13T10:21:19Z</time>
      </trkpt>
      <trkpt lat="46.5586" lon="6.09351">
        <ele>1226.78</ele>
        <time>2016-06-13T10:21:22Z</time>
      </trkpt>
      <trkpt lat="46.55863" lon="6.0932">
        <ele>1226.78</ele>
        <time>2016-06-13T10:21:33Z</time>
      </trkpt>
      <trkpt lat="46.55864" lon="6.09304">
        <ele>1222.45</ele>
        <time>2016-06-13T10:21:44Z</time>
      </trkpt>
      <trkpt lat="46.55864" lon="6.09283">
        <ele>1221.01</ele>
        <time>2016-06-13T10:21:55Z</time>
      </trkpt>
      <trkpt lat="46.55863" lon="6.09269">
        <ele>1218.13</ele>
        <time>2016-06-13T10:22:04Z</time>
      </trkpt>
      <trkpt lat="46.55862" lon="6.09251">
        <ele>1216.21</ele>
        <time>2016-06-13T10:22:14Z</time>
      </trkpt>
      <trkpt lat="46.55859" lon="6.0923">
        <ele>1211.88</ele>
        <time>2016-06-13T10:22:27Z</time>
      </trkpt>
      <trkpt lat="46.55859" lon="6.09212">
        <ele>1210.44</ele>
        <time>2016-06-13T10:22:38Z</time>
      </trkpt>
      <trkpt lat="46.55859" lon="6.09205">
        <ele>1210.92</ele>
        <time>2016-06-13T10:22:42Z</time>
      </trkpt>
      <trkpt lat="46.55859" lon="6.09192">
        <ele>1210.92</ele>
        <time>2016-06-13T10:22:49Z</time>
      </trkpt>
      <trkpt lat="46.55857" lon="6.09178">
        <ele>1212.36</ele>
        <time>2016-06-13T10:22:59Z</time>
      </trkpt>
      <trkpt lat="46.55854" lon="6.09169">
        <ele>1212.36</ele>
        <time>2016-06-13T10:23:04Z</time>
      </trkpt>
      <trkpt lat="46.55855" lon="6.09145">
        <ele>1212.84</ele>
        <time>2016-06-13T10:23:15Z</time>
      </trkpt>
      <trkpt lat="46.55854" lon="6.0913">
        <ele>1212.84</ele>
        <time>2016-06-13T10:23:23Z</time>
      </trkpt>
      <trkpt lat="46.55855" lon="6.0911">
        <ele>1211.4</ele>
        <time>2016-06-13T10:23:33Z</time>
      </trkpt>
      <trkpt lat="46.5586" lon="6.09101">
        <ele>1211.88</ele>
        <time>2016-06-13T10:23:38Z</time>
      </trkpt>
      <trkpt lat="46.55863" lon="6.09093">
        <ele>1212.36</ele>
        <time>2016-06-13T10:23:43Z</time>
      </trkpt>
      <trkpt lat="46.55863" lon="6.09087">
        <ele>1212.84</ele>
        <time>2016-06-13T10:23:46Z</time>
      </trkpt>
      <trkpt lat="46.55863" lon="6.09081">
        <ele>1214.76</ele>
        <time>2016-06-13T10:23:49Z</time>
      </trkpt>
      <trkpt lat="46.55863" lon="6.09075">
        <ele>1216.21</ele>
        <time>2016-06-13T10:23:52Z</time>
      </trkpt>
      <trkpt lat="46.55859" lon="6.09058">
        <ele>1222.45</ele>
        <time>2016-06-13T10:24:04Z</time>
      </trkpt>
      <trkpt lat="46.55855" lon="6.09048">
        <ele>1235.43</ele>
        <time>2016-06-13T10:24:11Z</time>
      </trkpt>
      <trkpt lat="46.55832" lon="6.09043">
        <ele>1242.64</ele>
        <time>2016-06-13T10:24:25Z</time>
      </trkpt>
      <trkpt lat="46.55815" lon="6.09048">
        <ele>1240.24</ele>
        <time>2016-06-13T10:24:40Z</time>
      </trkpt>
      <trkpt lat="46.55812" lon="6.09053">
        <ele>1238.8</ele>
        <time>2016-06-13T10:24:46Z</time>
      </trkpt>
      <trkpt lat="46.55807" lon="6.09062">
        <ele>1239.28</ele>
        <time>2016-06-13T10:24:53Z</time>
      </trkpt>
      <trkpt lat="46.55804" lon="6.09066">
        <ele>1239.28</ele>
        <time>2016-06-13T10:24:56Z</time>
      </trkpt>
      <trkpt lat="46.55801" lon="6.09073">
        <ele>1238.8</ele>
        <time>2016-06-13T10:25:01Z</time>
      </trkpt>
      <trkpt lat="46.55788" lon="6.09086">
        <ele>1238.8</ele>
        <time>2016-06-13T10:25:14Z</time>
      </trkpt>
      <trkpt lat="46.55781" lon="6.09087">
        <ele>1235.43</ele>
        <time>2016-06-13T10:25:24Z</time>
      </trkpt>
      <trkpt lat="46.5577" lon="6.09077">
        <ele>1233.51</ele>
        <time>2016-06-13T10:25:35Z</time>
      </trkpt>
      <trkpt lat="46.55762" lon="6.09069">
        <ele>1236.39</ele>
        <time>2016-06-13T10:25:40Z</time>
      </trkpt>
      <trkpt lat="46.55754" lon="6.09048">
        <ele>1238.8</ele>
        <time>2016-06-13T10:25:52Z</time>
      </trkpt>
      <trkpt lat="46.55752" lon="6.09042">
        <ele>1239.28</ele>
        <time>2016-06-13T10:25:55Z</time>
      </trkpt>
      <trkpt lat="46.55752" lon="6.09036">
        <ele>1240.24</ele>
        <time>2016-06-13T10:25:58Z</time>
      </trkpt>
      <trkpt lat="46.55743" lon="6.09013">
        <ele>1243.6</ele>
        <time>2016-06-13T10:26:11Z</time>
      </trkpt>
      <trkpt lat="46.55742" lon="6.09007">
        <ele>1244.56</ele>
        <time>2016-06-13T10:26:14Z</time>
      </trkpt>
      <trkpt lat="46.5573" lon="6.08995">
        <ele>1248.41</ele>
        <time>2016-06-13T10:26:25Z</time>
      </trkpt>
      <trkpt lat="46.55717" lon="6.08996">
        <ele>1248.41</ele>
        <time>2016-06-13T10:26:37Z</time>
      </trkpt>
      <trkpt lat="46.55703" lon="6.09007">
        <ele>1249.85</ele>
        <time>2016-06-13T10:26:49Z</time>
      </trkpt>
      <trkpt lat="46.55689" lon="6.09014">
        <ele>1247.93</ele>
        <time>2016-06-13T10:27:04Z</time>
      </trkpt>
      <trkpt lat="46.55684" lon="6.09013">
        <ele>1246.01</ele>
        <time>2016-06-13T10:27:09Z</time>
      </trkpt>
      <trkpt lat="46.55665" lon="6.09008">
        <ele>1241.2</ele>
        <time>2016-06-13T10:27:23Z</time>
      </trkpt>
      <trkpt lat="46.55652" lon="6.09005">
        <ele>1235.43</ele>
        <time>2016-06-13T10:27:35Z</time>
      </trkpt>
      <trkpt lat="46.55633" lon="6.09006">
        <ele>1233.03</ele>
        <time>2016-06-13T10:27:47Z</time>
      </trkpt>
      <trkpt lat="46.55621" lon="6.08999">
        <ele>1231.59</ele>
        <time>2016-06-13T10:27:58Z</time>
      </trkpt>
      <trkpt lat="46.55611" lon="6.08986">
        <ele>1232.55</ele>
        <time>2016-06-13T10:28:06Z</time>
      </trkpt>
      <trkpt lat="46.556" lon="6.08971">
        <ele>1233.03</ele>
        <time>2016-06-13T10:28:18Z</time>
      </trkpt>
      <trkpt lat="46.55591" lon="6.0897">
        <ele>1231.11</ele>
        <time>2016-06-13T10:28:32Z</time>
      </trkpt>
      <trkpt lat="46.55588" lon="6.08971">
        <ele>1230.62</ele>
        <time>2016-06-13T10:28:34Z</time>
      </trkpt>
      <trkpt lat="46.55572" lon="6.08991">
        <ele>1222.93</ele>
        <time>2016-06-13T10:28:48Z</time>
      </trkpt>
      <trkpt lat="46.55559" lon="6.08998">
        <ele>1217.17</ele>
        <time>2016-06-13T10:29:01Z</time>
      </trkpt>
      <trkpt lat="46.55551" lon="6.09001">
        <ele>1208.51</ele>
        <time>2016-06-13T10:29:13Z</time>
      </trkpt>
      <trkpt lat="46.55535" lon="6.09004">
        <ele>1202.75</ele>
        <time>2016-06-13T10:29:25Z</time>
      </trkpt>
      <trkpt lat="46.5553" lon="6.09003">
        <ele>1201.79</ele>
        <time>2016-06-13T10:29:28Z</time>
      </trkpt>
      <trkpt lat="46.55502" lon="6.08994">
        <ele>1207.55</ele>
        <time>2016-06-13T10:29:44Z</time>
      </trkpt>
      <trkpt lat="46.55496" lon="6.08992">
        <ele>1205.63</ele>
        <time>2016-06-13T10:29:49Z</time>
      </trkpt>
      <trkpt lat="46.55479" lon="6.08983">
        <ele>1211.4</ele>
        <time>2016-06-13T10:30:00Z</time>
      </trkpt>
      <trkpt lat="46.55476" lon="6.08982">
        <ele>1211.88</ele>
        <time>2016-06-13T10:30:02Z</time>
      </trkpt>
      <trkpt lat="46.5546" lon="6.08963">
        <ele>1215.72</ele>
        <time>2016-06-13T10:30:15Z</time>
      </trkpt>
      <trkpt lat="46.55459" lon="6.08962">
        <ele>1215.72</ele>
        <time>2016-06-13T10:30:16Z</time>
      </trkpt>
      <trkpt lat="46.55452" lon="6.0895">
        <ele>1218.61</ele>
        <time>2016-06-13T10:30:22Z</time>
      </trkpt>
      <trkpt lat="46.55447" lon="6.08941">
        <ele>1220.05</ele>
        <time>2016-06-13T10:30:28Z</time>
      </trkpt>
      <trkpt lat="46.55449" lon="6.08934">
        <ele>1220.53</ele>
        <time>2016-06-13T10:30:33Z</time>
      </trkpt>
      <trkpt lat="46.55447" lon="6.08925">
        <ele>1221.49</ele>
        <time>2016-06-13T10:30:37Z</time>
      </trkpt>
      <trkpt lat="46.55447" lon="6.0892">
        <ele>1221.49</ele>
        <time>2016-06-13T10:30:39Z</time>
      </trkpt>
      <trkpt lat="46.55441" lon="6.08904">
        <ele>1224.38</ele>
        <time>2016-06-13T10:30:49Z</time>
      </trkpt>
      <trkpt lat="46.55437" lon="6.08887">
        <ele>1226.3</ele>
        <time>2016-06-13T10:31:00Z</time>
      </trkpt>
      <trkpt lat="46.55435" lon="6.08875">
        <ele>1227.26</ele>
        <time>2016-06-13T10:31:06Z</time>
      </trkpt>
      <trkpt lat="46.55435" lon="6.08869">
        <ele>1227.74</ele>
        <time>2016-06-13T10:31:09Z</time>
      </trkpt>
      <trkpt lat="46.55439" lon="6.08852">
        <ele>1230.62</ele>
        <time>2016-06-13T10:31:17Z</time>
      </trkpt>
      <trkpt lat="46.55444" lon="6.08847">
        <ele>1231.11</ele>
        <time>2016-06-13T10:31:23Z</time>
      </trkpt>
      <trkpt lat="46.55447" lon="6.08844">
        <ele>1231.59</ele>
        <time>2016-06-13T10:31:26Z</time>
      </trkpt>
      <trkpt lat="46.55452" lon="6.08839">
        <ele>1233.51</ele>
        <time>2016-06-13T10:31:29Z</time>
      </trkpt>
      <trkpt lat="46.55456" lon="6.08836">
        <ele>1234.95</ele>
        <time>2016-06-13T10:31:32Z</time>
      </trkpt>
      <trkpt lat="46.55459" lon="6.08829">
        <ele>1234.95</ele>
        <time>2016-06-13T10:31:36Z</time>
      </trkpt>
      <trkpt lat="46.55461" lon="6.08828">
        <ele>1234.95</ele>
        <time>2016-06-13T10:31:38Z</time>
      </trkpt>
      <trkpt lat="46.55466" lon="6.08815">
        <ele>1231.59</ele>
        <time>2016-06-13T10:31:48Z</time>
      </trkpt>
      <trkpt lat="46.55469" lon="6.08795">
        <ele>1224.86</ele>
        <time>2016-06-13T10:32:01Z</time>
      </trkpt>
      <trkpt lat="46.55469" lon="6.08789">
        <ele>1222.93</ele>
        <time>2016-06-13T10:32:05Z</time>
      </trkpt>
      <trkpt lat="46.55469" lon="6.08781">
        <ele>1221.01</ele>
        <time>2016-06-13T10:32:09Z</time>
      </trkpt>
      <trkpt lat="46.55469" lon="6.08762">
        <ele>1217.17</ele>
        <time>2016-06-13T10:32:20Z</time>
      </trkpt>
      <trkpt lat="46.55469" lon="6.08758">
        <ele>1216.69</ele>
        <time>2016-06-13T10:32:22Z</time>
      </trkpt>
      <trkpt lat="46.5547" lon="6.08747">
        <ele>1216.21</ele>
        <time>2016-06-13T10:32:28Z</time>
      </trkpt>
      <trkpt lat="46.5547" lon="6.08737">
        <ele>1217.65</ele>
        <time>2016-06-13T10:32:34Z</time>
      </trkpt>
      <trkpt lat="46.5547" lon="6.08732">
        <ele>1217.65</ele>
        <time>2016-06-13T10:32:37Z</time>
      </trkpt>
      <trkpt lat="46.55464" lon="6.08708">
        <ele>1215.24</ele>
        <time>2016-06-13T10:32:52Z</time>
      </trkpt>
      <trkpt lat="46.55453" lon="6.08692">
        <ele>1215.24</ele>
        <time>2016-06-13T10:33:04Z</time>
      </trkpt>
      <trkpt lat="46.55451" lon="6.08688">
        <ele>1215.72</ele>
        <time>2016-06-13T10:33:06Z</time>
      </trkpt>
      <trkpt lat="46.55445" lon="6.08666">
        <ele>1214.28</ele>
        <time>2016-06-13T10:33:20Z</time>
      </trkpt>
      <trkpt lat="46.55444" lon="6.08651">
        <ele>1212.84</ele>
        <time>2016-06-13T10:33:28Z</time>
      </trkpt>
      <trkpt lat="46.55443" lon="6.08646">
        <ele>1213.8</ele>
        <time>2016-06-13T10:33:30Z</time>
      </trkpt>
      <trkpt lat="46.55437" lon="6.08627">
        <ele>1217.65</ele>
        <time>2016-06-13T10:33:41Z</time>
      </trkpt>
      <trkpt lat="46.5543" lon="6.08613">
        <ele>1213.8</ele>
        <time>2016-06-13T10:33:53Z</time>
      </trkpt>
      <trkpt lat="46.55419" lon="6.08606">
        <ele>1215.24</ele>
        <time>2016-06-13T10:34:07Z</time>
      </trkpt>
      <trkpt lat="46.55411" lon="6.08616">
        <ele>1213.32</ele>
        <time>2016-06-13T10:34:18Z</time>
      </trkpt>
      <trkpt lat="46.55402" lon="6.08623">
        <ele>1212.36</ele>
        <time>2016-06-13T10:34:24Z</time>
      </trkpt>
      <trkpt lat="46.55391" lon="6.08642">
        <ele>1211.88</ele>
        <time>2016-06-13T10:34:36Z</time>
      </trkpt>
      <trkpt lat="46.55388" lon="6.08649">
        <ele>1213.32</ele>
        <time>2016-06-13T10:34:40Z</time>
      </trkpt>
      <trkpt lat="46.55378" lon="6.08659">
        <ele>1213.32</ele>
        <time>2016-06-13T10:34:50Z</time>
      </trkpt>
      <trkpt lat="46.55366" lon="6.08668">
        <ele>1210.92</ele>
        <time>2016-06-13T10:35:04Z</time>
      </trkpt>
      <trkpt lat="46.55351" lon="6.08682">
        <ele>1209.96</ele>
        <time>2016-06-13T10:35:16Z</time>
      </trkpt>
      <trkpt lat="46.55339" lon="6.08701">
        <ele>1209.96</ele>
        <time>2016-06-13T10:35:30Z</time>
      </trkpt>
      <trkpt lat="46.55331" lon="6.08708">
        <ele>1209.96</ele>
        <time>2016-06-13T10:35:40Z</time>
      </trkpt>
      <trkpt lat="46.55329" lon="6.0871">
        <ele>1209.48</ele>
        <time>2016-06-13T10:35:42Z</time>
      </trkpt>
      <trkpt lat="46.55326" lon="6.08712">
        <ele>1209.48</ele>
        <time>2016-06-13T10:35:45Z</time>
      </trkpt>
      <trkpt lat="46.55313" lon="6.08718">
        <ele>1209.48</ele>
        <time>2016-06-13T10:35:56Z</time>
      </trkpt>
      <trkpt lat="46.55303" lon="6.08725">
        <ele>1207.07</ele>
        <time>2016-06-13T10:36:06Z</time>
      </trkpt>
      <trkpt lat="46.55299" lon="6.08728">
        <ele>1206.11</ele>
        <time>2016-06-13T10:36:09Z</time>
      </trkpt>
      <trkpt lat="46.55295" lon="6.0873">
        <ele>1205.63</ele>
        <time>2016-06-13T10:36:12Z</time>
      </trkpt>
      <trkpt lat="46.5529" lon="6.08735">
        <ele>1206.11</ele>
        <time>2016-06-13T10:36:16Z</time>
      </trkpt>
      <trkpt lat="46.55279" lon="6.08742">
        <ele>1210.44</ele>
        <time>2016-06-13T10:36:22Z</time>
      </trkpt>
      <trkpt lat="46.55275" lon="6.08745">
        <ele>1212.36</ele>
        <time>2016-06-13T10:36:25Z</time>
      </trkpt>
      <trkpt lat="46.55268" lon="6.0875">
        <ele>1214.76</ele>
        <time>2016-06-13T10:36:31Z</time>
      </trkpt>
      <trkpt lat="46.55265" lon="6.0875">
        <ele>1214.28</ele>
        <time>2016-06-13T10:36:33Z</time>
      </trkpt>
      <trkpt lat="46.55262" lon="6.08752">
        <ele>1213.8</ele>
        <time>2016-06-13T10:36:36Z</time>
      </trkpt>
      <trkpt lat="46.55253" lon="6.08755">
        <ele>1209</ele>
        <time>2016-06-13T10:36:46Z</time>
      </trkpt>
      <trkpt lat="46.55244" lon="6.08773">
        <ele>1202.75</ele>
        <time>2016-06-13T10:36:58Z</time>
      </trkpt>
      <trkpt lat="46.55234" lon="6.08783">
        <ele>1194.58</ele>
        <time>2016-06-13T10:37:09Z</time>
      </trkpt>
      <trkpt lat="46.55227" lon="6.0879">
        <ele>1189.77</ele>
        <time>2016-06-13T10:37:20Z</time>
      </trkpt>
      <trkpt lat="46.55213" lon="6.08795">
        <ele>1183.52</ele>
        <time>2016-06-13T10:37:31Z</time>
      </trkpt>
      <trkpt lat="46.55205" lon="6.08793">
        <ele>1188.33</ele>
        <time>2016-06-13T10:37:35Z</time>
      </trkpt>
      <trkpt lat="46.55193" lon="6.08793">
        <ele>1195.54</ele>
        <time>2016-06-13T10:37:42Z</time>
      </trkpt>
      <trkpt lat="46.55178" lon="6.08793">
        <ele>1200.34</ele>
        <time>2016-06-13T10:37:53Z</time>
      </trkpt>
      <trkpt lat="46.55175" lon="6.08792">
        <ele>1200.82</ele>
        <time>2016-06-13T10:37:55Z</time>
      </trkpt>
      <trkpt lat="46.55168" lon="6.08789">
        <ele>1202.27</ele>
        <time>2016-06-13T10:38:02Z</time>
      </trkpt>
      <trkpt lat="46.55148" lon="6.08791">
        <ele>1210.44</ele>
        <time>2016-06-13T10:38:15Z</time>
      </trkpt>
      <trkpt lat="46.5513" lon="6.088">
        <ele>1213.8</ele>
        <time>2016-06-13T10:38:27Z</time>
      </trkpt>
      <trkpt lat="46.55122" lon="6.08804">
        <ele>1213.8</ele>
        <time>2016-06-13T10:38:33Z</time>
      </trkpt>
      <trkpt lat="46.55101" lon="6.08817">
        <ele>1214.76</ele>
        <time>2016-06-13T10:38:48Z</time>
      </trkpt>
      <trkpt lat="46.55086" lon="6.08825">
        <ele>1217.17</ele>
        <time>2016-06-13T10:39:01Z</time>
      </trkpt>
      <trkpt lat="46.55072" lon="6.08828">
        <ele>1219.57</ele>
        <time>2016-06-13T10:39:14Z</time>
      </trkpt>
      <trkpt lat="46.55064" lon="6.08828">
        <ele>1219.09</ele>
        <time>2016-06-13T10:39:21Z</time>
      </trkpt>
      <trkpt lat="46.55043" lon="6.08831">
        <ele>1217.17</ele>
        <time>2016-06-13T10:39:36Z</time>
      </trkpt>
      <trkpt lat="46.55028" lon="6.08842">
        <ele>1217.17</ele>
        <time>2016-06-13T10:39:49Z</time>
      </trkpt>
      <trkpt lat="46.55022" lon="6.08845">
        <ele>1217.65</ele>
        <time>2016-06-13T10:39:54Z</time>
      </trkpt>
      <trkpt lat="46.55016" lon="6.08848">
        <ele>1219.57</ele>
        <time>2016-06-13T10:39:58Z</time>
      </trkpt>
      <trkpt lat="46.55002" lon="6.08864">
        <ele>1221.97</ele>
        <time>2016-06-13T10:40:13Z</time>
      </trkpt>
      <trkpt lat="46.54994" lon="6.08873">
        <ele>1221.97</ele>
        <time>2016-06-13T10:40:25Z</time>
      </trkpt>
      <trkpt lat="46.54989" lon="6.08876">
        <ele>1222.93</ele>
        <time>2016-06-13T10:40:31Z</time>
      </trkpt>
      <trkpt lat="46.54981" lon="6.0888">
        <ele>1222.45</ele>
        <time>2016-06-13T10:40:38Z</time>
      </trkpt>
      <trkpt lat="46.54973" lon="6.08891">
        <ele>1221.97</ele>
        <time>2016-06-13T10:40:48Z</time>
      </trkpt>
      <trkpt lat="46.54958" lon="6.08908">
        <ele>1222.45</ele>
        <time>2016-06-13T10:41:01Z</time>
      </trkpt>
      <trkpt lat="46.54951" lon="6.08914">
        <ele>1222.93</ele>
        <time>2016-06-13T10:41:08Z</time>
      </trkpt>
      <trkpt lat="46.5495" lon="6.08917">
        <ele>1222.45</ele>
        <time>2016-06-13T10:41:10Z</time>
      </trkpt>
      <trkpt lat="46.54934" lon="6.08927">
        <ele>1221.97</ele>
        <time>2016-06-13T10:41:23Z</time>
      </trkpt>
      <trkpt lat="46.5492" lon="6.08937">
        <ele>1221.49</ele>
        <time>2016-06-13T10:41:36Z</time>
      </trkpt>
      <trkpt lat="46.54905" lon="6.08949">
        <ele>1218.13</ele>
        <time>2016-06-13T10:41:50Z</time>
      </trkpt>
      <trkpt lat="46.54892" lon="6.08961">
        <ele>1218.13</ele>
        <time>2016-06-13T10:42:03Z</time>
      </trkpt>
      <trkpt lat="46.54883" lon="6.08969">
        <ele>1220.53</ele>
        <time>2016-06-13T10:42:14Z</time>
      </trkpt>
      <trkpt lat="46.54875" lon="6.08983">
        <ele>1223.42</ele>
        <time>2016-06-13T10:42:24Z</time>
      </trkpt>
      <trkpt lat="46.5487" lon="6.08996">
        <ele>1226.3</ele>
        <time>2016-06-13T10:42:32Z</time>
      </trkpt>
      <trkpt lat="46.54863" lon="6.09009">
        <ele>1228.7</ele>
        <time>2016-06-13T10:42:44Z</time>
      </trkpt>
      <trkpt lat="46.54859" lon="6.09018">
        <ele>1229.18</ele>
        <time>2016-06-13T10:42:51Z</time>
      </trkpt>
      <trkpt lat="46.54849" lon="6.0903">
        <ele>1229.18</ele>
        <time>2016-06-13T10:43:05Z</time>
      </trkpt>
      <trkpt lat="46.54837" lon="6.09039">
        <ele>1227.74</ele>
        <time>2016-06-13T10:43:18Z</time>
      </trkpt>
      <trkpt lat="46.54827" lon="6.09059">
        <ele>1231.11</ele>
        <time>2016-06-13T10:43:32Z</time>
      </trkpt>
      <trkpt lat="46.54819" lon="6.09076">
        <ele>1233.51</ele>
        <time>2016-06-13T10:43:44Z</time>
      </trkpt>
      <trkpt lat="46.54808" lon="6.09087">
        <ele>1234.47</ele>
        <time>2016-06-13T10:43:56Z</time>
      </trkpt>
      <trkpt lat="46.54801" lon="6.09099">
        <ele>1233.99</ele>
        <time>2016-06-13T10:44:06Z</time>
      </trkpt>
      <trkpt lat="46.54797" lon="6.09104">
        <ele>1232.55</ele>
        <time>2016-06-13T10:44:11Z</time>
      </trkpt>
      <trkpt lat="46.54791" lon="6.0911">
        <ele>1230.62</ele>
        <time>2016-06-13T10:44:18Z</time>
      </trkpt>
      <trkpt lat="46.54787" lon="6.09121">
        <ele>1226.3</ele>
        <time>2016-06-13T10:44:28Z</time>
      </trkpt>
      <trkpt lat="46.54782" lon="6.09125">
        <ele>1224.86</ele>
        <time>2016-06-13T10:44:33Z</time>
      </trkpt>
      <trkpt lat="46.54777" lon="6.09129">
        <ele>1224.38</ele>
        <time>2016-06-13T10:44:37Z</time>
      </trkpt>
      <trkpt lat="46.54774" lon="6.09134">
        <ele>1223.42</ele>
        <time>2016-06-13T10:44:41Z</time>
      </trkpt>
      <trkpt lat="46.54758" lon="6.09145">
        <ele>1218.13</ele>
        <time>2016-06-13T10:44:58Z</time>
      </trkpt>
      <trkpt lat="46.54744" lon="6.09149">
        <ele>1221.97</ele>
        <time>2016-06-13T10:45:11Z</time>
      </trkpt>
      <trkpt lat="46.54731" lon="6.09156">
        <ele>1223.9</ele>
        <time>2016-06-13T10:45:25Z</time>
      </trkpt>
      <trkpt lat="46.54723" lon="6.09162">
        <ele>1221.49</ele>
        <time>2016-06-13T10:45:36Z</time>
      </trkpt>
      <trkpt lat="46.54722" lon="6.09163">
        <ele>1221.01</ele>
        <time>2016-06-13T10:45:37Z</time>
      </trkpt>
      <trkpt lat="46.54707" lon="6.09179">
        <ele>1226.78</ele>
        <time>2016-06-13T10:45:51Z</time>
      </trkpt>
      <trkpt lat="46.54695" lon="6.09197">
        <ele>1234.47</ele>
        <time>2016-06-13T10:46:05Z</time>
      </trkpt>
      <trkpt lat="46.54685" lon="6.09218">
        <ele>1239.76</ele>
        <time>2016-06-13T10:46:18Z</time>
      </trkpt>
      <trkpt lat="46.54672" lon="6.09236">
        <ele>1241.2</ele>
        <time>2016-06-13T10:46:32Z</time>
      </trkpt>
      <trkpt lat="46.5466" lon="6.09246">
        <ele>1242.16</ele>
        <time>2016-06-13T10:46:46Z</time>
      </trkpt>
      <trkpt lat="46.54652" lon="6.09251">
        <ele>1242.16</ele>
        <time>2016-06-13T10:46:53Z</time>
      </trkpt>
      <trkpt lat="46.54648" lon="6.09256">
        <ele>1241.68</ele>
        <time>2016-06-13T10:46:57Z</time>
      </trkpt>
      <trkpt lat="46.54632" lon="6.0927">
        <ele>1242.16</ele>
        <time>2016-06-13T10:47:12Z</time>
      </trkpt>
      <trkpt lat="46.54619" lon="6.09294">
        <ele>1241.2</ele>
        <time>2016-06-13T10:47:28Z</time>
      </trkpt>
      <trkpt lat="46.54613" lon="6.09312">
        <ele>1240.24</ele>
        <time>2016-06-13T10:47:40Z</time>
      </trkpt>
      <trkpt lat="46.5461" lon="6.09332">
        <ele>1235.43</ele>
        <time>2016-06-13T10:47:54Z</time>
      </trkpt>
      <trkpt lat="46.54603" lon="6.09348">
        <ele>1234.95</ele>
        <time>2016-06-13T10:48:07Z</time>
      </trkpt>
      <trkpt lat="46.54594" lon="6.09369">
        <ele>1235.91</ele>
        <time>2016-06-13T10:48:20Z</time>
      </trkpt>
      <trkpt lat="46.54584" lon="6.09382">
        <ele>1235.91</ele>
        <time>2016-06-13T10:48:31Z</time>
      </trkpt>
      <trkpt lat="46.54581" lon="6.09387">
        <ele>1235.43</ele>
        <time>2016-06-13T10:48:35Z</time>
      </trkpt>
      <trkpt lat="46.5458" lon="6.09389">
        <ele>1235.43</ele>
        <time>2016-06-13T10:48:37Z</time>
      </trkpt>
      <trkpt lat="46.54565" lon="6.09404">
        <ele>1234.47</ele>
        <time>2016-06-13T10:48:52Z</time>
      </trkpt>
      <trkpt lat="46.54552" lon="6.09414">
        <ele>1232.55</ele>
        <time>2016-06-13T10:49:05Z</time>
      </trkpt>
      <trkpt lat="46.54539" lon="6.09423">
        <ele>1229.66</ele>
        <time>2016-06-13T10:49:18Z</time>
      </trkpt>
      <trkpt lat="46.54531" lon="6.09424">
        <ele>1227.26</ele>
        <time>2016-06-13T10:49:29Z</time>
      </trkpt>
      <trkpt lat="46.54521" lon="6.09434">
        <ele>1225.34</ele>
        <time>2016-06-13T10:49:39Z</time>
      </trkpt>
      <trkpt lat="46.54517" lon="6.09445">
        <ele>1227.26</ele>
        <time>2016-06-13T10:49:50Z</time>
      </trkpt>
      <trkpt lat="46.54517" lon="6.09445">
        <ele>1227.26</ele>
        <time>2016-06-13T10:50:15Z</time>
      </trkpt>
      <trkpt lat="46.54517" lon="6.09445">
        <ele>1226.78</ele>
        <time>2016-06-13T10:50:38Z</time>
      </trkpt>
      <trkpt lat="46.54516" lon="6.09445">
        <ele>1226.3</ele>
        <time>2016-06-13T10:51:02Z</time>
      </trkpt>
      <trkpt lat="46.54515" lon="6.09444">
        <ele>1225.82</ele>
        <time>2016-06-13T10:51:32Z</time>
      </trkpt>
      <trkpt lat="46.54515" lon="6.09444">
        <ele>1225.34</ele>
        <time>2016-06-13T10:51:56Z</time>
      </trkpt>
      <trkpt lat="46.54515" lon="6.09444">
        <ele>1225.34</ele>
        <time>2016-06-13T10:52:22Z</time>
      </trkpt>
      <trkpt lat="46.54514" lon="6.09444">
        <ele>1224.86</ele>
        <time>2016-06-13T10:52:46Z</time>
      </trkpt>
      <trkpt lat="46.54514" lon="6.09445">
        <ele>1224.86</ele>
        <time>2016-06-13T10:53:12Z</time>
      </trkpt>
      <trkpt lat="46.54514" lon="6.09444">
        <ele>1224.86</ele>
        <time>2016-06-13T10:53:37Z</time>
      </trkpt>
      <trkpt lat="46.54513" lon="6.09444">
        <ele>1224.38</ele>
        <time>2016-06-13T10:54:02Z</time>
      </trkpt>
      <trkpt lat="46.54513" lon="6.09444">
        <ele>1223.9</ele>
        <time>2016-06-13T10:54:25Z</time>
      </trkpt>
      <trkpt lat="46.54513" lon="6.09443">
        <ele>1223.9</ele>
        <time>2016-06-13T10:54:49Z</time>
      </trkpt>
      <trkpt lat="46.54513" lon="6.09442">
        <ele>1223.9</ele>
        <time>2016-06-13T10:55:06Z</time>
      </trkpt>
      <trkpt lat="46.54511" lon="6.09437">
        <ele>1222.45</ele>
        <time>2016-06-13T10:55:10Z</time>
      </trkpt>
      <trkpt lat="46.54503" lon="6.09434">
        <ele>1220.53</ele>
        <time>2016-06-13T10:55:18Z</time>
      </trkpt>
      <trkpt lat="46.54497" lon="6.09437">
        <ele>1219.09</ele>
        <time>2016-06-13T10:55:24Z</time>
      </trkpt>
      <trkpt lat="46.54492" lon="6.0944">
        <ele>1218.61</ele>
        <time>2016-06-13T10:55:28Z</time>
      </trkpt>
      <trkpt lat="46.5448" lon="6.09447">
        <ele>1218.13</ele>
        <time>2016-06-13T10:55:38Z</time>
      </trkpt>
      <trkpt lat="46.54476" lon="6.09449">
        <ele>1217.65</ele>
        <time>2016-06-13T10:55:43Z</time>
      </trkpt>
      <trkpt lat="46.54459" lon="6.09463">
        <ele>1215.72</ele>
        <time>2016-06-13T10:55:58Z</time>
      </trkpt>
      <trkpt lat="46.54446" lon="6.09476">
        <ele>1214.28</ele>
        <time>2016-06-13T10:56:14Z</time>
      </trkpt>
      <trkpt lat="46.54433" lon="6.09477">
        <ele>1213.8</ele>
        <time>2016-06-13T10:56:23Z</time>
      </trkpt>
      <trkpt lat="46.5442" lon="6.0947">
        <ele>1210.44</ele>
        <time>2016-06-13T10:56:40Z</time>
      </trkpt>
      <trkpt lat="46.54419" lon="6.09467">
        <ele>1211.4</ele>
        <time>2016-06-13T10:57:03Z</time>
      </trkpt>
      <trkpt lat="46.54411" lon="6.09459">
        <ele>1215.24</ele>
        <time>2016-06-13T10:57:25Z</time>
      </trkpt>
      <trkpt lat="46.54411" lon="6.0946">
        <ele>1215.72</ele>
        <time>2016-06-13T10:57:48Z</time>
      </trkpt>
      <trkpt lat="46.54411" lon="6.0946">
        <ele>1216.69</ele>
        <time>2016-06-13T10:58:05Z</time>
      </trkpt>
      <trkpt lat="46.54411" lon="6.09461">
        <ele>1216.69</ele>
        <time>2016-06-13T10:58:06Z</time>
      </trkpt>
      <trkpt lat="46.54413" lon="6.09464">
        <ele>1219.09</ele>
        <time>2016-06-13T10:58:22Z</time>
      </trkpt>
      <trkpt lat="46.54415" lon="6.09465">
        <ele>1220.05</ele>
        <time>2016-06-13T10:58:36Z</time>
      </trkpt>
      <trkpt lat="46.54433" lon="6.09473">
        <ele>1223.9</ele>
        <time>2016-06-13T10:58:50Z</time>
      </trkpt>
      <trkpt lat="46.54447" lon="6.09472">
        <ele>1224.86</ele>
        <time>2016-06-13T10:59:04Z</time>
      </trkpt>
      <trkpt lat="46.54455" lon="6.09468">
        <ele>1225.34</ele>
        <time>2016-06-13T10:59:11Z</time>
      </trkpt>
      <trkpt lat="46.54459" lon="6.09465">
        <ele>1225.82</ele>
        <time>2016-06-13T10:59:14Z</time>
      </trkpt>
      <trkpt lat="46.54469" lon="6.09455">
        <ele>1225.34</ele>
        <time>2016-06-13T10:59:23Z</time>
      </trkpt>
      <trkpt lat="46.54476" lon="6.09448">
        <ele>1224.38</ele>
        <time>2016-06-13T10:59:29Z</time>
      </trkpt>
      <trkpt lat="46.54478" lon="6.09446">
        <ele>1223.42</ele>
        <time>2016-06-13T10:59:31Z</time>
      </trkpt>
      <trkpt lat="46.54495" lon="6.0944">
        <ele>1218.61</ele>
        <time>2016-06-13T10:59:44Z</time>
      </trkpt>
      <trkpt lat="46.545" lon="6.0944">
        <ele>1217.17</ele>
        <time>2016-06-13T10:59:48Z</time>
      </trkpt>
      <trkpt lat="46.5452" lon="6.09434">
        <ele>1217.17</ele>
        <time>2016-06-13T11:00:04Z</time>
      </trkpt>
      <trkpt lat="46.54527" lon="6.09434">
        <ele>1218.61</ele>
        <time>2016-06-13T11:00:10Z</time>
      </trkpt>
      <trkpt lat="46.54542" lon="6.09444">
        <ele>1222.45</ele>
        <time>2016-06-13T11:00:22Z</time>
      </trkpt>
      <trkpt lat="46.54553" lon="6.09467">
        <ele>1221.49</ele>
        <time>2016-06-13T11:00:37Z</time>
      </trkpt>
      <trkpt lat="46.54562" lon="6.09489">
        <ele>1220.53</ele>
        <time>2016-06-13T11:00:52Z</time>
      </trkpt>
      <trkpt lat="46.54567" lon="6.09511">
        <ele>1220.05</ele>
        <time>2016-06-13T11:01:04Z</time>
      </trkpt>
      <trkpt lat="46.54563" lon="6.0954">
        <ele>1219.57</ele>
        <time>2016-06-13T11:01:18Z</time>
      </trkpt>
      <trkpt lat="46.54562" lon="6.09546">
        <ele>1218.61</ele>
        <time>2016-06-13T11:01:21Z</time>
      </trkpt>
      <trkpt lat="46.54561" lon="6.09568">
        <ele>1217.65</ele>
        <time>2016-06-13T11:01:33Z</time>
      </trkpt>
      <trkpt lat="46.54561" lon="6.09568">
        <ele>1217.65</ele>
        <time>2016-06-13T11:01:34Z</time>
      </trkpt>
      <trkpt lat="46.54559" lon="6.09589">
        <ele>1216.69</ele>
        <time>2016-06-13T11:01:45Z</time>
      </trkpt>
      <trkpt lat="46.54559" lon="6.09596">
        <ele>1216.69</ele>
        <time>2016-06-13T11:01:49Z</time>
      </trkpt>
      <trkpt lat="46.5456" lon="6.09616">
        <ele>1214.76</ele>
        <time>2016-06-13T11:01:59Z</time>
      </trkpt>
      <trkpt lat="46.5456" lon="6.09638">
        <ele>1210.44</ele>
        <time>2016-06-13T11:02:13Z</time>
      </trkpt>
      <trkpt lat="46.54557" lon="6.09666">
        <ele>1211.88</ele>
        <time>2016-06-13T11:02:26Z</time>
      </trkpt>
      <trkpt lat="46.54557" lon="6.09668">
        <ele>1211.88</ele>
        <time>2016-06-13T11:02:27Z</time>
      </trkpt>
      <trkpt lat="46.54554" lon="6.09684">
        <ele>1212.36</ele>
        <time>2016-06-13T11:02:35Z</time>
      </trkpt>
      <trkpt lat="46.54553" lon="6.09697">
        <ele>1210.92</ele>
        <time>2016-06-13T11:02:42Z</time>
      </trkpt>
      <trkpt lat="46.54553" lon="6.09704">
        <ele>1210.44</ele>
        <time>2016-06-13T11:02:46Z</time>
      </trkpt>
      <trkpt lat="46.54551" lon="6.09727">
        <ele>1208.03</ele>
        <time>2016-06-13T11:03:00Z</time>
      </trkpt>
      <trkpt lat="46.5455" lon="6.09736">
        <ele>1208.03</ele>
        <time>2016-06-13T11:03:06Z</time>
      </trkpt>
      <trkpt lat="46.54551" lon="6.09745">
        <ele>1208.51</ele>
        <time>2016-06-13T11:03:10Z</time>
      </trkpt>
      <trkpt lat="46.5455" lon="6.09753">
        <ele>1210.44</ele>
        <time>2016-06-13T11:03:14Z</time>
      </trkpt>
      <trkpt lat="46.54547" lon="6.09757">
        <ele>1211.4</ele>
        <time>2016-06-13T11:03:17Z</time>
      </trkpt>
      <trkpt lat="46.54546" lon="6.0976">
        <ele>1210.92</ele>
        <time>2016-06-13T11:03:19Z</time>
      </trkpt>
      <trkpt lat="46.54542" lon="6.09771">
        <ele>1210.44</ele>
        <time>2016-06-13T11:03:26Z</time>
      </trkpt>
      <trkpt lat="46.54541" lon="6.09783">
        <ele>1207.07</ele>
        <time>2016-06-13T11:03:34Z</time>
      </trkpt>
      <trkpt lat="46.54536" lon="6.09804">
        <ele>1203.23</ele>
        <time>2016-06-13T11:03:47Z</time>
      </trkpt>
      <trkpt lat="46.54527" lon="6.09821">
        <ele>1203.71</ele>
        <time>2016-06-13T11:03:58Z</time>
      </trkpt>
      <trkpt lat="46.54519" lon="6.09833">
        <ele>1203.71</ele>
        <time>2016-06-13T11:04:08Z</time>
      </trkpt>
      <trkpt lat="46.54513" lon="6.09839">
        <ele>1204.19</ele>
        <time>2016-06-13T11:04:14Z</time>
      </trkpt>
      <trkpt lat="46.54507" lon="6.09844">
        <ele>1205.15</ele>
        <time>2016-06-13T11:04:19Z</time>
      </trkpt>
      <trkpt lat="46.54498" lon="6.09865">
        <ele>1203.71</ele>
        <time>2016-06-13T11:04:33Z</time>
      </trkpt>
      <trkpt lat="46.54496" lon="6.09871">
        <ele>1203.23</ele>
        <time>2016-06-13T11:04:37Z</time>
      </trkpt>
      <trkpt lat="46.54495" lon="6.09877">
        <ele>1202.75</ele>
        <time>2016-06-13T11:04:40Z</time>
      </trkpt>
      <trkpt lat="46.5448" lon="6.09895">
        <ele>1201.3</ele>
        <time>2016-06-13T11:04:55Z</time>
      </trkpt>
      <trkpt lat="46.54479" lon="6.09896">
        <ele>1201.3</ele>
        <time>2016-06-13T11:04:56Z</time>
      </trkpt>
      <trkpt lat="46.54463" lon="6.09909">
        <ele>1205.15</ele>
        <time>2016-06-13T11:05:09Z</time>
      </trkpt>
      <trkpt lat="46.54461" lon="6.09911">
        <ele>1204.19</ele>
        <time>2016-06-13T11:05:13Z</time>
      </trkpt>
      <trkpt lat="46.54452" lon="6.09918">
        <ele>1201.79</ele>
        <time>2016-06-13T11:05:22Z</time>
      </trkpt>
      <trkpt lat="46.54432" lon="6.09933">
        <ele>1201.79</ele>
        <time>2016-06-13T11:05:37Z</time>
      </trkpt>
      <trkpt lat="46.54429" lon="6.0994">
        <ele>1200.82</ele>
        <time>2016-06-13T11:05:42Z</time>
      </trkpt>
      <trkpt lat="46.54427" lon="6.09945">
        <ele>1200.82</ele>
        <time>2016-06-13T11:05:45Z</time>
      </trkpt>
      <trkpt lat="46.54427" lon="6.09948">
        <ele>1200.82</ele>
        <time>2016-06-13T11:05:47Z</time>
      </trkpt>
      <trkpt lat="46.54423" lon="6.09959">
        <ele>1202.75</ele>
        <time>2016-06-13T11:05:53Z</time>
      </trkpt>
      <trkpt lat="46.54417" lon="6.09978">
        <ele>1204.67</ele>
        <time>2016-06-13T11:06:05Z</time>
      </trkpt>
      <trkpt lat="46.54417" lon="6.09985">
        <ele>1204.67</ele>
        <time>2016-06-13T11:06:09Z</time>
      </trkpt>
      <trkpt lat="46.5441" lon="6.10001">
        <ele>1203.23</ele>
        <time>2016-06-13T11:06:21Z</time>
      </trkpt>
      <trkpt lat="46.54404" lon="6.10015">
        <ele>1203.23</ele>
        <time>2016-06-13T11:06:30Z</time>
      </trkpt>
      <trkpt lat="46.54401" lon="6.1002">
        <ele>1203.23</ele>
        <time>2016-06-13T11:06:34Z</time>
      </trkpt>
      <trkpt lat="46.54396" lon="6.10027">
        <ele>1203.71</ele>
        <time>2016-06-13T11:06:40Z</time>
      </trkpt>
      <trkpt lat="46.54381" lon="6.10046">
        <ele>1206.11</ele>
        <time>2016-06-13T11:06:54Z</time>
      </trkpt>
      <trkpt lat="46.54369" lon="6.10056">
        <ele>1207.07</ele>
        <time>2016-06-13T11:07:06Z</time>
      </trkpt>
      <trkpt lat="46.54363" lon="6.10061">
        <ele>1207.55</ele>
        <time>2016-06-13T11:07:11Z</time>
      </trkpt>
      <trkpt lat="46.5436" lon="6.10064">
        <ele>1207.55</ele>
        <time>2016-06-13T11:07:16Z</time>
      </trkpt>
      <trkpt lat="46.54353" lon="6.10071">
        <ele>1207.07</ele>
        <time>2016-06-13T11:07:23Z</time>
      </trkpt>
      <trkpt lat="46.54337" lon="6.10082">
        <ele>1205.15</ele>
        <time>2016-06-13T11:07:37Z</time>
      </trkpt>
      <trkpt lat="46.54326" lon="6.10093">
        <ele>1205.15</ele>
        <time>2016-06-13T11:07:48Z</time>
      </trkpt>
      <trkpt lat="46.54311" lon="6.10107">
        <ele>1207.07</ele>
        <time>2016-06-13T11:08:00Z</time>
      </trkpt>
      <trkpt lat="46.54307" lon="6.1011">
        <ele>1206.59</ele>
        <time>2016-06-13T11:08:04Z</time>
      </trkpt>
      <trkpt lat="46.54294" lon="6.10118">
        <ele>1203.71</ele>
        <time>2016-06-13T11:08:17Z</time>
      </trkpt>
      <trkpt lat="46.54283" lon="6.10124">
        <ele>1200.82</ele>
        <time>2016-06-13T11:08:29Z</time>
      </trkpt>
      <trkpt lat="46.54268" lon="6.10131">
        <ele>1196.02</ele>
        <time>2016-06-13T11:08:42Z</time>
      </trkpt>
      <trkpt lat="46.54255" lon="6.10135">
        <ele>1194.09</ele>
        <time>2016-06-13T11:08:54Z</time>
      </trkpt>
      <trkpt lat="46.54239" lon="6.10144">
        <ele>1193.61</ele>
        <time>2016-06-13T11:09:07Z</time>
      </trkpt>
      <trkpt lat="46.54225" lon="6.10149">
        <ele>1192.65</ele>
        <time>2016-06-13T11:09:19Z</time>
      </trkpt>
      <trkpt lat="46.54218" lon="6.10152">
        <ele>1193.61</ele>
        <time>2016-06-13T11:09:25Z</time>
      </trkpt>
      <trkpt lat="46.54215" lon="6.10154">
        <ele>1194.09</ele>
        <time>2016-06-13T11:09:28Z</time>
      </trkpt>
      <trkpt lat="46.54198" lon="6.10162">
        <ele>1195.54</ele>
        <time>2016-06-13T11:09:42Z</time>
      </trkpt>
      <trkpt lat="46.54183" lon="6.10172">
        <ele>1199.38</ele>
        <time>2016-06-13T11:09:53Z</time>
      </trkpt>
      <trkpt lat="46.54173" lon="6.10177">
        <ele>1199.86</ele>
        <time>2016-06-13T11:10:04Z</time>
      </trkpt>
      <trkpt lat="46.54162" lon="6.10184">
        <ele>1199.86</ele>
        <time>2016-06-13T11:10:16Z</time>
      </trkpt>
      <trkpt lat="46.54144" lon="6.1019">
        <ele>1199.38</ele>
        <time>2016-06-13T11:10:29Z</time>
      </trkpt>
      <trkpt lat="46.5414" lon="6.1019">
        <ele>1199.38</ele>
        <time>2016-06-13T11:10:33Z</time>
      </trkpt>
      <trkpt lat="46.54124" lon="6.10196">
        <ele>1195.06</ele>
        <time>2016-06-13T11:10:48Z</time>
      </trkpt>
      <trkpt lat="46.54115" lon="6.102">
        <ele>1191.69</ele>
        <time>2016-06-13T11:10:55Z</time>
      </trkpt>
      <trkpt lat="46.5411" lon="6.10204">
        <ele>1190.25</ele>
        <time>2016-06-13T11:11:00Z</time>
      </trkpt>
      <trkpt lat="46.54098" lon="6.1021">
        <ele>1183.52</ele>
        <time>2016-06-13T11:11:13Z</time>
      </trkpt>
      <trkpt lat="46.54085" lon="6.1021">
        <ele>1184</ele>
        <time>2016-06-13T11:11:25Z</time>
      </trkpt>
      <trkpt lat="46.54071" lon="6.10212">
        <ele>1185.92</ele>
        <time>2016-06-13T11:11:37Z</time>
      </trkpt>
      <trkpt lat="46.5406" lon="6.10216">
        <ele>1187.37</ele>
        <time>2016-06-13T11:11:50Z</time>
      </trkpt>
      <trkpt lat="46.54048" lon="6.10221">
        <ele>1189.77</ele>
        <time>2016-06-13T11:12:02Z</time>
      </trkpt>
      <trkpt lat="46.54037" lon="6.10226">
        <ele>1192.65</ele>
        <time>2016-06-13T11:12:13Z</time>
      </trkpt>
      <trkpt lat="46.54025" lon="6.10229">
        <ele>1194.58</ele>
        <time>2016-06-13T11:12:24Z</time>
      </trkpt>
      <trkpt lat="46.54015" lon="6.10235">
        <ele>1195.54</ele>
        <time>2016-06-13T11:12:36Z</time>
      </trkpt>
      <trkpt lat="46.54005" lon="6.10239">
        <ele>1196.5</ele>
        <time>2016-06-13T11:12:46Z</time>
      </trkpt>
      <trkpt lat="46.53991" lon="6.10243">
        <ele>1196.98</ele>
        <time>2016-06-13T11:12:59Z</time>
      </trkpt>
      <trkpt lat="46.53976" lon="6.10246">
        <ele>1199.38</ele>
        <time>2016-06-13T11:13:12Z</time>
      </trkpt>
      <trkpt lat="46.53973" lon="6.10247">
        <ele>1199.86</ele>
        <time>2016-06-13T11:13:15Z</time>
      </trkpt>
      <trkpt lat="46.53959" lon="6.10251">
        <ele>1203.71</ele>
        <time>2016-06-13T11:13:28Z</time>
      </trkpt>
      <trkpt lat="46.53954" lon="6.10251">
        <ele>1205.15</ele>
        <time>2016-06-13T11:13:32Z</time>
      </trkpt>
      <trkpt lat="46.5394" lon="6.10247">
        <ele>1206.11</ele>
        <time>2016-06-13T11:13:46Z</time>
      </trkpt>
      <trkpt lat="46.53937" lon="6.10246">
        <ele>1206.11</ele>
        <time>2016-06-13T11:13:48Z</time>
      </trkpt>
      <trkpt lat="46.5393" lon="6.10241">
        <ele>1205.63</ele>
        <time>2016-06-13T11:13:55Z</time>
      </trkpt>
      <trkpt lat="46.53918" lon="6.1023">
        <ele>1204.67</ele>
        <time>2016-06-13T11:14:08Z</time>
      </trkpt>
      <trkpt lat="46.53905" lon="6.10221">
        <ele>1205.15</ele>
        <time>2016-06-13T11:14:20Z</time>
      </trkpt>
      <trkpt lat="46.53902" lon="6.10219">
        <ele>1205.15</ele>
        <time>2016-06-13T11:14:23Z</time>
      </trkpt>
      <trkpt lat="46.5389" lon="6.10216">
        <ele>1203.71</ele>
        <time>2016-06-13T11:14:35Z</time>
      </trkpt>
      <trkpt lat="46.53877" lon="6.10216">
        <ele>1201.79</ele>
        <time>2016-06-13T11:14:48Z</time>
      </trkpt>
      <trkpt lat="46.5387" lon="6.10213">
        <ele>1204.19</ele>
        <time>2016-06-13T11:14:54Z</time>
      </trkpt>
      <trkpt lat="46.53864" lon="6.10212">
        <ele>1205.15</ele>
        <time>2016-06-13T11:14:59Z</time>
      </trkpt>
      <trkpt lat="46.53852" lon="6.10204">
        <ele>1207.07</ele>
        <time>2016-06-13T11:15:10Z</time>
      </trkpt>
      <trkpt lat="46.53847" lon="6.10196">
        <ele>1208.51</ele>
        <time>2016-06-13T11:15:19Z</time>
      </trkpt>
      <trkpt lat="46.53845" lon="6.10195">
        <ele>1208.51</ele>
        <time>2016-06-13T11:15:21Z</time>
      </trkpt>
      <trkpt lat="46.53834" lon="6.10179">
        <ele>1211.4</ele>
        <time>2016-06-13T11:15:35Z</time>
      </trkpt>
      <trkpt lat="46.53821" lon="6.10167">
        <ele>1210.44</ele>
        <time>2016-06-13T11:15:47Z</time>
      </trkpt>
      <trkpt lat="46.53818" lon="6.10163">
        <ele>1209.96</ele>
        <time>2016-06-13T11:15:50Z</time>
      </trkpt>
      <trkpt lat="46.53813" lon="6.10158">
        <ele>1209</ele>
        <time>2016-06-13T11:15:55Z</time>
      </trkpt>
      <trkpt lat="46.53809" lon="6.10154">
        <ele>1209</ele>
        <time>2016-06-13T11:15:59Z</time>
      </trkpt>
      <trkpt lat="46.53801" lon="6.10148">
        <ele>1207.55</ele>
        <time>2016-06-13T11:16:07Z</time>
      </trkpt>
      <trkpt lat="46.53789" lon="6.10143">
        <ele>1205.63</ele>
        <time>2016-06-13T11:16:19Z</time>
      </trkpt>
      <trkpt lat="46.53787" lon="6.10143">
        <ele>1205.63</ele>
        <time>2016-06-13T11:16:21Z</time>
      </trkpt>
      <trkpt lat="46.53781" lon="6.10144">
        <ele>1205.63</ele>
        <time>2016-06-13T11:16:27Z</time>
      </trkpt>
      <trkpt lat="46.53766" lon="6.10148">
        <ele>1205.15</ele>
        <time>2016-06-13T11:16:40Z</time>
      </trkpt>
      <trkpt lat="46.53747" lon="6.10152">
        <ele>1202.27</ele>
        <time>2016-06-13T11:16:55Z</time>
      </trkpt>
      <trkpt lat="46.53735" lon="6.10155">
        <ele>1199.86</ele>
        <time>2016-06-13T11:17:07Z</time>
      </trkpt>
      <trkpt lat="46.53724" lon="6.10158">
        <ele>1198.9</ele>
        <time>2016-06-13T11:17:18Z</time>
      </trkpt>
      <trkpt lat="46.53712" lon="6.10162">
        <ele>1197.46</ele>
        <time>2016-06-13T11:17:29Z</time>
      </trkpt>
      <trkpt lat="46.537" lon="6.10169">
        <ele>1194.58</ele>
        <time>2016-06-13T11:17:42Z</time>
      </trkpt>
      <trkpt lat="46.53698" lon="6.1017">
        <ele>1195.06</ele>
        <time>2016-06-13T11:17:44Z</time>
      </trkpt>
      <trkpt lat="46.53686" lon="6.10176">
        <ele>1195.06</ele>
        <time>2016-06-13T11:17:56Z</time>
      </trkpt>
      <trkpt lat="46.53683" lon="6.10177">
        <ele>1195.54</ele>
        <time>2016-06-13T11:17:58Z</time>
      </trkpt>
      <trkpt lat="46.53669" lon="6.10185">
        <ele>1197.94</ele>
        <time>2016-06-13T11:18:11Z</time>
      </trkpt>
      <trkpt lat="46.53666" lon="6.10186">
        <ele>1197.46</ele>
        <time>2016-06-13T11:18:14Z</time>
      </trkpt>
      <trkpt lat="46.53658" lon="6.10186">
        <ele>1198.42</ele>
        <time>2016-06-13T11:18:22Z</time>
      </trkpt>
      <trkpt lat="46.53637" lon="6.10186">
        <ele>1203.71</ele>
        <time>2016-06-13T11:18:37Z</time>
      </trkpt>
      <trkpt lat="46.5362" lon="6.10185">
        <ele>1206.59</ele>
        <time>2016-06-13T11:18:49Z</time>
      </trkpt>
      <trkpt lat="46.53612" lon="6.1018">
        <ele>1206.11</ele>
        <time>2016-06-13T11:18:59Z</time>
      </trkpt>
      <trkpt lat="46.53603" lon="6.10167">
        <ele>1207.07</ele>
        <time>2016-06-13T11:19:12Z</time>
      </trkpt>
      <trkpt lat="46.53596" lon="6.10155">
        <ele>1204.19</ele>
        <time>2016-06-13T11:19:25Z</time>
      </trkpt>
      <trkpt lat="46.53595" lon="6.10153">
        <ele>1202.75</ele>
        <time>2016-06-13T11:19:27Z</time>
      </trkpt>
      <trkpt lat="46.53588" lon="6.10141">
        <ele>1197.94</ele>
        <time>2016-06-13T11:19:37Z</time>
      </trkpt>
      <trkpt lat="46.53587" lon="6.10141">
        <ele>1197.46</ele>
        <time>2016-06-13T11:19:39Z</time>
      </trkpt>
      <trkpt lat="46.53583" lon="6.10136">
        <ele>1196.98</ele>
        <time>2016-06-13T11:19:46Z</time>
      </trkpt>
      <trkpt lat="46.53574" lon="6.1012">
        <ele>1197.46</ele>
        <time>2016-06-13T11:19:58Z</time>
      </trkpt>
      <trkpt lat="46.53572" lon="6.10117">
        <ele>1198.42</ele>
        <time>2016-06-13T11:20:00Z</time>
      </trkpt>
      <trkpt lat="46.53562" lon="6.10105">
        <ele>1199.86</ele>
        <time>2016-06-13T11:20:10Z</time>
      </trkpt>
      <trkpt lat="46.53555" lon="6.10092">
        <ele>1201.79</ele>
        <time>2016-06-13T11:20:19Z</time>
      </trkpt>
      <trkpt lat="46.53543" lon="6.10078">
        <ele>1205.15</ele>
        <time>2016-06-13T11:20:32Z</time>
      </trkpt>
      <trkpt lat="46.53532" lon="6.10072">
        <ele>1206.11</ele>
        <time>2016-06-13T11:20:43Z</time>
      </trkpt>
      <trkpt lat="46.5353" lon="6.10071">
        <ele>1206.59</ele>
        <time>2016-06-13T11:20:45Z</time>
      </trkpt>
      <trkpt lat="46.53519" lon="6.1007">
        <ele>1211.88</ele>
        <time>2016-06-13T11:20:56Z</time>
      </trkpt>
      <trkpt lat="46.53513" lon="6.10072">
        <ele>1214.28</ele>
        <time>2016-06-13T11:21:03Z</time>
      </trkpt>
      <trkpt lat="46.53511" lon="6.10073">
        <ele>1215.24</ele>
        <time>2016-06-13T11:21:05Z</time>
      </trkpt>
      <trkpt lat="46.53498" lon="6.10078">
        <ele>1221.97</ele>
        <time>2016-06-13T11:21:18Z</time>
      </trkpt>
      <trkpt lat="46.53488" lon="6.10082">
        <ele>1226.3</ele>
        <time>2016-06-13T11:21:31Z</time>
      </trkpt>
      <trkpt lat="46.53486" lon="6.10082">
        <ele>1226.78</ele>
        <time>2016-06-13T11:21:33Z</time>
      </trkpt>
      <trkpt lat="46.53473" lon="6.10086">
        <ele>1228.22</ele>
        <time>2016-06-13T11:21:41Z</time>
      </trkpt>
      <trkpt lat="46.53456" lon="6.10091">
        <ele>1226.3</ele>
        <time>2016-06-13T11:21:56Z</time>
      </trkpt>
      <trkpt lat="46.53443" lon="6.10093">
        <ele>1225.34</ele>
        <time>2016-06-13T11:22:07Z</time>
      </trkpt>
      <trkpt lat="46.53442" lon="6.10093">
        <ele>1225.34</ele>
        <time>2016-06-13T11:22:08Z</time>
      </trkpt>
      <trkpt lat="46.53423" lon="6.1009">
        <ele>1224.86</ele>
        <time>2016-06-13T11:22:22Z</time>
      </trkpt>
      <trkpt lat="46.53409" lon="6.10083">
        <ele>1225.34</ele>
        <time>2016-06-13T11:22:34Z</time>
      </trkpt>
      <trkpt lat="46.53408" lon="6.10082">
        <ele>1225.34</ele>
        <time>2016-06-13T11:22:36Z</time>
      </trkpt>
      <trkpt lat="46.53403" lon="6.1008">
        <ele>1225.82</ele>
        <time>2016-06-13T11:22:40Z</time>
      </trkpt>
      <trkpt lat="46.5339" lon="6.1007">
        <ele>1225.34</ele>
        <time>2016-06-13T11:22:52Z</time>
      </trkpt>
      <trkpt lat="46.53381" lon="6.10055">
        <ele>1224.86</ele>
        <time>2016-06-13T11:23:05Z</time>
      </trkpt>
      <trkpt lat="46.53373" lon="6.10037">
        <ele>1225.34</ele>
        <time>2016-06-13T11:23:16Z</time>
      </trkpt>
      <trkpt lat="46.53373" lon="6.10034">
        <ele>1225.34</ele>
        <time>2016-06-13T11:23:17Z</time>
      </trkpt>
      <trkpt lat="46.53372" lon="6.10031">
        <ele>1224.38</ele>
        <time>2016-06-13T11:23:19Z</time>
      </trkpt>
      <trkpt lat="46.53365" lon="6.10015">
        <ele>1225.82</ele>
        <time>2016-06-13T11:23:28Z</time>
      </trkpt>
      <trkpt lat="46.53358" lon="6.10001">
        <ele>1222.93</ele>
        <time>2016-06-13T11:23:40Z</time>
      </trkpt>
      <trkpt lat="46.53355" lon="6.09996">
        <ele>1220.05</ele>
        <time>2016-06-13T11:23:45Z</time>
      </trkpt>
      <trkpt lat="46.53352" lon="6.09989">
        <ele>1217.17</ele>
        <time>2016-06-13T11:23:55Z</time>
      </trkpt>
      <trkpt lat="46.53347" lon="6.09975">
        <ele>1213.32</ele>
        <time>2016-06-13T11:24:05Z</time>
      </trkpt>
      <trkpt lat="46.53345" lon="6.09968">
        <ele>1211.4</ele>
        <time>2016-06-13T11:24:10Z</time>
      </trkpt>
      <trkpt lat="46.53335" lon="6.09952">
        <ele>1211.4</ele>
        <time>2016-06-13T11:24:22Z</time>
      </trkpt>
      <trkpt lat="46.53331" lon="6.09943">
        <ele>1210.92</ele>
        <time>2016-06-13T11:24:27Z</time>
      </trkpt>
      <trkpt lat="46.53324" lon="6.09929">
        <ele>1208.51</ele>
        <time>2016-06-13T11:24:38Z</time>
      </trkpt>
      <trkpt lat="46.5332" lon="6.09917">
        <ele>1205.15</ele>
        <time>2016-06-13T11:24:49Z</time>
      </trkpt>
      <trkpt lat="46.53315" lon="6.09908">
        <ele>1204.19</ele>
        <time>2016-06-13T11:24:59Z</time>
      </trkpt>
      <trkpt lat="46.53311" lon="6.09902">
        <ele>1202.27</ele>
        <time>2016-06-13T11:25:04Z</time>
      </trkpt>
      <trkpt lat="46.53307" lon="6.09892">
        <ele>1203.23</ele>
        <time>2016-06-13T11:25:09Z</time>
      </trkpt>
      <trkpt lat="46.53299" lon="6.09876">
        <ele>1205.15</ele>
        <time>2016-06-13T11:25:21Z</time>
      </trkpt>
      <trkpt lat="46.5329" lon="6.09859">
        <ele>1208.03</ele>
        <time>2016-06-13T11:25:34Z</time>
      </trkpt>
      <trkpt lat="46.53289" lon="6.09856">
        <ele>1208.51</ele>
        <time>2016-06-13T11:25:36Z</time>
      </trkpt>
      <trkpt lat="46.53283" lon="6.09844">
        <ele>1210.92</ele>
        <time>2016-06-13T11:25:44Z</time>
      </trkpt>
      <trkpt lat="46.53281" lon="6.09839">
        <ele>1211.88</ele>
        <time>2016-06-13T11:25:46Z</time>
      </trkpt>
      <trkpt lat="46.53279" lon="6.09833">
        <ele>1213.8</ele>
        <time>2016-06-13T11:25:49Z</time>
      </trkpt>
      <trkpt lat="46.53276" lon="6.09814">
        <ele>1219.09</ele>
        <time>2016-06-13T11:26:00Z</time>
      </trkpt>
      <trkpt lat="46.53273" lon="6.09807">
        <ele>1220.05</ele>
        <time>2016-06-13T11:26:05Z</time>
      </trkpt>
      <trkpt lat="46.53263" lon="6.09795">
        <ele>1224.38</ele>
        <time>2016-06-13T11:26:13Z</time>
      </trkpt>
      <trkpt lat="46.53256" lon="6.09785">
        <ele>1227.26</ele>
        <time>2016-06-13T11:26:23Z</time>
      </trkpt>
      <trkpt lat="46.53249" lon="6.09774">
        <ele>1229.66</ele>
        <time>2016-06-13T11:26:34Z</time>
      </trkpt>
      <trkpt lat="46.53238" lon="6.09758">
        <ele>1227.74</ele>
        <time>2016-06-13T11:26:47Z</time>
      </trkpt>
      <trkpt lat="46.53233" lon="6.09744">
        <ele>1223.9</ele>
        <time>2016-06-13T11:26:58Z</time>
      </trkpt>
      <trkpt lat="46.53225" lon="6.09731">
        <ele>1216.69</ele>
        <time>2016-06-13T11:27:11Z</time>
      </trkpt>
      <trkpt lat="46.5322" lon="6.09725">
        <ele>1210.92</ele>
        <time>2016-06-13T11:27:23Z</time>
      </trkpt>
      <trkpt lat="46.53208" lon="6.09708">
        <ele>1211.4</ele>
        <time>2016-06-13T11:27:35Z</time>
      </trkpt>
      <trkpt lat="46.53195" lon="6.09684">
        <ele>1221.97</ele>
        <time>2016-06-13T11:27:48Z</time>
      </trkpt>
      <trkpt lat="46.53184" lon="6.09673">
        <ele>1226.3</ele>
        <time>2016-06-13T11:27:58Z</time>
      </trkpt>
      <trkpt lat="46.53183" lon="6.09672">
        <ele>1227.26</ele>
        <time>2016-06-13T11:28:00Z</time>
      </trkpt>
      <trkpt lat="46.53176" lon="6.09664">
        <ele>1226.78</ele>
        <time>2016-06-13T11:28:12Z</time>
      </trkpt>
      <trkpt lat="46.53172" lon="6.09658">
        <ele>1225.34</ele>
        <time>2016-06-13T11:28:26Z</time>
      </trkpt>
      <trkpt lat="46.53164" lon="6.09639">
        <ele>1220.53</ele>
        <time>2016-06-13T11:28:39Z</time>
      </trkpt>
      <trkpt lat="46.53154" lon="6.09623">
        <ele>1221.97</ele>
        <time>2016-06-13T11:28:51Z</time>
      </trkpt>
      <trkpt lat="46.53143" lon="6.09614">
        <ele>1222.93</ele>
        <time>2016-06-13T11:29:06Z</time>
      </trkpt>
      <trkpt lat="46.53142" lon="6.09614">
        <ele>1222.93</ele>
        <time>2016-06-13T11:29:27Z</time>
      </trkpt>
      <trkpt lat="46.53141" lon="6.09615">
        <ele>1224.38</ele>
        <time>2016-06-13T11:29:45Z</time>
      </trkpt>
      <trkpt lat="46.53141" lon="6.09616">
        <ele>1224.38</ele>
        <time>2016-06-13T11:30:03Z</time>
      </trkpt>
      <trkpt lat="46.53142" lon="6.09616">
        <ele>1223.42</ele>
        <time>2016-06-13T11:30:36Z</time>
      </trkpt>
      <trkpt lat="46.53142" lon="6.09613">
        <ele>1223.9</ele>
        <time>2016-06-13T11:31:01Z</time>
      </trkpt>
      <trkpt lat="46.53135" lon="6.09602">
        <ele>1224.38</ele>
        <time>2016-06-13T11:31:12Z</time>
      </trkpt>
      <trkpt lat="46.53134" lon="6.09601">
        <ele>1224.38</ele>
        <time>2016-06-13T11:31:13Z</time>
      </trkpt>
      <trkpt lat="46.53125" lon="6.09587">
        <ele>1225.34</ele>
        <time>2016-06-13T11:31:26Z</time>
      </trkpt>
      <trkpt lat="46.53117" lon="6.09573">
        <ele>1227.74</ele>
        <time>2016-06-13T11:31:39Z</time>
      </trkpt>
      <trkpt lat="46.53114" lon="6.09562">
        <ele>1229.66</ele>
        <time>2016-06-13T11:31:45Z</time>
      </trkpt>
      <trkpt lat="46.53104" lon="6.09553">
        <ele>1232.55</ele>
        <time>2016-06-13T11:31:54Z</time>
      </trkpt>
      <trkpt lat="46.53096" lon="6.0954">
        <ele>1235.91</ele>
        <time>2016-06-13T11:32:07Z</time>
      </trkpt>
      <trkpt lat="46.53085" lon="6.09529">
        <ele>1236.87</ele>
        <time>2016-06-13T11:32:18Z</time>
      </trkpt>
      <trkpt lat="46.53078" lon="6.09517">
        <ele>1236.87</ele>
        <time>2016-06-13T11:32:29Z</time>
      </trkpt>
      <trkpt lat="46.53072" lon="6.09512">
        <ele>1236.39</ele>
        <time>2016-06-13T11:32:36Z</time>
      </trkpt>
      <trkpt lat="46.53063" lon="6.09504">
        <ele>1234.95</ele>
        <time>2016-06-13T11:32:46Z</time>
      </trkpt>
      <trkpt lat="46.53059" lon="6.09502">
        <ele>1234.47</ele>
        <time>2016-06-13T11:32:50Z</time>
      </trkpt>
      <trkpt lat="46.53051" lon="6.0949">
        <ele>1235.43</ele>
        <time>2016-06-13T11:33:00Z</time>
      </trkpt>
      <trkpt lat="46.53039" lon="6.0948">
        <ele>1239.28</ele>
        <time>2016-06-13T11:33:15Z</time>
      </trkpt>
      <trkpt lat="46.53027" lon="6.09475">
        <ele>1242.16</ele>
        <time>2016-06-13T11:33:27Z</time>
      </trkpt>
      <trkpt lat="46.53023" lon="6.09467">
        <ele>1246.49</ele>
        <time>2016-06-13T11:33:41Z</time>
      </trkpt>
      <trkpt lat="46.53014" lon="6.09463">
        <ele>1249.37</ele>
        <time>2016-06-13T11:33:56Z</time>
      </trkpt>
      <trkpt lat="46.53003" lon="6.09456">
        <ele>1250.33</ele>
        <time>2016-06-13T11:34:09Z</time>
      </trkpt>
      <trkpt lat="46.52999" lon="6.09453">
        <ele>1250.33</ele>
        <time>2016-06-13T11:34:14Z</time>
      </trkpt>
      <trkpt lat="46.5299" lon="6.09444">
        <ele>1251.29</ele>
        <time>2016-06-13T11:34:25Z</time>
      </trkpt>
      <trkpt lat="46.52983" lon="6.09436">
        <ele>1250.81</ele>
        <time>2016-06-13T11:34:35Z</time>
      </trkpt>
      <trkpt lat="46.52975" lon="6.09428">
        <ele>1247.93</ele>
        <time>2016-06-13T11:34:45Z</time>
      </trkpt>
      <trkpt lat="46.52968" lon="6.09422">
        <ele>1245.53</ele>
        <time>2016-06-13T11:34:56Z</time>
      </trkpt>
      <trkpt lat="46.52956" lon="6.0941">
        <ele>1245.53</ele>
        <time>2016-06-13T11:35:08Z</time>
      </trkpt>
      <trkpt lat="46.52946" lon="6.09396">
        <ele>1247.93</ele>
        <time>2016-06-13T11:35:19Z</time>
      </trkpt>
      <trkpt lat="46.52938" lon="6.09386">
        <ele>1249.37</ele>
        <time>2016-06-13T11:35:32Z</time>
      </trkpt>
      <trkpt lat="46.52923" lon="6.09374">
        <ele>1252.74</ele>
        <time>2016-06-13T11:35:47Z</time>
      </trkpt>
      <trkpt lat="46.52914" lon="6.0937">
        <ele>1252.74</ele>
        <time>2016-06-13T11:35:59Z</time>
      </trkpt>
      <trkpt lat="46.5291" lon="6.09364">
        <ele>1252.74</ele>
        <time>2016-06-13T11:36:04Z</time>
      </trkpt>
      <trkpt lat="46.52907" lon="6.09361">
        <ele>1253.7</ele>
        <time>2016-06-13T11:36:08Z</time>
      </trkpt>
      <trkpt lat="46.52904" lon="6.0936">
        <ele>1254.18</ele>
        <time>2016-06-13T11:36:12Z</time>
      </trkpt>
      <trkpt lat="46.52895" lon="6.09358">
        <ele>1255.14</ele>
        <time>2016-06-13T11:36:25Z</time>
      </trkpt>
      <trkpt lat="46.5289" lon="6.09346">
        <ele>1252.74</ele>
        <time>2016-06-13T11:36:39Z</time>
      </trkpt>
      <trkpt lat="46.52887" lon="6.09341">
        <ele>1251.77</ele>
        <time>2016-06-13T11:36:43Z</time>
      </trkpt>
      <trkpt lat="46.52886" lon="6.09338">
        <ele>1251.77</ele>
        <time>2016-06-13T11:36:45Z</time>
      </trkpt>
      <trkpt lat="46.52881" lon="6.09321">
        <ele>1252.25</ele>
        <time>2016-06-13T11:36:57Z</time>
      </trkpt>
      <trkpt lat="46.52874" lon="6.09305">
        <ele>1251.29</ele>
        <time>2016-06-13T11:37:07Z</time>
      </trkpt>
      <trkpt lat="46.52869" lon="6.09288">
        <ele>1247.93</ele>
        <time>2016-06-13T11:37:18Z</time>
      </trkpt>
      <trkpt lat="46.52863" lon="6.09272">
        <ele>1242.16</ele>
        <time>2016-06-13T11:37:31Z</time>
      </trkpt>
      <trkpt lat="46.52855" lon="6.09251">
        <ele>1240.24</ele>
        <time>2016-06-13T11:37:46Z</time>
      </trkpt>
      <trkpt lat="46.52851" lon="6.09244">
        <ele>1240.24</ele>
        <time>2016-06-13T11:37:52Z</time>
      </trkpt>
      <trkpt lat="46.52844" lon="6.09216">
        <ele>1233.99</ele>
        <time>2016-06-13T11:38:09Z</time>
      </trkpt>
      <trkpt lat="46.52837" lon="6.092">
        <ele>1229.18</ele>
        <time>2016-06-13T11:38:21Z</time>
      </trkpt>
      <trkpt lat="46.52828" lon="6.09187">
        <ele>1229.18</ele>
        <time>2016-06-13T11:38:31Z</time>
      </trkpt>
      <trkpt lat="46.5282" lon="6.09174">
        <ele>1227.74</ele>
        <time>2016-06-13T11:38:43Z</time>
      </trkpt>
      <trkpt lat="46.52812" lon="6.09161">
        <ele>1225.82</ele>
        <time>2016-06-13T11:38:56Z</time>
      </trkpt>
      <trkpt lat="46.52806" lon="6.09157">
        <ele>1226.3</ele>
        <time>2016-06-13T11:39:01Z</time>
      </trkpt>
      <trkpt lat="46.52795" lon="6.09138">
        <ele>1227.26</ele>
        <time>2016-06-13T11:39:16Z</time>
      </trkpt>
      <trkpt lat="46.52778" lon="6.09116">
        <ele>1235.43</ele>
        <time>2016-06-13T11:39:31Z</time>
      </trkpt>
      <trkpt lat="46.52775" lon="6.09109">
        <ele>1236.39</ele>
        <time>2016-06-13T11:39:34Z</time>
      </trkpt>
      <trkpt lat="46.52771" lon="6.09106">
        <ele>1237.35</ele>
        <time>2016-06-13T11:39:37Z</time>
      </trkpt>
      <trkpt lat="46.52761" lon="6.09095">
        <ele>1240.24</ele>
        <time>2016-06-13T11:39:47Z</time>
      </trkpt>
      <trkpt lat="46.52746" lon="6.09088">
        <ele>1238.8</ele>
        <time>2016-06-13T11:40:02Z</time>
      </trkpt>
      <trkpt lat="46.52741" lon="6.09081">
        <ele>1238.32</ele>
        <time>2016-06-13T11:40:09Z</time>
      </trkpt>
      <trkpt lat="46.52735" lon="6.09076">
        <ele>1236.87</ele>
        <time>2016-06-13T11:40:14Z</time>
      </trkpt>
      <trkpt lat="46.52725" lon="6.09065">
        <ele>1235.43</ele>
        <time>2016-06-13T11:40:27Z</time>
      </trkpt>
      <trkpt lat="46.52709" lon="6.09049">
        <ele>1237.83</ele>
        <time>2016-06-13T11:40:41Z</time>
      </trkpt>
      <trkpt lat="46.527" lon="6.09039">
        <ele>1235.43</ele>
        <time>2016-06-13T11:40:52Z</time>
      </trkpt>
      <trkpt lat="46.52688" lon="6.09023">
        <ele>1232.55</ele>
        <time>2016-06-13T11:41:04Z</time>
      </trkpt>
      <trkpt lat="46.52678" lon="6.09011">
        <ele>1231.11</ele>
        <time>2016-06-13T11:41:16Z</time>
      </trkpt>
      <trkpt lat="46.52664" lon="6.08992">
        <ele>1223.9</ele>
        <time>2016-06-13T11:41:31Z</time>
      </trkpt>
      <trkpt lat="46.52651" lon="6.0898">
        <ele>1226.3</ele>
        <time>2016-06-13T11:41:44Z</time>
      </trkpt>
      <trkpt lat="46.52639" lon="6.08961">
        <ele>1228.22</ele>
        <time>2016-06-13T11:41:59Z</time>
      </trkpt>
      <trkpt lat="46.52636" lon="6.08951">
        <ele>1229.18</ele>
        <time>2016-06-13T11:42:06Z</time>
      </trkpt>
      <trkpt lat="46.52624" lon="6.08932">
        <ele>1229.66</ele>
        <time>2016-06-13T11:42:22Z</time>
      </trkpt>
      <trkpt lat="46.52615" lon="6.08927">
        <ele>1230.14</ele>
        <time>2016-06-13T11:42:32Z</time>
      </trkpt>
      <trkpt lat="46.5261" lon="6.08925">
        <ele>1230.14</ele>
        <time>2016-06-13T11:42:37Z</time>
      </trkpt>
      <trkpt lat="46.52593" lon="6.0892">
        <ele>1231.59</ele>
        <time>2016-06-13T11:42:51Z</time>
      </trkpt>
      <trkpt lat="46.52582" lon="6.0891">
        <ele>1233.03</ele>
        <time>2016-06-13T11:43:02Z</time>
      </trkpt>
      <trkpt lat="46.52574" lon="6.08898">
        <ele>1233.51</ele>
        <time>2016-06-13T11:43:13Z</time>
      </trkpt>
      <trkpt lat="46.52566" lon="6.08887">
        <ele>1233.03</ele>
        <time>2016-06-13T11:43:23Z</time>
      </trkpt>
      <trkpt lat="46.52555" lon="6.08872">
        <ele>1232.55</ele>
        <time>2016-06-13T11:43:36Z</time>
      </trkpt>
      <trkpt lat="46.52544" lon="6.08858">
        <ele>1232.55</ele>
        <time>2016-06-13T11:43:48Z</time>
      </trkpt>
      <trkpt lat="46.52535" lon="6.08849">
        <ele>1229.66</ele>
        <time>2016-06-13T11:44:01Z</time>
      </trkpt>
      <trkpt lat="46.52524" lon="6.08837">
        <ele>1229.18</ele>
        <time>2016-06-13T11:44:13Z</time>
      </trkpt>
      <trkpt lat="46.52523" lon="6.08836">
        <ele>1229.18</ele>
        <time>2016-06-13T11:44:14Z</time>
      </trkpt>
      <trkpt lat="46.52512" lon="6.08823">
        <ele>1227.74</ele>
        <time>2016-06-13T11:44:26Z</time>
      </trkpt>
      <trkpt lat="46.52503" lon="6.08814">
        <ele>1227.74</ele>
        <time>2016-06-13T11:44:37Z</time>
      </trkpt>
      <trkpt lat="46.52494" lon="6.08799">
        <ele>1228.22</ele>
        <time>2016-06-13T11:44:47Z</time>
      </trkpt>
      <trkpt lat="46.52485" lon="6.08786">
        <ele>1227.26</ele>
        <time>2016-06-13T11:44:58Z</time>
      </trkpt>
      <trkpt lat="46.52475" lon="6.08776">
        <ele>1226.78</ele>
        <time>2016-06-13T11:45:09Z</time>
      </trkpt>
      <trkpt lat="46.52468" lon="6.08762">
        <ele>1226.3</ele>
        <time>2016-06-13T11:45:20Z</time>
      </trkpt>
      <trkpt lat="46.5246" lon="6.08748">
        <ele>1229.18</ele>
        <time>2016-06-13T11:45:32Z</time>
      </trkpt>
      <trkpt lat="46.52455" lon="6.08741">
        <ele>1229.18</ele>
        <time>2016-06-13T11:45:41Z</time>
      </trkpt>
      <trkpt lat="46.52449" lon="6.08728">
        <ele>1229.18</ele>
        <time>2016-06-13T11:45:53Z</time>
      </trkpt>
      <trkpt lat="46.52445" lon="6.08719">
        <ele>1228.7</ele>
        <time>2016-06-13T11:46:01Z</time>
      </trkpt>
      <trkpt lat="46.52441" lon="6.08697">
        <ele>1230.62</ele>
        <time>2016-06-13T11:46:15Z</time>
      </trkpt>
      <trkpt lat="46.52439" lon="6.08683">
        <ele>1231.11</ele>
        <time>2016-06-13T11:46:23Z</time>
      </trkpt>
      <trkpt lat="46.52437" lon="6.08673">
        <ele>1233.99</ele>
        <time>2016-06-13T11:46:28Z</time>
      </trkpt>
      <trkpt lat="46.52432" lon="6.08662">
        <ele>1232.07</ele>
        <time>2016-06-13T11:46:39Z</time>
      </trkpt>
      <trkpt lat="46.52427" lon="6.08651">
        <ele>1228.7</ele>
        <time>2016-06-13T11:46:50Z</time>
      </trkpt>
      <trkpt lat="46.52419" lon="6.08638">
        <ele>1230.14</ele>
        <time>2016-06-13T11:47:02Z</time>
      </trkpt>
      <trkpt lat="46.5241" lon="6.08624">
        <ele>1232.07</ele>
        <time>2016-06-13T11:47:13Z</time>
      </trkpt>
      <trkpt lat="46.52401" lon="6.08616">
        <ele>1230.62</ele>
        <time>2016-06-13T11:47:24Z</time>
      </trkpt>
      <trkpt lat="46.52391" lon="6.08604">
        <ele>1229.18</ele>
        <time>2016-06-13T11:47:35Z</time>
      </trkpt>
      <trkpt lat="46.52387" lon="6.08599">
        <ele>1228.22</ele>
        <time>2016-06-13T11:47:40Z</time>
      </trkpt>
      <trkpt lat="46.52377" lon="6.08584">
        <ele>1231.59</ele>
        <time>2016-06-13T11:47:52Z</time>
      </trkpt>
      <trkpt lat="46.52369" lon="6.08572">
        <ele>1234.95</ele>
        <time>2016-06-13T11:48:01Z</time>
      </trkpt>
      <trkpt lat="46.52354" lon="6.08558">
        <ele>1242.64</ele>
        <time>2016-06-13T11:48:17Z</time>
      </trkpt>
      <trkpt lat="46.52342" lon="6.0854">
        <ele>1243.6</ele>
        <time>2016-06-13T11:48:32Z</time>
      </trkpt>
      <trkpt lat="46.52332" lon="6.08529">
        <ele>1243.6</ele>
        <time>2016-06-13T11:48:45Z</time>
      </trkpt>
      <trkpt lat="46.5232" lon="6.08516">
        <ele>1243.6</ele>
        <time>2016-06-13T11:48:59Z</time>
      </trkpt>
      <trkpt lat="46.52311" lon="6.08505">
        <ele>1244.08</ele>
        <time>2016-06-13T11:49:11Z</time>
      </trkpt>
      <trkpt lat="46.52296" lon="6.08479">
        <ele>1246.49</ele>
        <time>2016-06-13T11:49:24Z</time>
      </trkpt>
      <trkpt lat="46.52292" lon="6.0847">
        <ele>1245.53</ele>
        <time>2016-06-13T11:49:31Z</time>
      </trkpt>
      <trkpt lat="46.52284" lon="6.08456">
        <ele>1244.08</ele>
        <time>2016-06-13T11:49:44Z</time>
      </trkpt>
      <trkpt lat="46.52268" lon="6.08435">
        <ele>1245.53</ele>
        <time>2016-06-13T11:49:59Z</time>
      </trkpt>
      <trkpt lat="46.52255" lon="6.08423">
        <ele>1247.45</ele>
        <time>2016-06-13T11:50:14Z</time>
      </trkpt>
      <trkpt lat="46.52241" lon="6.0841">
        <ele>1246.01</ele>
        <time>2016-06-13T11:50:30Z</time>
      </trkpt>
      <trkpt lat="46.52233" lon="6.08396">
        <ele>1244.56</ele>
        <time>2016-06-13T11:50:43Z</time>
      </trkpt>
      <trkpt lat="46.52228" lon="6.08381">
        <ele>1242.64</ele>
        <time>2016-06-13T11:50:54Z</time>
      </trkpt>
      <trkpt lat="46.52221" lon="6.08366">
        <ele>1244.08</ele>
        <time>2016-06-13T11:51:00Z</time>
      </trkpt>
      <trkpt lat="46.52207" lon="6.08354">
        <ele>1243.6</ele>
        <time>2016-06-13T11:51:11Z</time>
      </trkpt>
      <trkpt lat="46.52201" lon="6.08347">
        <ele>1242.64</ele>
        <time>2016-06-13T11:51:18Z</time>
      </trkpt>
      <trkpt lat="46.52189" lon="6.0834">
        <ele>1240.72</ele>
        <time>2016-06-13T11:51:30Z</time>
      </trkpt>
      <trkpt lat="46.52177" lon="6.08332">
        <ele>1237.83</ele>
        <time>2016-06-13T11:51:42Z</time>
      </trkpt>
      <trkpt lat="46.52163" lon="6.08322">
        <ele>1236.87</ele>
        <time>2016-06-13T11:51:54Z</time>
      </trkpt>
      <trkpt lat="46.52149" lon="6.0831">
        <ele>1236.39</ele>
        <time>2016-06-13T11:52:08Z</time>
      </trkpt>
      <trkpt lat="46.52148" lon="6.08307">
        <ele>1236.39</ele>
        <time>2016-06-13T11:52:10Z</time>
      </trkpt>
      <trkpt lat="46.52141" lon="6.08291">
        <ele>1230.14</ele>
        <time>2016-06-13T11:52:21Z</time>
      </trkpt>
      <trkpt lat="46.52138" lon="6.08276">
        <ele>1225.34</ele>
        <time>2016-06-13T11:52:33Z</time>
      </trkpt>
      <trkpt lat="46.52133" lon="6.08265">
        <ele>1222.45</ele>
        <time>2016-06-13T11:52:43Z</time>
      </trkpt>
      <trkpt lat="46.52123" lon="6.08248">
        <ele>1227.74</ele>
        <time>2016-06-13T11:52:55Z</time>
      </trkpt>
      <trkpt lat="46.52111" lon="6.08239">
        <ele>1233.03</ele>
        <time>2016-06-13T11:53:05Z</time>
      </trkpt>
      <trkpt lat="46.52095" lon="6.08231">
        <ele>1235.91</ele>
        <time>2016-06-13T11:53:18Z</time>
      </trkpt>
      <trkpt lat="46.52081" lon="6.08224">
        <ele>1235.91</ele>
        <time>2016-06-13T11:53:31Z</time>
      </trkpt>
      <trkpt lat="46.5208" lon="6.08223">
        <ele>1235.91</ele>
        <time>2016-06-13T11:53:32Z</time>
      </trkpt>
      <trkpt lat="46.52065" lon="6.0821">
        <ele>1238.8</ele>
        <time>2016-06-13T11:53:45Z</time>
      </trkpt>
      <trkpt lat="46.5206" lon="6.08199">
        <ele>1233.51</ele>
        <time>2016-06-13T11:53:56Z</time>
      </trkpt>
      <trkpt lat="46.52059" lon="6.0819">
        <ele>1230.62</ele>
        <time>2016-06-13T11:54:01Z</time>
      </trkpt>
      <trkpt lat="46.52048" lon="6.08169">
        <ele>1232.07</ele>
        <time>2016-06-13T11:54:15Z</time>
      </trkpt>
      <trkpt lat="46.5204" lon="6.08151">
        <ele>1229.66</ele>
        <time>2016-06-13T11:54:27Z</time>
      </trkpt>
      <trkpt lat="46.52039" lon="6.0815">
        <ele>1228.7</ele>
        <time>2016-06-13T11:54:28Z</time>
      </trkpt>
      <trkpt lat="46.52034" lon="6.0814">
        <ele>1219.09</ele>
        <time>2016-06-13T11:54:38Z</time>
      </trkpt>
      <trkpt lat="46.5203" lon="6.08127">
        <ele>1212.84</ele>
        <time>2016-06-13T11:54:50Z</time>
      </trkpt>
      <trkpt lat="46.52021" lon="6.0811">
        <ele>1210.44</ele>
        <time>2016-06-13T11:55:01Z</time>
      </trkpt>
      <trkpt lat="46.52016" lon="6.08088">
        <ele>1217.17</ele>
        <time>2016-06-13T11:55:14Z</time>
      </trkpt>
      <trkpt lat="46.5201" lon="6.0808">
        <ele>1218.61</ele>
        <time>2016-06-13T11:55:22Z</time>
      </trkpt>
      <trkpt lat="46.52001" lon="6.08067">
        <ele>1222.45</ele>
        <time>2016-06-13T11:55:35Z</time>
      </trkpt>
      <trkpt lat="46.51989" lon="6.08057">
        <ele>1222.45</ele>
        <time>2016-06-13T11:55:47Z</time>
      </trkpt>
      <trkpt lat="46.51988" lon="6.08056">
        <ele>1222.45</ele>
        <time>2016-06-13T11:55:48Z</time>
      </trkpt>
      <trkpt lat="46.51978" lon="6.08038">
        <ele>1227.74</ele>
        <time>2016-06-13T11:56:01Z</time>
      </trkpt>
      <trkpt lat="46.51971" lon="6.0803">
        <ele>1229.18</ele>
        <time>2016-06-13T11:56:12Z</time>
      </trkpt>
      <trkpt lat="46.51959" lon="6.08012">
        <ele>1232.07</ele>
        <time>2016-06-13T11:56:24Z</time>
      </trkpt>
      <trkpt lat="46.51952" lon="6.08001">
        <ele>1233.51</ele>
        <time>2016-06-13T11:56:35Z</time>
      </trkpt>
      <trkpt lat="46.51943" lon="6.0799">
        <ele>1232.55</ele>
        <time>2016-06-13T11:56:47Z</time>
      </trkpt>
      <trkpt lat="46.51935" lon="6.07972">
        <ele>1229.66</ele>
        <time>2016-06-13T11:56:58Z</time>
      </trkpt>
      <trkpt lat="46.51924" lon="6.07955">
        <ele>1229.66</ele>
        <time>2016-06-13T11:57:11Z</time>
      </trkpt>
      <trkpt lat="46.51923" lon="6.07953">
        <ele>1229.18</ele>
        <time>2016-06-13T11:57:13Z</time>
      </trkpt>
      <trkpt lat="46.51912" lon="6.0794">
        <ele>1223.9</ele>
        <time>2016-06-13T11:57:27Z</time>
      </trkpt>
      <trkpt lat="46.51906" lon="6.0793">
        <ele>1221.97</ele>
        <time>2016-06-13T11:57:37Z</time>
      </trkpt>
      <trkpt lat="46.51898" lon="6.07919">
        <ele>1223.42</ele>
        <time>2016-06-13T11:57:47Z</time>
      </trkpt>
      <trkpt lat="46.51894" lon="6.07905">
        <ele>1223.9</ele>
        <time>2016-06-13T11:57:58Z</time>
      </trkpt>
      <trkpt lat="46.51889" lon="6.07891">
        <ele>1223.42</ele>
        <time>2016-06-13T11:58:08Z</time>
      </trkpt>
      <trkpt lat="46.51882" lon="6.07871">
        <ele>1228.22</ele>
        <time>2016-06-13T11:58:20Z</time>
      </trkpt>
      <trkpt lat="46.51881" lon="6.07864">
        <ele>1226.78</ele>
        <time>2016-06-13T11:58:32Z</time>
      </trkpt>
      <trkpt lat="46.51881" lon="6.07857">
        <ele>1225.82</ele>
        <time>2016-06-13T11:58:39Z</time>
      </trkpt>
      <trkpt lat="46.51882" lon="6.07845">
        <ele>1226.3</ele>
        <time>2016-06-13T11:58:48Z</time>
      </trkpt>
      <trkpt lat="46.51874" lon="6.07827">
        <ele>1230.62</ele>
        <time>2016-06-13T11:59:02Z</time>
      </trkpt>
      <trkpt lat="46.5187" lon="6.07822">
        <ele>1232.07</ele>
        <time>2016-06-13T11:59:13Z</time>
      </trkpt>
      <trkpt lat="46.51865" lon="6.07819">
        <ele>1233.03</ele>
        <time>2016-06-13T11:59:19Z</time>
      </trkpt>
      <trkpt lat="46.5185" lon="6.07814">
        <ele>1238.8</ele>
        <time>2016-06-13T11:59:30Z</time>
      </trkpt>
      <trkpt lat="46.51837" lon="6.07827">
        <ele>1240.24</ele>
        <time>2016-06-13T11:59:45Z</time>
      </trkpt>
      <trkpt lat="46.51835" lon="6.0783">
        <ele>1240.24</ele>
        <time>2016-06-13T11:59:48Z</time>
      </trkpt>
      <trkpt lat="46.51828" lon="6.0784">
        <ele>1236.87</ele>
        <time>2016-06-13T12:00:01Z</time>
      </trkpt>
      <trkpt lat="46.51827" lon="6.0785">
        <ele>1234.47</ele>
        <time>2016-06-13T12:00:16Z</time>
      </trkpt>
      <trkpt lat="46.51823" lon="6.07864">
        <ele>1233.51</ele>
        <time>2016-06-13T12:00:27Z</time>
      </trkpt>
      <trkpt lat="46.51814" lon="6.07878">
        <ele>1235.91</ele>
        <time>2016-06-13T12:00:36Z</time>
      </trkpt>
      <trkpt lat="46.51806" lon="6.07887">
        <ele>1236.87</ele>
        <time>2016-06-13T12:00:48Z</time>
      </trkpt>
      <trkpt lat="46.51804" lon="6.0789">
        <ele>1237.35</ele>
        <time>2016-06-13T12:00:50Z</time>
      </trkpt>
      <trkpt lat="46.51792" lon="6.07895">
        <ele>1240.72</ele>
        <time>2016-06-13T12:01:05Z</time>
      </trkpt>
      <trkpt lat="46.51778" lon="6.07893">
        <ele>1242.64</ele>
        <time>2016-06-13T12:01:19Z</time>
      </trkpt>
      <trkpt lat="46.51773" lon="6.07894">
        <ele>1245.53</ele>
        <time>2016-06-13T12:01:39Z</time>
      </trkpt>
      <trkpt lat="46.51769" lon="6.07893">
        <ele>1245.04</ele>
        <time>2016-06-13T12:01:56Z</time>
      </trkpt>
      <trkpt lat="46.51763" lon="6.07892">
        <ele>1245.04</ele>
        <time>2016-06-13T12:02:13Z</time>
      </trkpt>
      <trkpt lat="46.51748" lon="6.07883">
        <ele>1244.56</ele>
        <time>2016-06-13T12:02:27Z</time>
      </trkpt>
      <trkpt lat="46.51735" lon="6.07877">
        <ele>1246.49</ele>
        <time>2016-06-13T12:02:41Z</time>
      </trkpt>
      <trkpt lat="46.51723" lon="6.07871">
        <ele>1250.81</ele>
        <time>2016-06-13T12:02:53Z</time>
      </trkpt>
      <trkpt lat="46.51711" lon="6.07864">
        <ele>1254.66</ele>
        <time>2016-06-13T12:03:05Z</time>
      </trkpt>
      <trkpt lat="46.5171" lon="6.07864">
        <ele>1255.14</ele>
        <time>2016-06-13T12:03:06Z</time>
      </trkpt>
      <trkpt lat="46.51695" lon="6.07854">
        <ele>1255.62</ele>
        <time>2016-06-13T12:03:22Z</time>
      </trkpt>
      <trkpt lat="46.51687" lon="6.07847">
        <ele>1256.1</ele>
        <time>2016-06-13T12:03:34Z</time>
      </trkpt>
      <trkpt lat="46.5168" lon="6.0784">
        <ele>1257.06</ele>
        <time>2016-06-13T12:03:45Z</time>
      </trkpt>
      <trkpt lat="46.51673" lon="6.07833">
        <ele>1258.02</ele>
        <time>2016-06-13T12:03:57Z</time>
      </trkpt>
      <trkpt lat="46.51661" lon="6.07824">
        <ele>1258.5</ele>
        <time>2016-06-13T12:04:11Z</time>
      </trkpt>
      <trkpt lat="46.51652" lon="6.07817">
        <ele>1259.94</ele>
        <time>2016-06-13T12:04:22Z</time>
      </trkpt>
      <trkpt lat="46.51641" lon="6.07812">
        <ele>1259.46</ele>
        <time>2016-06-13T12:04:35Z</time>
      </trkpt>
      <trkpt lat="46.51632" lon="6.07807">
        <ele>1260.43</ele>
        <time>2016-06-13T12:04:47Z</time>
      </trkpt>
      <trkpt lat="46.51621" lon="6.07809">
        <ele>1260.43</ele>
        <time>2016-06-13T12:04:59Z</time>
      </trkpt>
      <trkpt lat="46.51617" lon="6.07812">
        <ele>1259.46</ele>
        <time>2016-06-13T12:05:06Z</time>
      </trkpt>
      <trkpt lat="46.51612" lon="6.07823">
        <ele>1260.43</ele>
        <time>2016-06-13T12:05:15Z</time>
      </trkpt>
      <trkpt lat="46.5161" lon="6.07829">
        <ele>1261.39</ele>
        <time>2016-06-13T12:05:20Z</time>
      </trkpt>
      <trkpt lat="46.51611" lon="6.07837">
        <ele>1260.43</ele>
        <time>2016-06-13T12:05:27Z</time>
      </trkpt>
      <trkpt lat="46.51611" lon="6.0784">
        <ele>1258.98</ele>
        <time>2016-06-13T12:05:30Z</time>
      </trkpt>
      <trkpt lat="46.5161" lon="6.07851">
        <ele>1261.39</ele>
        <time>2016-06-13T12:05:36Z</time>
      </trkpt>
      <trkpt lat="46.51616" lon="6.07864">
        <ele>1266.67</ele>
        <time>2016-06-13T12:05:43Z</time>
      </trkpt>
      <trkpt lat="46.51619" lon="6.07868">
        <ele>1268.6</ele>
        <time>2016-06-13T12:05:47Z</time>
      </trkpt>
      <trkpt lat="46.51615" lon="6.07884">
        <ele>1271</ele>
        <time>2016-06-13T12:05:58Z</time>
      </trkpt>
      <trkpt lat="46.51615" lon="6.07885">
        <ele>1270.52</ele>
        <time>2016-06-13T12:05:59Z</time>
      </trkpt>
      <trkpt lat="46.51611" lon="6.07891">
        <ele>1270.52</ele>
        <time>2016-06-13T12:06:04Z</time>
      </trkpt>
      <trkpt lat="46.51605" lon="6.07903">
        <ele>1269.08</ele>
        <time>2016-06-13T12:06:15Z</time>
      </trkpt>
      <trkpt lat="46.51605" lon="6.07908">
        <ele>1268.6</ele>
        <time>2016-06-13T12:06:18Z</time>
      </trkpt>
      <trkpt lat="46.51601" lon="6.07916">
        <ele>1268.12</ele>
        <time>2016-06-13T12:06:26Z</time>
      </trkpt>
      <trkpt lat="46.51601" lon="6.07917">
        <ele>1268.12</ele>
        <time>2016-06-13T12:06:27Z</time>
      </trkpt>
      <trkpt lat="46.51597" lon="6.0793">
        <ele>1264.75</ele>
        <time>2016-06-13T12:06:39Z</time>
      </trkpt>
      <trkpt lat="46.51592" lon="6.07943">
        <ele>1261.39</ele>
        <time>2016-06-13T12:06:48Z</time>
      </trkpt>
      <trkpt lat="46.51589" lon="6.07952">
        <ele>1258.98</ele>
        <time>2016-06-13T12:06:57Z</time>
      </trkpt>
      <trkpt lat="46.51586" lon="6.07961">
        <ele>1258.98</ele>
        <time>2016-06-13T12:07:04Z</time>
      </trkpt>
      <trkpt lat="46.51576" lon="6.07976">
        <ele>1259.46</ele>
        <time>2016-06-13T12:07:16Z</time>
      </trkpt>
      <trkpt lat="46.51561" lon="6.07988">
        <ele>1261.39</ele>
        <time>2016-06-13T12:07:31Z</time>
      </trkpt>
      <trkpt lat="46.51555" lon="6.07988">
        <ele>1259.46</ele>
        <time>2016-06-13T12:07:37Z</time>
      </trkpt>
      <trkpt lat="46.51542" lon="6.07984">
        <ele>1260.43</ele>
        <time>2016-06-13T12:07:49Z</time>
      </trkpt>
      <trkpt lat="46.51534" lon="6.07978">
        <ele>1259.46</ele>
        <time>2016-06-13T12:07:59Z</time>
      </trkpt>
      <trkpt lat="46.51525" lon="6.07972">
        <ele>1258.98</ele>
        <time>2016-06-13T12:08:12Z</time>
      </trkpt>
      <trkpt lat="46.51507" lon="6.07956">
        <ele>1262.35</ele>
        <time>2016-06-13T12:08:25Z</time>
      </trkpt>
      <trkpt lat="46.515" lon="6.07949">
        <ele>1265.71</ele>
        <time>2016-06-13T12:08:35Z</time>
      </trkpt>
      <trkpt lat="46.51486" lon="6.07941">
        <ele>1268.12</ele>
        <time>2016-06-13T12:08:47Z</time>
      </trkpt>
      <trkpt lat="46.51485" lon="6.07939">
        <ele>1268.12</ele>
        <time>2016-06-13T12:08:48Z</time>
      </trkpt>
      <trkpt lat="46.51476" lon="6.07929">
        <ele>1270.04</ele>
        <time>2016-06-13T12:08:59Z</time>
      </trkpt>
      <trkpt lat="46.51466" lon="6.07918">
        <ele>1268.6</ele>
        <time>2016-06-13T12:09:11Z</time>
      </trkpt>
      <trkpt lat="46.51458" lon="6.07901">
        <ele>1267.64</ele>
        <time>2016-06-13T12:09:23Z</time>
      </trkpt>
      <trkpt lat="46.51449" lon="6.07892">
        <ele>1266.67</ele>
        <time>2016-06-13T12:09:33Z</time>
      </trkpt>
      <trkpt lat="46.51437" lon="6.07883">
        <ele>1265.23</ele>
        <time>2016-06-13T12:09:46Z</time>
      </trkpt>
      <trkpt lat="46.51427" lon="6.07876">
        <ele>1264.75</ele>
        <time>2016-06-13T12:09:57Z</time>
      </trkpt>
      <trkpt lat="46.51415" lon="6.07866">
        <ele>1266.19</ele>
        <time>2016-06-13T12:10:08Z</time>
      </trkpt>
      <trkpt lat="46.51412" lon="6.07864">
        <ele>1265.23</ele>
        <time>2016-06-13T12:10:11Z</time>
      </trkpt>
      <trkpt lat="46.51403" lon="6.07857">
        <ele>1265.71</ele>
        <time>2016-06-13T12:10:21Z</time>
      </trkpt>
      <trkpt lat="46.51391" lon="6.07847">
        <ele>1261.87</ele>
        <time>2016-06-13T12:10:33Z</time>
      </trkpt>
      <trkpt lat="46.51387" lon="6.0784">
        <ele>1260.43</ele>
        <time>2016-06-13T12:10:40Z</time>
      </trkpt>
      <trkpt lat="46.51382" lon="6.07824">
        <ele>1260.43</ele>
        <time>2016-06-13T12:10:53Z</time>
      </trkpt>
      <trkpt lat="46.51381" lon="6.07824">
        <ele>1260.43</ele>
        <time>2016-06-13T12:10:54Z</time>
      </trkpt>
      <trkpt lat="46.5138" lon="6.07816">
        <ele>1260.43</ele>
        <time>2016-06-13T12:10:59Z</time>
      </trkpt>
      <trkpt lat="46.51378" lon="6.07812">
        <ele>1261.39</ele>
        <time>2016-06-13T12:11:02Z</time>
      </trkpt>
      <trkpt lat="46.51374" lon="6.07786">
        <ele>1269.56</ele>
        <time>2016-06-13T12:11:14Z</time>
      </trkpt>
      <trkpt lat="46.51373" lon="6.0778">
        <ele>1269.56</ele>
        <time>2016-06-13T12:11:18Z</time>
      </trkpt>
      <trkpt lat="46.5137" lon="6.07765">
        <ele>1268.6</ele>
        <time>2016-06-13T12:11:29Z</time>
      </trkpt>
      <trkpt lat="46.51365" lon="6.07759">
        <ele>1264.27</ele>
        <time>2016-06-13T12:11:39Z</time>
      </trkpt>
      <trkpt lat="46.51353" lon="6.07748">
        <ele>1265.23</ele>
        <time>2016-06-13T12:11:51Z</time>
      </trkpt>
      <trkpt lat="46.51349" lon="6.07742">
        <ele>1266.19</ele>
        <time>2016-06-13T12:11:55Z</time>
      </trkpt>
      <trkpt lat="46.51341" lon="6.0773">
        <ele>1267.16</ele>
        <time>2016-06-13T12:12:05Z</time>
      </trkpt>
      <trkpt lat="46.51331" lon="6.07722">
        <ele>1265.71</ele>
        <time>2016-06-13T12:12:15Z</time>
      </trkpt>
      <trkpt lat="46.51325" lon="6.07711">
        <ele>1263.31</ele>
        <time>2016-06-13T12:12:27Z</time>
      </trkpt>
      <trkpt lat="46.51324" lon="6.07709">
        <ele>1262.35</ele>
        <time>2016-06-13T12:12:29Z</time>
      </trkpt>
      <trkpt lat="46.51317" lon="6.07695">
        <ele>1259.46</ele>
        <time>2016-06-13T12:12:39Z</time>
      </trkpt>
      <trkpt lat="46.51316" lon="6.07692">
        <ele>1258.98</ele>
        <time>2016-06-13T12:12:41Z</time>
      </trkpt>
      <trkpt lat="46.51308" lon="6.07673">
        <ele>1259.46</ele>
        <time>2016-06-13T12:12:53Z</time>
      </trkpt>
      <trkpt lat="46.51304" lon="6.07664">
        <ele>1254.66</ele>
        <time>2016-06-13T12:13:04Z</time>
      </trkpt>
      <trkpt lat="46.51298" lon="6.07655">
        <ele>1248.41</ele>
        <time>2016-06-13T12:13:14Z</time>
      </trkpt>
      <trkpt lat="46.51294" lon="6.07648">
        <ele>1247.93</ele>
        <time>2016-06-13T12:13:20Z</time>
      </trkpt>
      <trkpt lat="46.51283" lon="6.07624">
        <ele>1260.43</ele>
        <time>2016-06-13T12:13:35Z</time>
      </trkpt>
      <trkpt lat="46.51274" lon="6.07621">
        <ele>1263.31</ele>
        <time>2016-06-13T12:13:46Z</time>
      </trkpt>
      <trkpt lat="46.51263" lon="6.0762">
        <ele>1265.23</ele>
        <time>2016-06-13T12:13:57Z</time>
      </trkpt>
      <trkpt lat="46.5125" lon="6.07619">
        <ele>1266.67</ele>
        <time>2016-06-13T12:14:09Z</time>
      </trkpt>
      <trkpt lat="46.51235" lon="6.07616">
        <ele>1269.56</ele>
        <time>2016-06-13T12:14:22Z</time>
      </trkpt>
      <trkpt lat="46.51234" lon="6.07613">
        <ele>1269.08</ele>
        <time>2016-06-13T12:14:24Z</time>
      </trkpt>
      <trkpt lat="46.51231" lon="6.07609">
        <ele>1269.08</ele>
        <time>2016-06-13T12:14:27Z</time>
      </trkpt>
      <trkpt lat="46.51229" lon="6.07609">
        <ele>1269.08</ele>
        <time>2016-06-13T12:14:29Z</time>
      </trkpt>
      <trkpt lat="46.51224" lon="6.07602">
        <ele>1268.6</ele>
        <time>2016-06-13T12:14:36Z</time>
      </trkpt>
      <trkpt lat="46.51215" lon="6.07595">
        <ele>1267.64</ele>
        <time>2016-06-13T12:14:44Z</time>
      </trkpt>
      <trkpt lat="46.5121" lon="6.07577">
        <ele>1268.6</ele>
        <time>2016-06-13T12:14:56Z</time>
      </trkpt>
      <trkpt lat="46.51208" lon="6.07569">
        <ele>1268.12</ele>
        <time>2016-06-13T12:15:02Z</time>
      </trkpt>
      <trkpt lat="46.51207" lon="6.07562">
        <ele>1269.08</ele>
        <time>2016-06-13T12:15:05Z</time>
      </trkpt>
      <trkpt lat="46.51207" lon="6.07558">
        <ele>1269.08</ele>
        <time>2016-06-13T12:15:07Z</time>
      </trkpt>
      <trkpt lat="46.51206" lon="6.07552">
        <ele>1269.56</ele>
        <time>2016-06-13T12:15:10Z</time>
      </trkpt>
      <trkpt lat="46.51205" lon="6.07539">
        <ele>1270.52</ele>
        <time>2016-06-13T12:15:19Z</time>
      </trkpt>
      <trkpt lat="46.51198" lon="6.0752">
        <ele>1270.04</ele>
        <time>2016-06-13T12:15:33Z</time>
      </trkpt>
      <trkpt lat="46.51195" lon="6.07512">
        <ele>1269.08</ele>
        <time>2016-06-13T12:15:39Z</time>
      </trkpt>
      <trkpt lat="46.51188" lon="6.07503">
        <ele>1267.16</ele>
        <time>2016-06-13T12:15:51Z</time>
      </trkpt>
      <trkpt lat="46.51179" lon="6.07495">
        <ele>1264.27</ele>
        <time>2016-06-13T12:16:03Z</time>
      </trkpt>
      <trkpt lat="46.51176" lon="6.07488">
        <ele>1264.75</ele>
        <time>2016-06-13T12:16:08Z</time>
      </trkpt>
      <trkpt lat="46.51168" lon="6.07475">
        <ele>1265.71</ele>
        <time>2016-06-13T12:16:20Z</time>
      </trkpt>
      <trkpt lat="46.51159" lon="6.07464">
        <ele>1266.19</ele>
        <time>2016-06-13T12:16:32Z</time>
      </trkpt>
      <trkpt lat="46.51148" lon="6.07452">
        <ele>1268.12</ele>
        <time>2016-06-13T12:16:46Z</time>
      </trkpt>
      <trkpt lat="46.5114" lon="6.07443">
        <ele>1266.67</ele>
        <time>2016-06-13T12:16:55Z</time>
      </trkpt>
      <trkpt lat="46.51139" lon="6.07436">
        <ele>1266.19</ele>
        <time>2016-06-13T12:16:59Z</time>
      </trkpt>
      <trkpt lat="46.51133" lon="6.07427">
        <ele>1267.64</ele>
        <time>2016-06-13T12:17:08Z</time>
      </trkpt>
      <trkpt lat="46.51122" lon="6.07412">
        <ele>1271</ele>
        <time>2016-06-13T12:17:20Z</time>
      </trkpt>
      <trkpt lat="46.5111" lon="6.07392">
        <ele>1270.52</ele>
        <time>2016-06-13T12:17:35Z</time>
      </trkpt>
      <trkpt lat="46.51101" lon="6.07378">
        <ele>1270.04</ele>
        <time>2016-06-13T12:17:49Z</time>
      </trkpt>
      <trkpt lat="46.51094" lon="6.07367">
        <ele>1268.12</ele>
        <time>2016-06-13T12:18:01Z</time>
      </trkpt>
      <trkpt lat="46.51092" lon="6.07365">
        <ele>1267.64</ele>
        <time>2016-06-13T12:18:03Z</time>
      </trkpt>
      <trkpt lat="46.51089" lon="6.0736">
        <ele>1267.64</ele>
        <time>2016-06-13T12:18:07Z</time>
      </trkpt>
      <trkpt lat="46.51086" lon="6.07357">
        <ele>1266.19</ele>
        <time>2016-06-13T12:18:10Z</time>
      </trkpt>
      <trkpt lat="46.51084" lon="6.07354">
        <ele>1264.75</ele>
        <time>2016-06-13T12:18:13Z</time>
      </trkpt>
      <trkpt lat="46.51078" lon="6.07345">
        <ele>1262.83</ele>
        <time>2016-06-13T12:18:21Z</time>
      </trkpt>
      <trkpt lat="46.5107" lon="6.0733">
        <ele>1259.46</ele>
        <time>2016-06-13T12:18:34Z</time>
      </trkpt>
      <trkpt lat="46.51066" lon="6.07326">
        <ele>1260.43</ele>
        <time>2016-06-13T12:18:38Z</time>
      </trkpt>
      <trkpt lat="46.51063" lon="6.07324">
        <ele>1260.91</ele>
        <time>2016-06-13T12:18:58Z</time>
      </trkpt>
      <trkpt lat="46.51056" lon="6.07317">
        <ele>1259.94</ele>
        <time>2016-06-13T12:19:07Z</time>
      </trkpt>
      <trkpt lat="46.51049" lon="6.07308">
        <ele>1257.54</ele>
        <time>2016-06-13T12:19:14Z</time>
      </trkpt>
      <trkpt lat="46.51036" lon="6.07291">
        <ele>1257.06</ele>
        <time>2016-06-13T12:19:27Z</time>
      </trkpt>
      <trkpt lat="46.51027" lon="6.07279">
        <ele>1253.22</ele>
        <time>2016-06-13T12:19:39Z</time>
      </trkpt>
      <trkpt lat="46.5102" lon="6.07265">
        <ele>1252.25</ele>
        <time>2016-06-13T12:19:48Z</time>
      </trkpt>
      <trkpt lat="46.51019" lon="6.07261">
        <ele>1251.77</ele>
        <time>2016-06-13T12:19:50Z</time>
      </trkpt>
      <trkpt lat="46.51008" lon="6.0724">
        <ele>1253.22</ele>
        <time>2016-06-13T12:20:04Z</time>
      </trkpt>
      <trkpt lat="46.51004" lon="6.07229">
        <ele>1252.74</ele>
        <time>2016-06-13T12:20:12Z</time>
      </trkpt>
      <trkpt lat="46.51001" lon="6.07224">
        <ele>1252.74</ele>
        <time>2016-06-13T12:20:16Z</time>
      </trkpt>
      <trkpt lat="46.50996" lon="6.07217">
        <ele>1253.22</ele>
        <time>2016-06-13T12:20:22Z</time>
      </trkpt>
      <trkpt lat="46.50994" lon="6.07212">
        <ele>1252.25</ele>
        <time>2016-06-13T12:20:27Z</time>
      </trkpt>
      <trkpt lat="46.50991" lon="6.07207">
        <ele>1252.74</ele>
        <time>2016-06-13T12:20:30Z</time>
      </trkpt>
      <trkpt lat="46.50981" lon="6.07192">
        <ele>1251.29</ele>
        <time>2016-06-13T12:20:43Z</time>
      </trkpt>
      <trkpt lat="46.50976" lon="6.07188">
        <ele>1249.85</ele>
        <time>2016-06-13T12:20:47Z</time>
      </trkpt>
      <trkpt lat="46.50971" lon="6.0717">
        <ele>1247.93</ele>
        <time>2016-06-13T12:20:59Z</time>
      </trkpt>
      <trkpt lat="46.50971" lon="6.07169">
        <ele>1247.45</ele>
        <time>2016-06-13T12:21:00Z</time>
      </trkpt>
      <trkpt lat="46.50969" lon="6.07165">
        <ele>1247.45</ele>
        <time>2016-06-13T12:21:02Z</time>
      </trkpt>
      <trkpt lat="46.50968" lon="6.0716">
        <ele>1246.49</ele>
        <time>2016-06-13T12:21:07Z</time>
      </trkpt>
      <trkpt lat="46.50967" lon="6.07152">
        <ele>1247.45</ele>
        <time>2016-06-13T12:21:11Z</time>
      </trkpt>
      <trkpt lat="46.50966" lon="6.07143">
        <ele>1247.93</ele>
        <time>2016-06-13T12:21:16Z</time>
      </trkpt>
      <trkpt lat="46.50962" lon="6.07122">
        <ele>1247.45</ele>
        <time>2016-06-13T12:21:30Z</time>
      </trkpt>
      <trkpt lat="46.5096" lon="6.07119">
        <ele>1247.93</ele>
        <time>2016-06-13T12:21:32Z</time>
      </trkpt>
      <trkpt lat="46.50956" lon="6.07108">
        <ele>1246.97</ele>
        <time>2016-06-13T12:21:40Z</time>
      </trkpt>
      <trkpt lat="46.50951" lon="6.07089">
        <ele>1247.93</ele>
        <time>2016-06-13T12:21:51Z</time>
      </trkpt>
      <trkpt lat="46.50951" lon="6.07087">
        <ele>1248.41</ele>
        <time>2016-06-13T12:21:52Z</time>
      </trkpt>
      <trkpt lat="46.50943" lon="6.0707">
        <ele>1249.85</ele>
        <time>2016-06-13T12:22:05Z</time>
      </trkpt>
      <trkpt lat="46.50941" lon="6.07062">
        <ele>1250.33</ele>
        <time>2016-06-13T12:22:12Z</time>
      </trkpt>
      <trkpt lat="46.50931" lon="6.07053">
        <ele>1252.25</ele>
        <time>2016-06-13T12:22:29Z</time>
      </trkpt>
      <trkpt lat="46.5092" lon="6.07045">
        <ele>1254.18</ele>
        <time>2016-06-13T12:22:43Z</time>
      </trkpt>
      <trkpt lat="46.50909" lon="6.07036">
        <ele>1255.14</ele>
        <time>2016-06-13T12:22:56Z</time>
      </trkpt>
      <trkpt lat="46.50899" lon="6.07029">
        <ele>1256.58</ele>
        <time>2016-06-13T12:23:07Z</time>
      </trkpt>
      <trkpt lat="46.50888" lon="6.07022">
        <ele>1255.62</ele>
        <time>2016-06-13T12:23:24Z</time>
      </trkpt>
      <trkpt lat="46.50885" lon="6.0702">
        <ele>1254.66</ele>
        <time>2016-06-13T12:23:40Z</time>
      </trkpt>
      <trkpt lat="46.50878" lon="6.07017">
        <ele>1252.74</ele>
        <time>2016-06-13T12:24:02Z</time>
      </trkpt>
      <trkpt lat="46.50865" lon="6.07005">
        <ele>1250.33</ele>
        <time>2016-06-13T12:24:15Z</time>
      </trkpt>
      <trkpt lat="46.50859" lon="6.06998">
        <ele>1250.33</ele>
        <time>2016-06-13T12:24:22Z</time>
      </trkpt>
      <trkpt lat="46.50844" lon="6.06984">
        <ele>1247.45</ele>
        <time>2016-06-13T12:24:37Z</time>
      </trkpt>
      <trkpt lat="46.50836" lon="6.06978">
        <ele>1247.45</ele>
        <time>2016-06-13T12:24:51Z</time>
      </trkpt>
      <trkpt lat="46.50834" lon="6.06979">
        <ele>1248.41</ele>
        <time>2016-06-13T12:25:11Z</time>
      </trkpt>
      <trkpt lat="46.50832" lon="6.06977">
        <ele>1248.41</ele>
        <time>2016-06-13T12:25:29Z</time>
      </trkpt>
      <trkpt lat="46.50832" lon="6.06976">
        <ele>1248.41</ele>
        <time>2016-06-13T12:25:50Z</time>
      </trkpt>
      <trkpt lat="46.50831" lon="6.06973">
        <ele>1250.33</ele>
        <time>2016-06-13T12:26:16Z</time>
      </trkpt>
      <trkpt lat="46.50831" lon="6.06973">
        <ele>1250.81</ele>
        <time>2016-06-13T12:26:41Z</time>
      </trkpt>
      <trkpt lat="46.50831" lon="6.06972">
        <ele>1250.81</ele>
        <time>2016-06-13T12:27:04Z</time>
      </trkpt>
      <trkpt lat="46.50832" lon="6.06976">
        <ele>1250.81</ele>
        <time>2016-06-13T12:27:24Z</time>
      </trkpt>
      <trkpt lat="46.50827" lon="6.06973">
        <ele>1249.37</ele>
        <time>2016-06-13T12:27:35Z</time>
      </trkpt>
      <trkpt lat="46.50819" lon="6.06964">
        <ele>1250.81</ele>
        <time>2016-06-13T12:27:47Z</time>
      </trkpt>
      <trkpt lat="46.5081" lon="6.0695">
        <ele>1252.25</ele>
        <time>2016-06-13T12:27:59Z</time>
      </trkpt>
      <trkpt lat="46.50804" lon="6.06939">
        <ele>1251.77</ele>
        <time>2016-06-13T12:28:10Z</time>
      </trkpt>
      <trkpt lat="46.50799" lon="6.0693">
        <ele>1250.81</ele>
        <time>2016-06-13T12:28:18Z</time>
      </trkpt>
      <trkpt lat="46.50794" lon="6.06924">
        <ele>1250.33</ele>
        <time>2016-06-13T12:28:24Z</time>
      </trkpt>
      <trkpt lat="46.50783" lon="6.06912">
        <ele>1248.41</ele>
        <time>2016-06-13T12:28:36Z</time>
      </trkpt>
      <trkpt lat="46.50773" lon="6.06906">
        <ele>1243.12</ele>
        <time>2016-06-13T12:28:49Z</time>
      </trkpt>
      <trkpt lat="46.50769" lon="6.06903">
        <ele>1241.68</ele>
        <time>2016-06-13T12:28:53Z</time>
      </trkpt>
      <trkpt lat="46.50753" lon="6.069">
        <ele>1244.08</ele>
        <time>2016-06-13T12:29:08Z</time>
      </trkpt>
      <trkpt lat="46.50746" lon="6.06903">
        <ele>1244.56</ele>
        <time>2016-06-13T12:29:20Z</time>
      </trkpt>
      <trkpt lat="46.50744" lon="6.06904">
        <ele>1244.56</ele>
        <time>2016-06-13T12:29:22Z</time>
      </trkpt>
      <trkpt lat="46.50733" lon="6.06909">
        <ele>1245.53</ele>
        <time>2016-06-13T12:29:31Z</time>
      </trkpt>
      <trkpt lat="46.50733" lon="6.06909">
        <ele>1245.53</ele>
        <time>2016-06-13T12:29:32Z</time>
      </trkpt>
      <trkpt lat="46.50722" lon="6.06913">
        <ele>1246.01</ele>
        <time>2016-06-13T12:29:37Z</time>
      </trkpt>
      <trkpt lat="46.50713" lon="6.06915">
        <ele>1246.01</ele>
        <time>2016-06-13T12:29:47Z</time>
      </trkpt>
      <trkpt lat="46.50707" lon="6.06916">
        <ele>1244.56</ele>
        <time>2016-06-13T12:30:02Z</time>
      </trkpt>
      <trkpt lat="46.50701" lon="6.06921">
        <ele>1243.12</ele>
        <time>2016-06-13T12:30:14Z</time>
      </trkpt>
      <trkpt lat="46.50691" lon="6.0693">
        <ele>1244.08</ele>
        <time>2016-06-13T12:30:19Z</time>
      </trkpt>
      <trkpt lat="46.50674" lon="6.06934">
        <ele>1244.56</ele>
        <time>2016-06-13T12:30:32Z</time>
      </trkpt>
      <trkpt lat="46.50664" lon="6.06924">
        <ele>1238.32</ele>
        <time>2016-06-13T12:30:43Z</time>
      </trkpt>
      <trkpt lat="46.50652" lon="6.06904">
        <ele>1234.95</ele>
        <time>2016-06-13T12:30:57Z</time>
      </trkpt>
      <trkpt lat="46.50643" lon="6.06897">
        <ele>1233.03</ele>
        <time>2016-06-13T12:31:08Z</time>
      </trkpt>
      <trkpt lat="46.50634" lon="6.06888">
        <ele>1230.14</ele>
        <time>2016-06-13T12:31:21Z</time>
      </trkpt>
      <trkpt lat="46.50625" lon="6.06872">
        <ele>1231.59</ele>
        <time>2016-06-13T12:31:34Z</time>
      </trkpt>
      <trkpt lat="46.50619" lon="6.06851">
        <ele>1236.87</ele>
        <time>2016-06-13T12:31:49Z</time>
      </trkpt>
      <trkpt lat="46.50604" lon="6.06839">
        <ele>1234.95</ele>
        <time>2016-06-13T12:32:03Z</time>
      </trkpt>
      <trkpt lat="46.50594" lon="6.06828">
        <ele>1235.91</ele>
        <time>2016-06-13T12:32:14Z</time>
      </trkpt>
      <trkpt lat="46.50587" lon="6.0682">
        <ele>1233.99</ele>
        <time>2016-06-13T12:32:23Z</time>
      </trkpt>
      <trkpt lat="46.50582" lon="6.0681">
        <ele>1230.14</ele>
        <time>2016-06-13T12:32:34Z</time>
      </trkpt>
      <trkpt lat="46.50579" lon="6.06806">
        <ele>1228.7</ele>
        <time>2016-06-13T12:32:37Z</time>
      </trkpt>
      <trkpt lat="46.50571" lon="6.06794">
        <ele>1226.3</ele>
        <time>2016-06-13T12:32:51Z</time>
      </trkpt>
      <trkpt lat="46.50565" lon="6.06774">
        <ele>1230.14</ele>
        <time>2016-06-13T12:33:02Z</time>
      </trkpt>
      <trkpt lat="46.50553" lon="6.06768">
        <ele>1227.74</ele>
        <time>2016-06-13T12:33:16Z</time>
      </trkpt>
      <trkpt lat="46.50551" lon="6.06764">
        <ele>1226.78</ele>
        <time>2016-06-13T12:33:20Z</time>
      </trkpt>
      <trkpt lat="46.50533" lon="6.06767">
        <ele>1221.49</ele>
        <time>2016-06-13T12:33:33Z</time>
      </trkpt>
      <trkpt lat="46.5052" lon="6.06777">
        <ele>1219.57</ele>
        <time>2016-06-13T12:33:48Z</time>
      </trkpt>
      <trkpt lat="46.50517" lon="6.0678">
        <ele>1220.05</ele>
        <time>2016-06-13T12:33:52Z</time>
      </trkpt>
      <trkpt lat="46.50519" lon="6.06779">
        <ele>1219.09</ele>
        <time>2016-06-13T12:34:02Z</time>
      </trkpt>
      <trkpt lat="46.50522" lon="6.06781">
        <ele>1219.57</ele>
        <time>2016-06-13T12:34:14Z</time>
      </trkpt>
      <trkpt lat="46.50522" lon="6.0678">
        <ele>1217.17</ele>
        <time>2016-06-13T12:34:47Z</time>
      </trkpt>
      <trkpt lat="46.50526" lon="6.06782">
        <ele>1217.65</ele>
        <time>2016-06-13T12:34:55Z</time>
      </trkpt>
      <trkpt lat="46.50529" lon="6.06785">
        <ele>1217.65</ele>
        <time>2016-06-13T12:34:58Z</time>
      </trkpt>
      <trkpt lat="46.5054" lon="6.06798">
        <ele>1217.65</ele>
        <time>2016-06-13T12:35:11Z</time>
      </trkpt>
      <trkpt lat="46.50542" lon="6.06803">
        <ele>1216.69</ele>
        <time>2016-06-13T12:35:16Z</time>
      </trkpt>
      <trkpt lat="46.50546" lon="6.06816">
        <ele>1216.21</ele>
        <time>2016-06-13T12:35:23Z</time>
      </trkpt>
      <trkpt lat="46.50548" lon="6.06824">
        <ele>1217.17</ele>
        <time>2016-06-13T12:35:28Z</time>
      </trkpt>
      <trkpt lat="46.50551" lon="6.0683">
        <ele>1217.17</ele>
        <time>2016-06-13T12:35:33Z</time>
      </trkpt>
      <trkpt lat="46.50553" lon="6.06832">
        <ele>1217.17</ele>
        <time>2016-06-13T12:35:35Z</time>
      </trkpt>
      <trkpt lat="46.50559" lon="6.06843">
        <ele>1214.76</ele>
        <time>2016-06-13T12:35:46Z</time>
      </trkpt>
      <trkpt lat="46.50565" lon="6.06852">
        <ele>1212.84</ele>
        <time>2016-06-13T12:35:56Z</time>
      </trkpt>
      <trkpt lat="46.50569" lon="6.06862">
        <ele>1212.36</ele>
        <time>2016-06-13T12:36:05Z</time>
      </trkpt>
      <trkpt lat="46.50574" lon="6.06876">
        <ele>1212.36</ele>
        <time>2016-06-13T12:36:14Z</time>
      </trkpt>
      <trkpt lat="46.50579" lon="6.06886">
        <ele>1213.8</ele>
        <time>2016-06-13T12:36:22Z</time>
      </trkpt>
      <trkpt lat="46.5058" lon="6.06888">
        <ele>1213.32</ele>
        <time>2016-06-13T12:36:24Z</time>
      </trkpt>
      <trkpt lat="46.50581" lon="6.06893">
        <ele>1214.76</ele>
        <time>2016-06-13T12:36:28Z</time>
      </trkpt>
      <trkpt lat="46.50587" lon="6.06904">
        <ele>1214.28</ele>
        <time>2016-06-13T12:36:36Z</time>
      </trkpt>
      <trkpt lat="46.50587" lon="6.06907">
        <ele>1214.28</ele>
        <time>2016-06-13T12:36:38Z</time>
      </trkpt>
      <trkpt lat="46.50592" lon="6.0692">
        <ele>1213.8</ele>
        <time>2016-06-13T12:36:49Z</time>
      </trkpt>
      <trkpt lat="46.50596" lon="6.06932">
        <ele>1213.8</ele>
        <time>2016-06-13T12:36:59Z</time>
      </trkpt>
      <trkpt lat="46.50603" lon="6.06945">
        <ele>1216.69</ele>
        <time>2016-06-13T12:37:09Z</time>
      </trkpt>
      <trkpt lat="46.50607" lon="6.06955">
        <ele>1221.49</ele>
        <time>2016-06-13T12:37:21Z</time>
      </trkpt>
      <trkpt lat="46.5061" lon="6.06961">
        <ele>1223.42</ele>
        <time>2016-06-13T12:37:27Z</time>
      </trkpt>
      <trkpt lat="46.50608" lon="6.06973">
        <ele>1225.82</ele>
        <time>2016-06-13T12:37:38Z</time>
      </trkpt>
      <trkpt lat="46.50605" lon="6.06981">
        <ele>1224.86</ele>
        <time>2016-06-13T12:37:51Z</time>
      </trkpt>
      <trkpt lat="46.50607" lon="6.06983">
        <ele>1223.42</ele>
        <time>2016-06-13T12:38:04Z</time>
      </trkpt>
      <trkpt lat="46.50611" lon="6.06987">
        <ele>1221.97</ele>
        <time>2016-06-13T12:38:15Z</time>
      </trkpt>
      <trkpt lat="46.50621" lon="6.06994">
        <ele>1222.45</ele>
        <time>2016-06-13T12:38:26Z</time>
      </trkpt>
      <trkpt lat="46.50625" lon="6.07001">
        <ele>1223.42</ele>
        <time>2016-06-13T12:38:41Z</time>
      </trkpt>
      <trkpt lat="46.50636" lon="6.07">
        <ele>1223.42</ele>
        <time>2016-06-13T12:38:58Z</time>
      </trkpt>
      <trkpt lat="46.50641" lon="6.07003">
        <ele>1224.38</ele>
        <time>2016-06-13T12:39:06Z</time>
      </trkpt>
      <trkpt lat="46.50652" lon="6.07014">
        <ele>1226.3</ele>
        <time>2016-06-13T12:39:20Z</time>
      </trkpt>
      <trkpt lat="46.50657" lon="6.07014">
        <ele>1228.22</ele>
        <time>2016-06-13T12:39:35Z</time>
      </trkpt>
      <trkpt lat="46.50662" lon="6.0703">
        <ele>1231.59</ele>
        <time>2016-06-13T12:39:49Z</time>
      </trkpt>
      <trkpt lat="46.50671" lon="6.07037">
        <ele>1234.47</ele>
        <time>2016-06-13T12:40:02Z</time>
      </trkpt>
      <trkpt lat="46.50681" lon="6.07044">
        <ele>1242.16</ele>
        <time>2016-06-13T12:40:15Z</time>
      </trkpt>
      <trkpt lat="46.50687" lon="6.07052">
        <ele>1244.56</ele>
        <time>2016-06-13T12:40:27Z</time>
      </trkpt>
      <trkpt lat="46.50692" lon="6.0705">
        <ele>1244.08</ele>
        <time>2016-06-13T12:40:42Z</time>
      </trkpt>
      <trkpt lat="46.50698" lon="6.07057">
        <ele>1248.41</ele>
        <time>2016-06-13T12:40:52Z</time>
      </trkpt>
      <trkpt lat="46.50702" lon="6.07069">
        <ele>1246.97</ele>
        <time>2016-06-13T12:41:06Z</time>
      </trkpt>
      <trkpt lat="46.50706" lon="6.07073">
        <ele>1242.16</ele>
        <time>2016-06-13T12:41:19Z</time>
      </trkpt>
      <trkpt lat="46.50706" lon="6.07074">
        <ele>1240.24</ele>
        <time>2016-06-13T12:41:34Z</time>
      </trkpt>
      <trkpt lat="46.50706" lon="6.07081">
        <ele>1235.43</ele>
        <time>2016-06-13T12:41:51Z</time>
      </trkpt>
      <trkpt lat="46.50711" lon="6.07091">
        <ele>1232.07</ele>
        <time>2016-06-13T12:42:07Z</time>
      </trkpt>
      <trkpt lat="46.50713" lon="6.07102">
        <ele>1232.07</ele>
        <time>2016-06-13T12:42:19Z</time>
      </trkpt>
      <trkpt lat="46.50726" lon="6.07121">
        <ele>1233.51</ele>
        <time>2016-06-13T12:42:34Z</time>
      </trkpt>
      <trkpt lat="46.50733" lon="6.07128">
        <ele>1235.43</ele>
        <time>2016-06-13T12:42:45Z</time>
      </trkpt>
      <trkpt lat="46.50736" lon="6.07145">
        <ele>1243.6</ele>
        <time>2016-06-13T12:42:59Z</time>
      </trkpt>
      <trkpt lat="46.50739" lon="6.07145">
        <ele>1245.53</ele>
        <time>2016-06-13T12:43:11Z</time>
      </trkpt>
      <trkpt lat="46.50751" lon="6.07153">
        <ele>1243.12</ele>
        <time>2016-06-13T12:43:22Z</time>
      </trkpt>
      <trkpt lat="46.50753" lon="6.07161">
        <ele>1241.68</ele>
        <time>2016-06-13T12:43:35Z</time>
      </trkpt>
      <trkpt lat="46.50754" lon="6.07167">
        <ele>1240.72</ele>
        <time>2016-06-13T12:43:47Z</time>
      </trkpt>
      <trkpt lat="46.5076" lon="6.07178">
        <ele>1242.64</ele>
        <time>2016-06-13T12:44:00Z</time>
      </trkpt>
      <trkpt lat="46.50762" lon="6.0718">
        <ele>1242.16</ele>
        <time>2016-06-13T12:44:19Z</time>
      </trkpt>
      <trkpt lat="46.50764" lon="6.07183">
        <ele>1242.64</ele>
        <time>2016-06-13T12:44:34Z</time>
      </trkpt>
      <trkpt lat="46.50767" lon="6.07197">
        <ele>1240.72</ele>
        <time>2016-06-13T12:44:46Z</time>
      </trkpt>
      <trkpt lat="46.50774" lon="6.07204">
        <ele>1240.24</ele>
        <time>2016-06-13T12:44:54Z</time>
      </trkpt>
      <trkpt lat="46.50774" lon="6.07209">
        <ele>1239.76</ele>
        <time>2016-06-13T12:44:58Z</time>
      </trkpt>
      <trkpt lat="46.50784" lon="6.07223">
        <ele>1241.68</ele>
        <time>2016-06-13T12:45:11Z</time>
      </trkpt>
      <trkpt lat="46.50784" lon="6.0723">
        <ele>1242.16</ele>
        <time>2016-06-13T12:45:16Z</time>
      </trkpt>
      <trkpt lat="46.5079" lon="6.07232">
        <ele>1242.64</ele>
        <time>2016-06-13T12:45:20Z</time>
      </trkpt>
      <trkpt lat="46.50799" lon="6.07245">
        <ele>1243.12</ele>
        <time>2016-06-13T12:45:34Z</time>
      </trkpt>
      <trkpt lat="46.50808" lon="6.07251">
        <ele>1242.64</ele>
        <time>2016-06-13T12:45:45Z</time>
      </trkpt>
      <trkpt lat="46.50812" lon="6.07254">
        <ele>1242.64</ele>
        <time>2016-06-13T12:45:54Z</time>
      </trkpt>
      <trkpt lat="46.50816" lon="6.07255">
        <ele>1242.64</ele>
        <time>2016-06-13T12:46:01Z</time>
      </trkpt>
      <trkpt lat="46.50819" lon="6.07259">
        <ele>1242.64</ele>
        <time>2016-06-13T12:46:05Z</time>
      </trkpt>
      <trkpt lat="46.50826" lon="6.07269">
        <ele>1243.6</ele>
        <time>2016-06-13T12:46:16Z</time>
      </trkpt>
      <trkpt lat="46.5084" lon="6.07281">
        <ele>1246.97</ele>
        <time>2016-06-13T12:46:30Z</time>
      </trkpt>
      <trkpt lat="46.50847" lon="6.07286">
        <ele>1249.37</ele>
        <time>2016-06-13T12:46:36Z</time>
      </trkpt>
      <trkpt lat="46.50855" lon="6.07296">
        <ele>1250.81</ele>
        <time>2016-06-13T12:46:49Z</time>
      </trkpt>
      <trkpt lat="46.50859" lon="6.07307">
        <ele>1253.22</ele>
        <time>2016-06-13T12:46:57Z</time>
      </trkpt>
      <trkpt lat="46.50867" lon="6.07321">
        <ele>1260.43</ele>
        <time>2016-06-13T12:47:13Z</time>
      </trkpt>
      <trkpt lat="46.50875" lon="6.07334">
        <ele>1266.67</ele>
        <time>2016-06-13T12:47:28Z</time>
      </trkpt>
      <trkpt lat="46.50877" lon="6.07351">
        <ele>1262.83</ele>
        <time>2016-06-13T12:47:45Z</time>
      </trkpt>
      <trkpt lat="46.5088" lon="6.07357">
        <ele>1260.91</ele>
        <time>2016-06-13T12:48:02Z</time>
      </trkpt>
      <trkpt lat="46.5088" lon="6.07358">
        <ele>1260.43</ele>
        <time>2016-06-13T12:48:03Z</time>
      </trkpt>
      <trkpt lat="46.50885" lon="6.07365">
        <ele>1259.94</ele>
        <time>2016-06-13T12:48:09Z</time>
      </trkpt>
      <trkpt lat="46.50893" lon="6.07375">
        <ele>1260.43</ele>
        <time>2016-06-13T12:48:19Z</time>
      </trkpt>
      <trkpt lat="46.50901" lon="6.07387">
        <ele>1262.83</ele>
        <time>2016-06-13T12:48:29Z</time>
      </trkpt>
      <trkpt lat="46.50906" lon="6.07397">
        <ele>1264.75</ele>
        <time>2016-06-13T12:48:43Z</time>
      </trkpt>
      <trkpt lat="46.50907" lon="6.07399">
        <ele>1264.27</ele>
        <time>2016-06-13T12:48:47Z</time>
      </trkpt>
      <trkpt lat="46.50909" lon="6.07404">
        <ele>1264.27</ele>
        <time>2016-06-13T12:48:52Z</time>
      </trkpt>
      <trkpt lat="46.5092" lon="6.07413">
        <ele>1260.43</ele>
        <time>2016-06-13T12:49:06Z</time>
      </trkpt>
      <trkpt lat="46.50924" lon="6.07426">
        <ele>1258.02</ele>
        <time>2016-06-13T12:49:19Z</time>
      </trkpt>
      <trkpt lat="46.50927" lon="6.07439">
        <ele>1257.06</ele>
        <time>2016-06-13T12:49:30Z</time>
      </trkpt>
      <trkpt lat="46.50928" lon="6.07441">
        <ele>1256.58</ele>
        <time>2016-06-13T12:49:32Z</time>
      </trkpt>
      <trkpt lat="46.50929" lon="6.07451">
        <ele>1256.58</ele>
        <time>2016-06-13T12:49:41Z</time>
      </trkpt>
      <trkpt lat="46.50931" lon="6.07457">
        <ele>1257.54</ele>
        <time>2016-06-13T12:49:54Z</time>
      </trkpt>
      <trkpt lat="46.50931" lon="6.07458">
        <ele>1258.98</ele>
        <time>2016-06-13T12:50:12Z</time>
      </trkpt>
      <trkpt lat="46.50931" lon="6.07458">
        <ele>1260.43</ele>
        <time>2016-06-13T12:50:34Z</time>
      </trkpt>
      <trkpt lat="46.5093" lon="6.07459">
        <ele>1259.94</ele>
        <time>2016-06-13T12:50:56Z</time>
      </trkpt>
      <trkpt lat="46.5093" lon="6.0746">
        <ele>1261.39</ele>
        <time>2016-06-13T12:51:22Z</time>
      </trkpt>
      <trkpt lat="46.50929" lon="6.07461">
        <ele>1261.39</ele>
        <time>2016-06-13T12:51:44Z</time>
      </trkpt>
      <trkpt lat="46.50929" lon="6.07461">
        <ele>1261.39</ele>
        <time>2016-06-13T12:52:04Z</time>
      </trkpt>
      <trkpt lat="46.50929" lon="6.07464">
        <ele>1262.35</ele>
        <time>2016-06-13T12:52:19Z</time>
      </trkpt>
      <trkpt lat="46.50926" lon="6.07468">
        <ele>1260.91</ele>
        <time>2016-06-13T12:52:36Z</time>
      </trkpt>
      <trkpt lat="46.50926" lon="6.07468">
        <ele>1260.91</ele>
        <time>2016-06-13T12:52:53Z</time>
      </trkpt>
      <trkpt lat="46.5093" lon="6.07465">
        <ele>1259.94</ele>
        <time>2016-06-13T12:53:07Z</time>
      </trkpt>
      <trkpt lat="46.50932" lon="6.07463">
        <ele>1259.46</ele>
        <time>2016-06-13T12:53:19Z</time>
      </trkpt>
      <trkpt lat="46.50931" lon="6.07462">
        <ele>1260.43</ele>
        <time>2016-06-13T12:53:38Z</time>
      </trkpt>
      <trkpt lat="46.50929" lon="6.07465">
        <ele>1258.98</ele>
        <time>2016-06-13T12:53:44Z</time>
      </trkpt>
      <trkpt lat="46.50919" lon="6.07463">
        <ele>1258.02</ele>
        <time>2016-06-13T12:53:55Z</time>
      </trkpt>
      <trkpt lat="46.50916" lon="6.07461">
        <ele>1258.5</ele>
        <time>2016-06-13T12:54:11Z</time>
      </trkpt>
      <trkpt lat="46.50914" lon="6.07461">
        <ele>1257.06</ele>
        <time>2016-06-13T12:54:24Z</time>
      </trkpt>
      <trkpt lat="46.5091" lon="6.07459">
        <ele>1256.58</ele>
        <time>2016-06-13T12:54:37Z</time>
      </trkpt>
      <trkpt lat="46.50902" lon="6.07454">
        <ele>1257.06</ele>
        <time>2016-06-13T12:54:48Z</time>
      </trkpt>
      <trkpt lat="46.50894" lon="6.0745">
        <ele>1257.06</ele>
        <time>2016-06-13T12:55:00Z</time>
      </trkpt>
      <trkpt lat="46.5088" lon="6.07441">
        <ele>1258.98</ele>
        <time>2016-06-13T12:55:15Z</time>
      </trkpt>
      <trkpt lat="46.50871" lon="6.07437">
        <ele>1262.35</ele>
        <time>2016-06-13T12:55:23Z</time>
      </trkpt>
      <trkpt lat="46.50874" lon="6.07448">
        <ele>1263.31</ele>
        <time>2016-06-13T12:55:35Z</time>
      </trkpt>
      <trkpt lat="46.50874" lon="6.07449">
        <ele>1263.31</ele>
        <time>2016-06-13T12:55:36Z</time>
      </trkpt>
      <trkpt lat="46.50881" lon="6.0746">
        <ele>1265.23</ele>
        <time>2016-06-13T12:55:47Z</time>
      </trkpt>
      <trkpt lat="46.50882" lon="6.07463">
        <ele>1265.23</ele>
        <time>2016-06-13T12:55:49Z</time>
      </trkpt>
      <trkpt lat="46.50892" lon="6.07477">
        <ele>1267.64</ele>
        <time>2016-06-13T12:56:01Z</time>
      </trkpt>
      <trkpt lat="46.50893" lon="6.07483">
        <ele>1269.08</ele>
        <time>2016-06-13T12:56:05Z</time>
      </trkpt>
      <trkpt lat="46.50898" lon="6.07491">
        <ele>1269.56</ele>
        <time>2016-06-13T12:56:14Z</time>
      </trkpt>
      <trkpt lat="46.50897" lon="6.07494">
        <ele>1269.56</ele>
        <time>2016-06-13T12:56:16Z</time>
      </trkpt>
      <trkpt lat="46.50896" lon="6.07501">
        <ele>1269.56</ele>
        <time>2016-06-13T12:56:28Z</time>
      </trkpt>
      <trkpt lat="46.50891" lon="6.07513">
        <ele>1269.56</ele>
        <time>2016-06-13T12:56:39Z</time>
      </trkpt>
      <trkpt lat="46.50885" lon="6.07533">
        <ele>1270.52</ele>
        <time>2016-06-13T12:56:50Z</time>
      </trkpt>
      <trkpt lat="46.50883" lon="6.07549">
        <ele>1271.96</ele>
        <time>2016-06-13T12:57:01Z</time>
      </trkpt>
      <trkpt lat="46.5088" lon="6.0756">
        <ele>1273.4</ele>
        <time>2016-06-13T12:57:09Z</time>
      </trkpt>
      <trkpt lat="46.50879" lon="6.07566">
        <ele>1274.36</ele>
        <time>2016-06-13T12:57:14Z</time>
      </trkpt>
      <trkpt lat="46.50875" lon="6.07584">
        <ele>1277.25</ele>
        <time>2016-06-13T12:57:25Z</time>
      </trkpt>
      <trkpt lat="46.50868" lon="6.07596">
        <ele>1274.36</ele>
        <time>2016-06-13T12:57:38Z</time>
      </trkpt>
      <trkpt lat="46.50866" lon="6.07598">
        <ele>1273.88</ele>
        <time>2016-06-13T12:57:40Z</time>
      </trkpt>
      <trkpt lat="46.50852" lon="6.07609">
        <ele>1271.96</ele>
        <time>2016-06-13T12:57:53Z</time>
      </trkpt>
      <trkpt lat="46.50839" lon="6.07612">
        <ele>1268.12</ele>
        <time>2016-06-13T12:58:07Z</time>
      </trkpt>
      <trkpt lat="46.50827" lon="6.07611">
        <ele>1267.16</ele>
        <time>2016-06-13T12:58:19Z</time>
      </trkpt>
      <trkpt lat="46.50819" lon="6.07613">
        <ele>1265.23</ele>
        <time>2016-06-13T12:58:29Z</time>
      </trkpt>
      <trkpt lat="46.50808" lon="6.07615">
        <ele>1262.35</ele>
        <time>2016-06-13T12:58:43Z</time>
      </trkpt>
      <trkpt lat="46.50805" lon="6.07616">
        <ele>1260.43</ele>
        <time>2016-06-13T12:58:53Z</time>
      </trkpt>
      <trkpt lat="46.50795" lon="6.07613">
        <ele>1259.46</ele>
        <time>2016-06-13T12:59:06Z</time>
      </trkpt>
      <trkpt lat="46.50788" lon="6.07617">
        <ele>1257.54</ele>
        <time>2016-06-13T12:59:18Z</time>
      </trkpt>
      <trkpt lat="46.5078" lon="6.07616">
        <ele>1252.74</ele>
        <time>2016-06-13T12:59:29Z</time>
      </trkpt>
      <trkpt lat="46.50774" lon="6.07616">
        <ele>1249.37</ele>
        <time>2016-06-13T12:59:39Z</time>
      </trkpt>
      <trkpt lat="46.50763" lon="6.0762">
        <ele>1247.93</ele>
        <time>2016-06-13T12:59:51Z</time>
      </trkpt>
      <trkpt lat="46.50757" lon="6.0762">
        <ele>1246.49</ele>
        <time>2016-06-13T13:00:04Z</time>
      </trkpt>
      <trkpt lat="46.50742" lon="6.07622">
        <ele>1245.53</ele>
        <time>2016-06-13T13:00:15Z</time>
      </trkpt>
      <trkpt lat="46.50724" lon="6.07623">
        <ele>1244.08</ele>
        <time>2016-06-13T13:00:27Z</time>
      </trkpt>
      <trkpt lat="46.50723" lon="6.07623">
        <ele>1244.08</ele>
        <time>2016-06-13T13:00:31Z</time>
      </trkpt>
      <trkpt lat="46.50723" lon="6.07627">
        <ele>1242.16</ele>
        <time>2016-06-13T13:00:47Z</time>
      </trkpt>
      <trkpt lat="46.50714" lon="6.07626">
        <ele>1241.68</ele>
        <time>2016-06-13T13:00:53Z</time>
      </trkpt>
      <trkpt lat="46.50691" lon="6.07625">
        <ele>1240.24</ele>
        <time>2016-06-13T13:01:07Z</time>
      </trkpt>
      <trkpt lat="46.50674" lon="6.07627">
        <ele>1238.32</ele>
        <time>2016-06-13T13:01:20Z</time>
      </trkpt>
      <trkpt lat="46.50663" lon="6.07626">
        <ele>1236.87</ele>
        <time>2016-06-13T13:01:32Z</time>
      </trkpt>
      <trkpt lat="46.50644" lon="6.07626">
        <ele>1236.39</ele>
        <time>2016-06-13T13:01:46Z</time>
      </trkpt>
      <trkpt lat="46.50639" lon="6.07626">
        <ele>1235.43</ele>
        <time>2016-06-13T13:01:53Z</time>
      </trkpt>
      <trkpt lat="46.50622" lon="6.07625">
        <ele>1234.47</ele>
        <time>2016-06-13T13:02:07Z</time>
      </trkpt>
      <trkpt lat="46.50611" lon="6.07632">
        <ele>1232.07</ele>
        <time>2016-06-13T13:02:24Z</time>
      </trkpt>
      <trkpt lat="46.50615" lon="6.07637">
        <ele>1229.66</ele>
        <time>2016-06-13T13:02:30Z</time>
      </trkpt>
      <trkpt lat="46.50621" lon="6.07646">
        <ele>1227.26</ele>
        <time>2016-06-13T13:02:41Z</time>
      </trkpt>
      <trkpt lat="46.50623" lon="6.07648">
        <ele>1227.26</ele>
        <time>2016-06-13T13:02:47Z</time>
      </trkpt>
      <trkpt lat="46.50627" lon="6.0766">
        <ele>1227.26</ele>
        <time>2016-06-13T13:02:56Z</time>
      </trkpt>
      <trkpt lat="46.50636" lon="6.07669">
        <ele>1225.82</ele>
        <time>2016-06-13T13:03:07Z</time>
      </trkpt>
      <trkpt lat="46.50642" lon="6.07683">
        <ele>1225.34</ele>
        <time>2016-06-13T13:03:20Z</time>
      </trkpt>
      <trkpt lat="46.50647" lon="6.0769">
        <ele>1223.9</ele>
        <time>2016-06-13T13:03:31Z</time>
      </trkpt>
      <trkpt lat="46.5065" lon="6.07698">
        <ele>1223.9</ele>
        <time>2016-06-13T13:03:42Z</time>
      </trkpt>
      <trkpt lat="46.50653" lon="6.0771">
        <ele>1222.93</ele>
        <time>2016-06-13T13:03:57Z</time>
      </trkpt>
      <trkpt lat="46.50653" lon="6.0772">
        <ele>1220.53</ele>
        <time>2016-06-13T13:04:04Z</time>
      </trkpt>
      <trkpt lat="46.50658" lon="6.07731">
        <ele>1218.13</ele>
        <time>2016-06-13T13:04:16Z</time>
      </trkpt>
      <trkpt lat="46.50648" lon="6.07736">
        <ele>1213.8</ele>
        <time>2016-06-13T13:04:30Z</time>
      </trkpt>
      <trkpt lat="46.50633" lon="6.07747">
        <ele>1211.88</ele>
        <time>2016-06-13T13:04:45Z</time>
      </trkpt>
      <trkpt lat="46.50626" lon="6.07752">
        <ele>1212.36</ele>
        <time>2016-06-13T13:04:57Z</time>
      </trkpt>
      <trkpt lat="46.50622" lon="6.07754">
        <ele>1209.96</ele>
        <time>2016-06-13T13:05:13Z</time>
      </trkpt>
      <trkpt lat="46.50608" lon="6.07763">
        <ele>1204.19</ele>
        <time>2016-06-13T13:05:25Z</time>
      </trkpt>
      <trkpt lat="46.50597" lon="6.07771">
        <ele>1202.27</ele>
        <time>2016-06-13T13:05:40Z</time>
      </trkpt>
      <trkpt lat="46.50595" lon="6.07775">
        <ele>1201.3</ele>
        <time>2016-06-13T13:05:43Z</time>
      </trkpt>
      <trkpt lat="46.5058" lon="6.07789">
        <ele>1200.82</ele>
        <time>2016-06-13T13:05:56Z</time>
      </trkpt>
      <trkpt lat="46.50568" lon="6.07807">
        <ele>1203.71</ele>
        <time>2016-06-13T13:06:11Z</time>
      </trkpt>
      <trkpt lat="46.50561" lon="6.07809">
        <ele>1202.27</ele>
        <time>2016-06-13T13:06:25Z</time>
      </trkpt>
      <trkpt lat="46.50557" lon="6.07808">
        <ele>1201.3</ele>
        <time>2016-06-13T13:06:38Z</time>
      </trkpt>
      <trkpt lat="46.50556" lon="6.078">
        <ele>1194.58</ele>
        <time>2016-06-13T13:06:53Z</time>
      </trkpt>
      <trkpt lat="46.50554" lon="6.07799">
        <ele>1190.25</ele>
        <time>2016-06-13T13:07:09Z</time>
      </trkpt>
      <trkpt lat="46.50555" lon="6.07803">
        <ele>1185.44</ele>
        <time>2016-06-13T13:07:19Z</time>
      </trkpt>
      <trkpt lat="46.50552" lon="6.07816">
        <ele>1184</ele>
        <time>2016-06-13T13:07:27Z</time>
      </trkpt>
      <trkpt lat="46.50538" lon="6.07835">
        <ele>1190.25</ele>
        <time>2016-06-13T13:07:39Z</time>
      </trkpt>
      <trkpt lat="46.50539" lon="6.07846">
        <ele>1190.25</ele>
        <time>2016-06-13T13:07:50Z</time>
      </trkpt>
      <trkpt lat="46.50545" lon="6.0786">
        <ele>1192.17</ele>
        <time>2016-06-13T13:08:03Z</time>
      </trkpt>
      <trkpt lat="46.50548" lon="6.07874">
        <ele>1192.17</ele>
        <time>2016-06-13T13:08:13Z</time>
      </trkpt>
      <trkpt lat="46.5055" lon="6.07893">
        <ele>1192.65</ele>
        <time>2016-06-13T13:08:24Z</time>
      </trkpt>
      <trkpt lat="46.50545" lon="6.07902">
        <ele>1192.65</ele>
        <time>2016-06-13T13:08:35Z</time>
      </trkpt>
      <trkpt lat="46.50544" lon="6.07921">
        <ele>1193.61</ele>
        <time>2016-06-13T13:08:48Z</time>
      </trkpt>
      <trkpt lat="46.50543" lon="6.07936">
        <ele>1193.13</ele>
        <time>2016-06-13T13:09:01Z</time>
      </trkpt>
      <trkpt lat="46.50538" lon="6.07949">
        <ele>1190.25</ele>
        <time>2016-06-13T13:09:13Z</time>
      </trkpt>
      <trkpt lat="46.5053" lon="6.0796">
        <ele>1188.33</ele>
        <time>2016-06-13T13:09:24Z</time>
      </trkpt>
      <trkpt lat="46.50529" lon="6.07973">
        <ele>1186.4</ele>
        <time>2016-06-13T13:09:34Z</time>
      </trkpt>
      <trkpt lat="46.50537" lon="6.07984">
        <ele>1184</ele>
        <time>2016-06-13T13:09:45Z</time>
      </trkpt>
      <trkpt lat="46.50549" lon="6.07997">
        <ele>1182.08</ele>
        <time>2016-06-13T13:09:58Z</time>
      </trkpt>
      <trkpt lat="46.50554" lon="6.08011">
        <ele>1183.04</ele>
        <time>2016-06-13T13:10:10Z</time>
      </trkpt>
      <trkpt lat="46.50554" lon="6.08022">
        <ele>1184.48</ele>
        <time>2016-06-13T13:10:22Z</time>
      </trkpt>
      <trkpt lat="46.50557" lon="6.08039">
        <ele>1180.16</ele>
        <time>2016-06-13T13:10:36Z</time>
      </trkpt>
      <trkpt lat="46.50559" lon="6.08055">
        <ele>1173.91</ele>
        <time>2016-06-13T13:10:46Z</time>
      </trkpt>
      <trkpt lat="46.5056" lon="6.08065">
        <ele>1171.5</ele>
        <time>2016-06-13T13:10:59Z</time>
      </trkpt>
      <trkpt lat="46.50557" lon="6.08084">
        <ele>1172.47</ele>
        <time>2016-06-13T13:11:14Z</time>
      </trkpt>
      <trkpt lat="46.50557" lon="6.08092">
        <ele>1172.47</ele>
        <time>2016-06-13T13:11:30Z</time>
      </trkpt>
      <trkpt lat="46.50561" lon="6.08109">
        <ele>1172.47</ele>
        <time>2016-06-13T13:11:40Z</time>
      </trkpt>
      <trkpt lat="46.50561" lon="6.0811">
        <ele>1171.98</ele>
        <time>2016-06-13T13:11:41Z</time>
      </trkpt>
      <trkpt lat="46.50563" lon="6.0813">
        <ele>1168.62</ele>
        <time>2016-06-13T13:11:55Z</time>
      </trkpt>
      <trkpt lat="46.50563" lon="6.08137">
        <ele>1169.58</ele>
        <time>2016-06-13T13:11:59Z</time>
      </trkpt>
      <trkpt lat="46.50566" lon="6.08155">
        <ele>1167.18</ele>
        <time>2016-06-13T13:12:13Z</time>
      </trkpt>
      <trkpt lat="46.50571" lon="6.08166">
        <ele>1163.33</ele>
        <time>2016-06-13T13:12:27Z</time>
      </trkpt>
      <trkpt lat="46.50572" lon="6.08174">
        <ele>1162.37</ele>
        <time>2016-06-13T13:12:41Z</time>
      </trkpt>
      <trkpt lat="46.50572" lon="6.08186">
        <ele>1162.85</ele>
        <time>2016-06-13T13:13:03Z</time>
      </trkpt>
      <trkpt lat="46.50572" lon="6.082">
        <ele>1160.93</ele>
        <time>2016-06-13T13:13:19Z</time>
      </trkpt>
      <trkpt lat="46.50569" lon="6.08208">
        <ele>1161.41</ele>
        <time>2016-06-13T13:13:33Z</time>
      </trkpt>
      <trkpt lat="46.50566" lon="6.08209">
        <ele>1160.93</ele>
        <time>2016-06-13T13:13:44Z</time>
      </trkpt>
      <trkpt lat="46.50561" lon="6.08205">
        <ele>1157.08</ele>
        <time>2016-06-13T13:14:00Z</time>
      </trkpt>
      <trkpt lat="46.50555" lon="6.08203">
        <ele>1155.16</ele>
        <time>2016-06-13T13:14:14Z</time>
      </trkpt>
      <trkpt lat="46.50543" lon="6.08201">
        <ele>1155.64</ele>
        <time>2016-06-13T13:14:28Z</time>
      </trkpt>
      <trkpt lat="46.50531" lon="6.0821">
        <ele>1151.32</ele>
        <time>2016-06-13T13:14:42Z</time>
      </trkpt>
      <trkpt lat="46.50523" lon="6.08215">
        <ele>1149.87</ele>
        <time>2016-06-13T13:14:56Z</time>
      </trkpt>
      <trkpt lat="46.50517" lon="6.08219">
        <ele>1148.91</ele>
        <time>2016-06-13T13:15:08Z</time>
      </trkpt>
      <trkpt lat="46.50511" lon="6.08222">
        <ele>1149.87</ele>
        <time>2016-06-13T13:15:21Z</time>
      </trkpt>
      <trkpt lat="46.50503" lon="6.08225">
        <ele>1146.03</ele>
        <time>2016-06-13T13:15:34Z</time>
      </trkpt>
      <trkpt lat="46.50499" lon="6.08228">
        <ele>1144.59</ele>
        <time>2016-06-13T13:15:50Z</time>
      </trkpt>
      <trkpt lat="46.50495" lon="6.08231">
        <ele>1143.63</ele>
        <time>2016-06-13T13:16:04Z</time>
      </trkpt>
      <trkpt lat="46.5049" lon="6.0823">
        <ele>1142.18</ele>
        <time>2016-06-13T13:16:22Z</time>
      </trkpt>
      <trkpt lat="46.50487" lon="6.08228">
        <ele>1141.22</ele>
        <time>2016-06-13T13:16:34Z</time>
      </trkpt>
      <trkpt lat="46.50484" lon="6.08223">
        <ele>1139.78</ele>
        <time>2016-06-13T13:16:52Z</time>
      </trkpt>
      <trkpt lat="46.50479" lon="6.08211">
        <ele>1138.34</ele>
        <time>2016-06-13T13:17:06Z</time>
      </trkpt>
      <trkpt lat="46.50459" lon="6.08191">
        <ele>1135.94</ele>
        <time>2016-06-13T13:17:19Z</time>
      </trkpt>
      <trkpt lat="46.50443" lon="6.08175">
        <ele>1134.49</ele>
        <time>2016-06-13T13:17:35Z</time>
      </trkpt>
      <trkpt lat="46.50433" lon="6.08166">
        <ele>1134.49</ele>
        <time>2016-06-13T13:17:49Z</time>
      </trkpt>
      <trkpt lat="46.50425" lon="6.08157">
        <ele>1130.17</ele>
        <time>2016-06-13T13:18:02Z</time>
      </trkpt>
      <trkpt lat="46.5041" lon="6.08147">
        <ele>1130.65</ele>
        <time>2016-06-13T13:18:15Z</time>
      </trkpt>
      <trkpt lat="46.504" lon="6.08141">
        <ele>1130.17</ele>
        <time>2016-06-13T13:18:28Z</time>
      </trkpt>
      <trkpt lat="46.5039" lon="6.08132">
        <ele>1124.4</ele>
        <time>2016-06-13T13:18:41Z</time>
      </trkpt>
      <trkpt lat="46.50373" lon="6.08115">
        <ele>1116.71</ele>
        <time>2016-06-13T13:18:55Z</time>
      </trkpt>
      <trkpt lat="46.50372" lon="6.08105">
        <ele>1112.38</ele>
        <time>2016-06-13T13:19:12Z</time>
      </trkpt>
      <trkpt lat="46.50371" lon="6.08099">
        <ele>1109.5</ele>
        <time>2016-06-13T13:19:27Z</time>
      </trkpt>
      <trkpt lat="46.50371" lon="6.08092">
        <ele>1109.02</ele>
        <time>2016-06-13T13:19:45Z</time>
      </trkpt>
      <trkpt lat="46.50373" lon="6.08086">
        <ele>1109.98</ele>
        <time>2016-06-13T13:20:00Z</time>
      </trkpt>
      <trkpt lat="46.50373" lon="6.08082">
        <ele>1108.06</ele>
        <time>2016-06-13T13:20:15Z</time>
      </trkpt>
      <trkpt lat="46.50375" lon="6.08077">
        <ele>1105.17</ele>
        <time>2016-06-13T13:20:28Z</time>
      </trkpt>
      <trkpt lat="46.50374" lon="6.08073">
        <ele>1104.21</ele>
        <time>2016-06-13T13:20:44Z</time>
      </trkpt>
      <trkpt lat="46.50371" lon="6.08069">
        <ele>1103.25</ele>
        <time>2016-06-13T13:21:02Z</time>
      </trkpt>
      <trkpt lat="46.50369" lon="6.08066">
        <ele>1102.29</ele>
        <time>2016-06-13T13:21:16Z</time>
      </trkpt>
      <trkpt lat="46.50365" lon="6.08063">
        <ele>1100.85</ele>
        <time>2016-06-13T13:21:31Z</time>
      </trkpt>
      <trkpt lat="46.50358" lon="6.08057">
        <ele>1097.96</ele>
        <time>2016-06-13T13:21:43Z</time>
      </trkpt>
      <trkpt lat="46.50227" lon="6.08003">
        <ele>1115.27</ele>
        <time>2016-06-13T13:21:57Z</time>
      </trkpt>
      <trkpt lat="46.50223" lon="6.07997">
        <ele>1112.38</ele>
        <time>2016-06-13T13:22:10Z</time>
      </trkpt>
      <trkpt lat="46.50219" lon="6.07993">
        <ele>1110.94</ele>
        <time>2016-06-13T13:22:24Z</time>
      </trkpt>
      <trkpt lat="46.50216" lon="6.07989">
        <ele>1109.98</ele>
        <time>2016-06-13T13:22:39Z</time>
      </trkpt>
      <trkpt lat="46.50212" lon="6.07983">
        <ele>1109.02</ele>
        <time>2016-06-13T13:22:54Z</time>
      </trkpt>
      <trkpt lat="46.50208" lon="6.07976">
        <ele>1106.13</ele>
        <time>2016-06-13T13:23:12Z</time>
      </trkpt>
      <trkpt lat="46.50205" lon="6.07973">
        <ele>1105.17</ele>
        <time>2016-06-13T13:23:26Z</time>
      </trkpt>
      <trkpt lat="46.50202" lon="6.07968">
        <ele>1104.21</ele>
        <time>2016-06-13T13:23:42Z</time>
      </trkpt>
      <trkpt lat="46.50198" lon="6.07963">
        <ele>1101.81</ele>
        <time>2016-06-13T13:23:58Z</time>
      </trkpt>
      <trkpt lat="46.50192" lon="6.07958">
        <ele>1096.52</ele>
        <time>2016-06-13T13:24:21Z</time>
      </trkpt>
      <trkpt lat="46.50177" lon="6.07951">
        <ele>1093.64</ele>
        <time>2016-06-13T13:24:47Z</time>
      </trkpt>
      <trkpt lat="46.50173" lon="6.07947">
        <ele>1093.64</ele>
        <time>2016-06-13T13:25:06Z</time>
      </trkpt>
      <trkpt lat="46.50167" lon="6.07937">
        <ele>1091.23</ele>
        <time>2016-06-13T13:25:32Z</time>
      </trkpt>
      <trkpt lat="46.50164" lon="6.07931">
        <ele>1094.6</ele>
        <time>2016-06-13T13:25:54Z</time>
      </trkpt>
      <trkpt lat="46.5016" lon="6.07928">
        <ele>1095.56</ele>
        <time>2016-06-13T13:26:14Z</time>
      </trkpt>
      <trkpt lat="46.50157" lon="6.07924">
        <ele>1097</ele>
        <time>2016-06-13T13:26:37Z</time>
      </trkpt>
      <trkpt lat="46.50154" lon="6.07921">
        <ele>1097.48</ele>
        <time>2016-06-13T13:26:51Z</time>
      </trkpt>
      <trkpt lat="46.5015" lon="6.07915">
        <ele>1096.52</ele>
        <time>2016-06-13T13:27:01Z</time>
      </trkpt>
      <trkpt lat="46.50146" lon="6.07911">
        <ele>1095.08</ele>
        <time>2016-06-13T13:27:13Z</time>
      </trkpt>
      <trkpt lat="46.50144" lon="6.07907">
        <ele>1093.64</ele>
        <time>2016-06-13T13:27:26Z</time>
      </trkpt>
      <trkpt lat="46.50134" lon="6.079">
        <ele>1091.23</ele>
        <time>2016-06-13T13:27:42Z</time>
      </trkpt>
      <trkpt lat="46.50128" lon="6.07895">
        <ele>1089.79</ele>
        <time>2016-06-13T13:27:52Z</time>
      </trkpt>
      <trkpt lat="46.50126" lon="6.07891">
        <ele>1089.79</ele>
        <time>2016-06-13T13:27:54Z</time>
      </trkpt>
      <trkpt lat="46.50112" lon="6.07862">
        <ele>1078.74</ele>
        <time>2016-06-13T13:28:10Z</time>
      </trkpt>
      <trkpt lat="46.50104" lon="6.07849">
        <ele>1073.45</ele>
        <time>2016-06-13T13:28:19Z</time>
      </trkpt>
      <trkpt lat="46.50096" lon="6.0784">
        <ele>1068.64</ele>
        <time>2016-06-13T13:28:30Z</time>
      </trkpt>
      <trkpt lat="46.50092" lon="6.0784">
        <ele>1068.16</ele>
        <time>2016-06-13T13:28:33Z</time>
      </trkpt>
      <trkpt lat="46.50085" lon="6.0784">
        <ele>1067.68</ele>
        <time>2016-06-13T13:28:46Z</time>
      </trkpt>
      <trkpt lat="46.50081" lon="6.07835">
        <ele>1066.24</ele>
        <time>2016-06-13T13:28:50Z</time>
      </trkpt>
      <trkpt lat="46.50079" lon="6.07832">
        <ele>1065.28</ele>
        <time>2016-06-13T13:28:52Z</time>
      </trkpt>
      <trkpt lat="46.50072" lon="6.07816">
        <ele>1062.39</ele>
        <time>2016-06-13T13:29:03Z</time>
      </trkpt>
      <trkpt lat="46.50066" lon="6.07803">
        <ele>1058.55</ele>
        <time>2016-06-13T13:29:16Z</time>
      </trkpt>
      <trkpt lat="46.5006" lon="6.07788">
        <ele>1052.3</ele>
        <time>2016-06-13T13:29:28Z</time>
      </trkpt>
      <trkpt lat="46.50054" lon="6.07779">
        <ele>1049.9</ele>
        <time>2016-06-13T13:29:40Z</time>
      </trkpt>
      <trkpt lat="46.50044" lon="6.07765">
        <ele>1048.45</ele>
        <time>2016-06-13T13:29:52Z</time>
      </trkpt>
      <trkpt lat="46.50034" lon="6.07744">
        <ele>1051.82</ele>
        <time>2016-06-13T13:30:05Z</time>
      </trkpt>
      <trkpt lat="46.50031" lon="6.07739">
        <ele>1052.3</ele>
        <time>2016-06-13T13:30:09Z</time>
      </trkpt>
      <trkpt lat="46.5003" lon="6.07736">
        <ele>1052.3</ele>
        <time>2016-06-13T13:30:11Z</time>
      </trkpt>
      <trkpt lat="46.50013" lon="6.07717">
        <ele>1053.26</ele>
        <time>2016-06-13T13:30:27Z</time>
      </trkpt>
      <trkpt lat="46.50009" lon="6.07712">
        <ele>1053.26</ele>
        <time>2016-06-13T13:30:30Z</time>
      </trkpt>
      <trkpt lat="46.49995" lon="6.07695">
        <ele>1056.15</ele>
        <time>2016-06-13T13:30:44Z</time>
      </trkpt>
      <trkpt lat="46.49987" lon="6.07679">
        <ele>1055.67</ele>
        <time>2016-06-13T13:30:56Z</time>
      </trkpt>
      <trkpt lat="46.49984" lon="6.07673">
        <ele>1055.18</ele>
        <time>2016-06-13T13:31:00Z</time>
      </trkpt>
      <trkpt lat="46.49983" lon="6.07671">
        <ele>1055.18</ele>
        <time>2016-06-13T13:31:02Z</time>
      </trkpt>
      <trkpt lat="46.49981" lon="6.0767">
        <ele>1054.7</ele>
        <time>2016-06-13T13:31:05Z</time>
      </trkpt>
      <trkpt lat="46.49975" lon="6.07659">
        <ele>1054.22</ele>
        <time>2016-06-13T13:31:13Z</time>
      </trkpt>
      <trkpt lat="46.49974" lon="6.07656">
        <ele>1054.22</ele>
        <time>2016-06-13T13:31:15Z</time>
      </trkpt>
      <trkpt lat="46.49969" lon="6.07645">
        <ele>1054.22</ele>
        <time>2016-06-13T13:31:23Z</time>
      </trkpt>
      <trkpt lat="46.49966" lon="6.07635">
        <ele>1054.22</ele>
        <time>2016-06-13T13:31:29Z</time>
      </trkpt>
      <trkpt lat="46.49964" lon="6.07633">
        <ele>1054.22</ele>
        <time>2016-06-13T13:31:31Z</time>
      </trkpt>
      <trkpt lat="46.49954" lon="6.07615">
        <ele>1054.7</ele>
        <time>2016-06-13T13:31:45Z</time>
      </trkpt>
      <trkpt lat="46.49944" lon="6.07597">
        <ele>1056.15</ele>
        <time>2016-06-13T13:31:58Z</time>
      </trkpt>
      <trkpt lat="46.49937" lon="6.07585">
        <ele>1056.15</ele>
        <time>2016-06-13T13:32:07Z</time>
      </trkpt>
      <trkpt lat="46.49935" lon="6.0758">
        <ele>1056.15</ele>
        <time>2016-06-13T13:32:10Z</time>
      </trkpt>
      <trkpt lat="46.49931" lon="6.07575">
        <ele>1057.11</ele>
        <time>2016-06-13T13:32:15Z</time>
      </trkpt>
      <trkpt lat="46.49926" lon="6.07566">
        <ele>1058.55</ele>
        <time>2016-06-13T13:32:22Z</time>
      </trkpt>
      <trkpt lat="46.49922" lon="6.07559">
        <ele>1058.55</ele>
        <time>2016-06-13T13:32:27Z</time>
      </trkpt>
      <trkpt lat="46.49913" lon="6.0755">
        <ele>1061.91</ele>
        <time>2016-06-13T13:32:35Z</time>
      </trkpt>
      <trkpt lat="46.49911" lon="6.07547">
        <ele>1062.39</ele>
        <time>2016-06-13T13:32:37Z</time>
      </trkpt>
      <trkpt lat="46.49906" lon="6.07538">
        <ele>1063.84</ele>
        <time>2016-06-13T13:32:44Z</time>
      </trkpt>
      <trkpt lat="46.49905" lon="6.07535">
        <ele>1063.84</ele>
        <time>2016-06-13T13:32:46Z</time>
      </trkpt>
      <trkpt lat="46.49903" lon="6.07531">
        <ele>1063.84</ele>
        <time>2016-06-13T13:32:49Z</time>
      </trkpt>
      <trkpt lat="46.499" lon="6.07526">
        <ele>1063.84</ele>
        <time>2016-06-13T13:32:53Z</time>
      </trkpt>
      <trkpt lat="46.49899" lon="6.07524">
        <ele>1063.84</ele>
        <time>2016-06-13T13:32:55Z</time>
      </trkpt>
      <trkpt lat="46.49888" lon="6.07509">
        <ele>1063.36</ele>
        <time>2016-06-13T13:33:08Z</time>
      </trkpt>
      <trkpt lat="46.49881" lon="6.07499">
        <ele>1063.36</ele>
        <time>2016-06-13T13:33:16Z</time>
      </trkpt>
      <trkpt lat="46.49881" lon="6.07498">
        <ele>1063.84</ele>
        <time>2016-06-13T13:33:17Z</time>
      </trkpt>
      <trkpt lat="46.49873" lon="6.07487">
        <ele>1063.84</ele>
        <time>2016-06-13T13:33:26Z</time>
      </trkpt>
      <trkpt lat="46.49867" lon="6.07477">
        <ele>1064.32</ele>
        <time>2016-06-13T13:33:35Z</time>
      </trkpt>
      <trkpt lat="46.49865" lon="6.07474">
        <ele>1064.8</ele>
        <time>2016-06-13T13:33:37Z</time>
      </trkpt>
      <trkpt lat="46.49863" lon="6.07468">
        <ele>1063.84</ele>
        <time>2016-06-13T13:33:41Z</time>
      </trkpt>
      <trkpt lat="46.49852" lon="6.07455">
        <ele>1061.91</ele>
        <time>2016-06-13T13:33:53Z</time>
      </trkpt>
      <trkpt lat="46.49843" lon="6.07437">
        <ele>1060.47</ele>
        <time>2016-06-13T13:34:05Z</time>
      </trkpt>
      <trkpt lat="46.49841" lon="6.07434">
        <ele>1060.47</ele>
        <time>2016-06-13T13:34:08Z</time>
      </trkpt>
      <trkpt lat="46.49835" lon="6.07427">
        <ele>1059.99</ele>
        <time>2016-06-13T13:34:14Z</time>
      </trkpt>
      <trkpt lat="46.49827" lon="6.07415">
        <ele>1059.51</ele>
        <time>2016-06-13T13:34:23Z</time>
      </trkpt>
      <trkpt lat="46.49821" lon="6.07407">
        <ele>1059.99</ele>
        <time>2016-06-13T13:34:30Z</time>
      </trkpt>
      <trkpt lat="46.4982" lon="6.07393">
        <ele>1060.95</ele>
        <time>2016-06-13T13:34:40Z</time>
      </trkpt>
      <trkpt lat="46.49807" lon="6.07381">
        <ele>1060.47</ele>
        <time>2016-06-13T13:34:51Z</time>
      </trkpt>
      <trkpt lat="46.49805" lon="6.0738">
        <ele>1059.99</ele>
        <time>2016-06-13T13:34:54Z</time>
      </trkpt>
      <trkpt lat="46.49802" lon="6.07374">
        <ele>1059.51</ele>
        <time>2016-06-13T13:34:59Z</time>
      </trkpt>
      <trkpt lat="46.49802" lon="6.07372">
        <ele>1059.51</ele>
        <time>2016-06-13T13:35:01Z</time>
      </trkpt>
      <trkpt lat="46.49794" lon="6.07374">
        <ele>1059.51</ele>
        <time>2016-06-13T13:35:11Z</time>
      </trkpt>
      <trkpt lat="46.49782" lon="6.07373">
        <ele>1058.55</ele>
        <time>2016-06-13T13:35:21Z</time>
      </trkpt>
      <trkpt lat="46.49767" lon="6.07376">
        <ele>1058.07</ele>
        <time>2016-06-13T13:35:31Z</time>
      </trkpt>
      <trkpt lat="46.49747" lon="6.07384">
        <ele>1057.59</ele>
        <time>2016-06-13T13:35:46Z</time>
      </trkpt>
      <trkpt lat="46.49737" lon="6.07385">
        <ele>1057.59</ele>
        <time>2016-06-13T13:35:55Z</time>
      </trkpt>
      <trkpt lat="46.49729" lon="6.07388">
        <ele>1056.15</ele>
        <time>2016-06-13T13:36:03Z</time>
      </trkpt>
      <trkpt lat="46.4972" lon="6.07392">
        <ele>1055.67</ele>
        <time>2016-06-13T13:36:12Z</time>
      </trkpt>
      <trkpt lat="46.49711" lon="6.07397">
        <ele>1055.18</ele>
        <time>2016-06-13T13:36:20Z</time>
      </trkpt>
      <trkpt lat="46.49709" lon="6.07397">
        <ele>1054.7</ele>
        <time>2016-06-13T13:36:22Z</time>
      </trkpt>
      <trkpt lat="46.49703" lon="6.07399">
        <ele>1054.7</ele>
        <time>2016-06-13T13:36:27Z</time>
      </trkpt>
      <trkpt lat="46.49692" lon="6.07404">
        <ele>1055.18</ele>
        <time>2016-06-13T13:36:36Z</time>
      </trkpt>
      <trkpt lat="46.49689" lon="6.07403">
        <ele>1054.7</ele>
        <time>2016-06-13T13:36:38Z</time>
      </trkpt>
      <trkpt lat="46.49677" lon="6.07402">
        <ele>1054.22</ele>
        <time>2016-06-13T13:36:49Z</time>
      </trkpt>
      <trkpt lat="46.49672" lon="6.07401">
        <ele>1053.74</ele>
        <time>2016-06-13T13:36:54Z</time>
      </trkpt>
      <trkpt lat="46.49663" lon="6.07409">
        <ele>1054.7</ele>
        <time>2016-06-13T13:37:06Z</time>
      </trkpt>
      <trkpt lat="46.49651" lon="6.07397">
        <ele>1057.59</ele>
        <time>2016-06-13T13:37:20Z</time>
      </trkpt>
      <trkpt lat="46.49651" lon="6.07396">
        <ele>1057.59</ele>
        <time>2016-06-13T13:37:21Z</time>
      </trkpt>
      <trkpt lat="46.4964" lon="6.0738">
        <ele>1059.99</ele>
        <time>2016-06-13T13:37:33Z</time>
      </trkpt>
      <trkpt lat="46.4964" lon="6.0738">
        <ele>1059.99</ele>
        <time>2016-06-13T13:37:35Z</time>
      </trkpt>
      <trkpt lat="46.49637" lon="6.07366">
        <ele>1059.99</ele>
        <time>2016-06-13T13:37:44Z</time>
      </trkpt>
      <trkpt lat="46.4963" lon="6.07352">
        <ele>1061.43</ele>
        <time>2016-06-13T13:37:54Z</time>
      </trkpt>
      <trkpt lat="46.49628" lon="6.07346">
        <ele>1061.91</ele>
        <time>2016-06-13T13:37:58Z</time>
      </trkpt>
      <trkpt lat="46.49624" lon="6.07335">
        <ele>1063.36</ele>
        <time>2016-06-13T13:38:07Z</time>
      </trkpt>
      <trkpt lat="46.49619" lon="6.07323">
        <ele>1063.36</ele>
        <time>2016-06-13T13:38:16Z</time>
      </trkpt>
      <trkpt lat="46.49613" lon="6.07312">
        <ele>1063.84</ele>
        <time>2016-06-13T13:38:24Z</time>
      </trkpt>
      <trkpt lat="46.49607" lon="6.07301">
        <ele>1063.84</ele>
        <time>2016-06-13T13:38:33Z</time>
      </trkpt>
      <trkpt lat="46.49605" lon="6.07295">
        <ele>1063.84</ele>
        <time>2016-06-13T13:38:38Z</time>
      </trkpt>
      <trkpt lat="46.496" lon="6.07283">
        <ele>1063.84</ele>
        <time>2016-06-13T13:38:47Z</time>
      </trkpt>
      <trkpt lat="46.49595" lon="6.0727">
        <ele>1064.32</ele>
        <time>2016-06-13T13:38:56Z</time>
      </trkpt>
      <trkpt lat="46.49592" lon="6.07263">
        <ele>1064.8</ele>
        <time>2016-06-13T13:39:02Z</time>
      </trkpt>
      <trkpt lat="46.49584" lon="6.07251">
        <ele>1064.32</ele>
        <time>2016-06-13T13:39:11Z</time>
      </trkpt>
      <trkpt lat="46.49583" lon="6.07248">
        <ele>1064.32</ele>
        <time>2016-06-13T13:39:14Z</time>
      </trkpt>
      <trkpt lat="46.49581" lon="6.07244">
        <ele>1064.32</ele>
        <time>2016-06-13T13:39:17Z</time>
      </trkpt>
      <trkpt lat="46.49576" lon="6.07232">
        <ele>1065.28</ele>
        <time>2016-06-13T13:39:27Z</time>
      </trkpt>
      <trkpt lat="46.49574" lon="6.07225">
        <ele>1065.76</ele>
        <time>2016-06-13T13:39:33Z</time>
      </trkpt>
      <trkpt lat="46.4957" lon="6.07218">
        <ele>1066.24</ele>
        <time>2016-06-13T13:39:37Z</time>
      </trkpt>
      <trkpt lat="46.49564" lon="6.07204">
        <ele>1064.8</ele>
        <time>2016-06-13T13:39:47Z</time>
      </trkpt>
      <trkpt lat="46.49559" lon="6.07188">
        <ele>1066.24</ele>
        <time>2016-06-13T13:39:59Z</time>
      </trkpt>
      <trkpt lat="46.49559" lon="6.07187">
        <ele>1066.72</ele>
        <time>2016-06-13T13:40:00Z</time>
      </trkpt>
      <trkpt lat="46.49548" lon="6.0717">
        <ele>1066.72</ele>
        <time>2016-06-13T13:40:12Z</time>
      </trkpt>
      <trkpt lat="46.49547" lon="6.07167">
        <ele>1067.2</ele>
        <time>2016-06-13T13:40:14Z</time>
      </trkpt>
      <trkpt lat="46.4954" lon="6.07153">
        <ele>1067.2</ele>
        <time>2016-06-13T13:40:24Z</time>
      </trkpt>
      <trkpt lat="46.49536" lon="6.07145">
        <ele>1067.68</ele>
        <time>2016-06-13T13:40:28Z</time>
      </trkpt>
      <trkpt lat="46.49535" lon="6.07141">
        <ele>1068.16</ele>
        <time>2016-06-13T13:40:30Z</time>
      </trkpt>
      <trkpt lat="46.4953" lon="6.07128">
        <ele>1069.12</ele>
        <time>2016-06-13T13:40:39Z</time>
      </trkpt>
      <trkpt lat="46.49527" lon="6.0712">
        <ele>1069.6</ele>
        <time>2016-06-13T13:40:45Z</time>
      </trkpt>
      <trkpt lat="46.49523" lon="6.07107">
        <ele>1071.05</ele>
        <time>2016-06-13T13:40:55Z</time>
      </trkpt>
      <trkpt lat="46.49519" lon="6.07095">
        <ele>1070.57</ele>
        <time>2016-06-13T13:41:04Z</time>
      </trkpt>
      <trkpt lat="46.49517" lon="6.0709">
        <ele>1071.05</ele>
        <time>2016-06-13T13:41:08Z</time>
      </trkpt>
      <trkpt lat="46.49512" lon="6.07075">
        <ele>1072.01</ele>
        <time>2016-06-13T13:41:19Z</time>
      </trkpt>
      <trkpt lat="46.4951" lon="6.07068">
        <ele>1073.93</ele>
        <time>2016-06-13T13:41:26Z</time>
      </trkpt>
      <trkpt lat="46.49506" lon="6.07059">
        <ele>1075.37</ele>
        <time>2016-06-13T13:41:33Z</time>
      </trkpt>
      <trkpt lat="46.49501" lon="6.07045">
        <ele>1077.29</ele>
        <time>2016-06-13T13:41:44Z</time>
      </trkpt>
      <trkpt lat="46.49496" lon="6.07035">
        <ele>1078.26</ele>
        <time>2016-06-13T13:41:52Z</time>
      </trkpt>
      <trkpt lat="46.49492" lon="6.0702">
        <ele>1078.74</ele>
        <time>2016-06-13T13:42:01Z</time>
      </trkpt>
      <trkpt lat="46.49488" lon="6.07006">
        <ele>1078.74</ele>
        <time>2016-06-13T13:42:11Z</time>
      </trkpt>
      <trkpt lat="46.49486" lon="6.06998">
        <ele>1078.74</ele>
        <time>2016-06-13T13:42:16Z</time>
      </trkpt>
      <trkpt lat="46.4948" lon="6.06986">
        <ele>1078.26</ele>
        <time>2016-06-13T13:42:25Z</time>
      </trkpt>
      <trkpt lat="46.49478" lon="6.06981">
        <ele>1078.26</ele>
        <time>2016-06-13T13:42:30Z</time>
      </trkpt>
      <trkpt lat="46.49477" lon="6.06967">
        <ele>1078.74</ele>
        <time>2016-06-13T13:42:39Z</time>
      </trkpt>
      <trkpt lat="46.49476" lon="6.06966">
        <ele>1077.78</ele>
        <time>2016-06-13T13:42:53Z</time>
      </trkpt>
      <trkpt lat="46.49475" lon="6.06955">
        <ele>1079.22</ele>
        <time>2016-06-13T13:43:00Z</time>
      </trkpt>
      <trkpt lat="46.49473" lon="6.06952">
        <ele>1079.7</ele>
        <time>2016-06-13T13:43:01Z</time>
      </trkpt>
      <trkpt lat="46.49472" lon="6.06947">
        <ele>1080.66</ele>
        <time>2016-06-13T13:43:04Z</time>
      </trkpt>
      <trkpt lat="46.49466" lon="6.06934">
        <ele>1081.62</ele>
        <time>2016-06-13T13:43:13Z</time>
      </trkpt>
      <trkpt lat="46.49462" lon="6.06926">
        <ele>1083.06</ele>
        <time>2016-06-13T13:43:21Z</time>
      </trkpt>
      <trkpt lat="46.49458" lon="6.06915">
        <ele>1083.06</ele>
        <time>2016-06-13T13:43:28Z</time>
      </trkpt>
      <trkpt lat="46.49456" lon="6.0691">
        <ele>1084.02</ele>
        <time>2016-06-13T13:43:31Z</time>
      </trkpt>
      <trkpt lat="46.4945" lon="6.06899">
        <ele>1085.47</ele>
        <time>2016-06-13T13:43:40Z</time>
      </trkpt>
      <trkpt lat="46.49448" lon="6.06896">
        <ele>1085.95</ele>
        <time>2016-06-13T13:43:43Z</time>
      </trkpt>
      <trkpt lat="46.49439" lon="6.06888">
        <ele>1085.95</ele>
        <time>2016-06-13T13:43:52Z</time>
      </trkpt>
      <trkpt lat="46.4943" lon="6.06882">
        <ele>1087.39</ele>
        <time>2016-06-13T13:44:00Z</time>
      </trkpt>
      <trkpt lat="46.49426" lon="6.06879">
        <ele>1086.43</ele>
        <time>2016-06-13T13:44:04Z</time>
      </trkpt>
      <trkpt lat="46.4942" lon="6.06874">
        <ele>1086.43</ele>
        <time>2016-06-13T13:44:10Z</time>
      </trkpt>
      <trkpt lat="46.49414" lon="6.06858">
        <ele>1086.43</ele>
        <time>2016-06-13T13:44:22Z</time>
      </trkpt>
      <trkpt lat="46.49412" lon="6.0685">
        <ele>1086.43</ele>
        <time>2016-06-13T13:44:30Z</time>
      </trkpt>
      <trkpt lat="46.49408" lon="6.06839">
        <ele>1087.87</ele>
        <time>2016-06-13T13:44:38Z</time>
      </trkpt>
      <trkpt lat="46.49408" lon="6.06838">
        <ele>1087.87</ele>
        <time>2016-06-13T13:44:39Z</time>
      </trkpt>
      <trkpt lat="46.49407" lon="6.06836">
        <ele>1088.35</ele>
        <time>2016-06-13T13:44:42Z</time>
      </trkpt>
      <trkpt lat="46.49404" lon="6.06825">
        <ele>1089.79</ele>
        <time>2016-06-13T13:44:51Z</time>
      </trkpt>
      <trkpt lat="46.49402" lon="6.06819">
        <ele>1089.79</ele>
        <time>2016-06-13T13:44:55Z</time>
      </trkpt>
      <trkpt lat="46.494" lon="6.0681">
        <ele>1090.27</ele>
        <time>2016-06-13T13:45:00Z</time>
      </trkpt>
      <trkpt lat="46.49398" lon="6.06805">
        <ele>1089.79</ele>
        <time>2016-06-13T13:45:04Z</time>
      </trkpt>
      <trkpt lat="46.49393" lon="6.06795">
        <ele>1088.35</ele>
        <time>2016-06-13T13:45:12Z</time>
      </trkpt>
      <trkpt lat="46.49391" lon="6.06785">
        <ele>1088.35</ele>
        <time>2016-06-13T13:45:19Z</time>
      </trkpt>
      <trkpt lat="46.49388" lon="6.06778">
        <ele>1089.31</ele>
        <time>2016-06-13T13:45:24Z</time>
      </trkpt>
      <trkpt lat="46.49387" lon="6.06774">
        <ele>1089.79</ele>
        <time>2016-06-13T13:45:26Z</time>
      </trkpt>
      <trkpt lat="46.49385" lon="6.06755">
        <ele>1087.87</ele>
        <time>2016-06-13T13:45:39Z</time>
      </trkpt>
      <trkpt lat="46.49381" lon="6.0674">
        <ele>1087.39</ele>
        <time>2016-06-13T13:45:49Z</time>
      </trkpt>
      <trkpt lat="46.49376" lon="6.06729">
        <ele>1087.87</ele>
        <time>2016-06-13T13:45:57Z</time>
      </trkpt>
      <trkpt lat="46.49377" lon="6.06718">
        <ele>1089.31</ele>
        <time>2016-06-13T13:46:05Z</time>
      </trkpt>
      <trkpt lat="46.49372" lon="6.06709">
        <ele>1088.83</ele>
        <time>2016-06-13T13:46:13Z</time>
      </trkpt>
      <trkpt lat="46.49367" lon="6.06696">
        <ele>1088.35</ele>
        <time>2016-06-13T13:46:23Z</time>
      </trkpt>
      <trkpt lat="46.49365" lon="6.06691">
        <ele>1088.83</ele>
        <time>2016-06-13T13:46:27Z</time>
      </trkpt>
      <trkpt lat="46.49365" lon="6.06678">
        <ele>1089.79</ele>
        <time>2016-06-13T13:46:35Z</time>
      </trkpt>
      <trkpt lat="46.49362" lon="6.06665">
        <ele>1092.2</ele>
        <time>2016-06-13T13:46:46Z</time>
      </trkpt>
      <trkpt lat="46.49359" lon="6.06658">
        <ele>1092.2</ele>
        <time>2016-06-13T13:46:55Z</time>
      </trkpt>
      <trkpt lat="46.49359" lon="6.06649">
        <ele>1092.2</ele>
        <time>2016-06-13T13:47:08Z</time>
      </trkpt>
      <trkpt lat="46.49358" lon="6.06649">
        <ele>1091.71</ele>
        <time>2016-06-13T13:47:36Z</time>
      </trkpt>
      <trkpt lat="46.49358" lon="6.06649">
        <ele>1091.71</ele>
        <time>2016-06-13T13:47:53Z</time>
      </trkpt>
    </trkseg>
  </trk>
</gpx>